[[{"header":{"parameterUnit":"m.s-1","parameterCategory":1,"la1":30.6,"la2":29.2853,"lo1":-89.7004,"lo2":-87.6739,"dy":0.0162,"dx":0.0183,"nx":112,"ny":82,"refTime":"2023-05-02T00:00:00:Z","depth":0,"parameterNumber":2,"parameterNumberName":"U-component_of_WINDS"},"data":[0.0,0.0,0.0,0.0,0.0,0.0,0.0,0.0,0.0,0.0,0.0,0.0,0.0,0.0,0.0,0.0,0.0,0.0,0.0,0.0,0.0,0.0,0.0,0.0,0.0,0.0,0.0,0.0,0.0,0.0,0.0,0.0,0.0,0.0,0.0,0.0,0.0,0.0,0.0,0.0,0.0,0.0,0.0,0.0,0.0,0.0,0.0,0.0,0.0,0.0,0.0,0.0,0.0,0.0,0.0,0.0,0.0,0.0,0.0,0.0,0.0,0.0,0.0,0.0,0.0,0.0,0.0,0.0,0.0,0.0,0.0,0.0,0.0,0.0,0.0,0.0,0.0,0.0,0.0,0.0,0.0,0.0,0.0,0.0,0.0,0.0,0.0,0.0,0.0,0.0,-4.1379,-4.2169,-4.3059,-4.3597,-4.3689,-4.3691,-4.3769,-4.3887,0.0,0.0,0.0,0.0,0.0,0.0,0.0,0.0,0.0,0.0,0.0,0.0,0.0,0.0,0.0,0.0,0.0,0.0,0.0,0.0,0.0,0.0,0.0,0.0,0.0,0.0,0.0,0.0,0.0,0.0,0.0,0.0,0.0,0.0,0.0,0.0,0.0,0.0,0.0,0.0,0.0,0.0,0.0,0.0,0.0,0.0,0.0,0.0,0.0,0.0,0.0,0.0,0.0,0.0,0.0,0.0,0.0,0.0,0.0,0.0,0.0,0.0,0.0,0.0,0.0,0.0,0.0,0.0,0.0,0.0,0.0,0.0,0.0,0.0,0.0,0.0,0.0,0.0,0.0,0.0,0.0,0.0,0.0,0.0,0.0,0.0,0.0,0.0,0.0,0.0,0.0,0.0,0.0,0.0,0.0,0.0,0.0,0.0,0.0,0.0,0.0,0.0,0.0,0.0,-4.2799,-4.3014,-4.3262,-4.3487,-4.3595,-4.3667,-4.4023,-4.4766,0.0,0.0,0.0,0.0,0.0,0.0,0.0,0.0,0.0,0.0,0.0,0.0,0.0,0.0,0.0,0.0,0.0,0.0,0.0,0.0,0.0,0.0,0.0,0.0,0.0,0.0,0.0,0.0,0.0,0.0,0.0,0.0,0.0,0.0,0.0,0.0,0.0,0.0,0.0,0.0,0.0,0.0,0.0,0.0,0.0,0.0,0.0,0.0,0.0,0.0,0.0,0.0,0.0,0.0,0.0,0.0,0.0,0.0,0.0,0.0,0.0,0.0,0.0,0.0,0.0,0.0,0.0,0.0,0.0,0.0,0.0,0.0,0.0,0.0,0.0,0.0,0.0,0.0,0.0,0.0,0.0,0.0,0.0,0.0,0.0,0.0,0.0,0.0,0.0,0.0,0.0,0.0,0.0,0.0,0.0,0.0,0.0,0.0,0.0,0.0,0.0,0.0,0.0,-4.3277,-4.3782,-4.3899,-4.4404,-4.4814,-4.4931,-4.5052,-4.5273,-4.5683,-4.5332,0.0,0.0,0.0,0.0,0.0,0.0,0.0,0.0,0.0,0.0,0.0,0.0,0.0,0.0,0.0,0.0,0.0,0.0,0.0,0.0,0.0,0.0,0.0,0.0,0.0,0.0,0.0,0.0,0.0,0.0,0.0,0.0,0.0,0.0,0.0,0.0,0.0,0.0,0.0,0.0,0.0,0.0,0.0,0.0,0.0,0.0,0.0,0.0,0.0,0.0,0.0,0.0,0.0,0.0,0.0,0.0,0.0,0.0,0.0,0.0,0.0,0.0,0.0,0.0,0.0,0.0,0.0,0.0,0.0,0.0,0.0,0.0,0.0,0.0,0.0,0.0,0.0,0.0,0.0,0.0,0.0,0.0,0.0,0.0,0.0,0.0,0.0,0.0,0.0,0.0,0.0,0.0,0.0,0.0,0.0,0.0,0.0,0.0,0.0,0.0,0.0,0.0,-4.422,-4.4652,-4.4754,-4.5423,-4.5914,-4.6014,-4.617,-4.6248,-4.6248,-4.6289,0.0,0.0,0.0,0.0,0.0,0.0,0.0,0.0,0.0,0.0,0.0,0.0,0.0,0.0,0.0,0.0,0.0,0.0,0.0,0.0,0.0,0.0,0.0,0.0,0.0,0.0,0.0,0.0,0.0,0.0,0.0,0.0,0.0,0.0,0.0,0.0,0.0,0.0,0.0,0.0,0.0,0.0,0.0,0.0,0.0,0.0,0.0,0.0,0.0,0.0,0.0,0.0,0.0,0.0,0.0,0.0,0.0,0.0,0.0,0.0,0.0,0.0,0.0,0.0,0.0,0.0,0.0,0.0,0.0,0.0,0.0,0.0,0.0,0.0,0.0,0.0,0.0,0.0,0.0,0.0,0.0,0.0,0.0,0.0,0.0,0.0,0.0,0.0,0.0,0.0,0.0,0.0,0.0,0.0,0.0,0.0,0.0,0.0,0.0,0.0,0.0,0.0,-4.5479,-4.5498,-4.5516,-4.5687,-4.5803,-4.5815,-4.599,-4.6115,-4.6115,-4.6225,0.0,0.0,0.0,0.0,0.0,0.0,0.0,0.0,0.0,0.0,0.0,0.0,0.0,0.0,0.0,0.0,0.0,0.0,0.0,0.0,0.0,0.0,0.0,0.0,0.0,0.0,0.0,0.0,0.0,0.0,0.0,0.0,0.0,0.0,0.0,0.0,0.0,0.0,0.0,0.0,0.0,0.0,0.0,0.0,0.0,0.0,0.0,0.0,0.0,0.0,0.0,0.0,0.0,0.0,0.0,0.0,0.0,0.0,0.0,0.0,0.0,0.0,0.0,0.0,0.0,0.0,0.0,0.0,0.0,0.0,0.0,0.0,0.0,0.0,0.0,0.0,0.0,0.0,0.0,0.0,0.0,0.0,0.0,0.0,0.0,0.0,0.0,0.0,0.0,0.0,0.0,0.0,0.0,0.0,0.0,0.0,0.0,0.0,0.0,0.0,0.0,0.0,-4.5594,-4.5594,-4.5594,-4.573,-4.5803,-4.5803,-4.591,-4.6001,-4.6087,0.0,0.0,0.0,0.0,0.0,0.0,0.0,0.0,0.0,0.0,0.0,0.0,0.0,0.0,0.0,0.0,0.0,0.0,0.0,0.0,0.0,0.0,0.0,0.0,0.0,0.0,0.0,0.0,0.0,0.0,0.0,0.0,0.0,0.0,0.0,0.0,0.0,0.0,0.0,0.0,0.0,0.0,0.0,0.0,0.0,0.0,0.0,0.0,0.0,0.0,0.0,0.0,0.0,0.0,0.0,0.0,0.0,0.0,0.0,0.0,0.0,0.0,0.0,0.0,0.0,0.0,0.0,0.0,0.0,0.0,0.0,0.0,0.0,0.0,0.0,0.0,0.0,0.0,0.0,0.0,0.0,0.0,0.0,0.0,0.0,0.0,0.0,0.0,0.0,0.0,0.0,0.0,0.0,0.0,0.0,0.0,0.0,0.0,0.0,0.0,0.0,0.0,-4.5594,-4.5594,-4.5594,-4.5594,-4.5688,-4.5733,-4.5733,-4.5813,-4.5915,-4.5994,0.0,0.0,0.0,0.0,0.0,0.0,0.0,0.0,0.0,0.0,0.0,0.0,0.0,0.0,0.0,0.0,0.0,0.0,0.0,0.0,0.0,0.0,0.0,0.0,0.0,0.0,0.0,0.0,0.0,0.0,0.0,0.0,0.0,0.0,0.0,0.0,0.0,0.0,0.0,0.0,0.0,0.0,0.0,0.0,0.0,0.0,0.0,0.0,0.0,0.0,0.0,0.0,0.0,0.0,0.0,0.0,0.0,0.0,0.0,0.0,0.0,0.0,0.0,0.0,0.0,0.0,0.0,0.0,0.0,0.0,0.0,0.0,0.0,0.0,0.0,0.0,0.0,0.0,0.0,0.0,0.0,0.0,0.0,0.0,0.0,0.0,0.0,0.0,0.0,0.0,0.0,0.0,0.0,0.0,0.0,0.0,0.0,0.0,0.0,0.0,0.0,0.0,-4.5594,-4.5594,-4.5594,-4.5594,-4.5594,-4.5594,-4.5594,-4.573,-4.5796,0.0,0.0,0.0,0.0,0.0,0.0,0.0,0.0,0.0,0.0,0.0,0.0,0.0,0.0,0.0,0.0,0.0,0.0,0.0,0.0,0.0,0.0,0.0,0.0,0.0,0.0,0.0,0.0,0.0,0.0,0.0,0.0,0.0,0.0,0.0,0.0,0.0,0.0,0.0,0.0,0.0,0.0,0.0,0.0,0.0,0.0,0.0,0.0,0.0,0.0,0.0,0.0,0.0,0.0,0.0,0.0,0.0,0.0,0.0,0.0,0.0,0.0,0.0,0.0,0.0,0.0,0.0,0.0,0.0,0.0,0.0,0.0,0.0,0.0,0.0,0.0,0.0,0.0,0.0,0.0,0.0,0.0,0.0,0.0,0.0,0.0,0.0,0.0,0.0,0.0,0.0,0.0,0.0,0.0,0.0,0.0,0.0,0.0,0.0,0.0,0.0,0.0,0.0,-4.5594,-4.5594,-4.5594,-4.5594,-4.5594,-4.5594,-4.5594,-4.5635,-4.57,-4.579,0.0,0.0,0.0,0.0,0.0,0.0,0.0,0.0,0.0,0.0,0.0,0.0,0.0,0.0,0.0,0.0,0.0,0.0,0.0,0.0,0.0,0.0,0.0,0.0,0.0,0.0,0.0,0.0,0.0,0.0,0.0,0.0,0.0,0.0,0.0,0.0,0.0,0.0,0.0,0.0,0.0,0.0,0.0,0.0,0.0,0.0,0.0,0.0,0.0,0.0,0.0,0.0,0.0,0.0,0.0,0.0,0.0,0.0,0.0,0.0,0.0,0.0,0.0,0.0,0.0,0.0,0.0,0.0,0.0,0.0,0.0,0.0,0.0,0.0,0.0,0.0,0.0,0.0,0.0,0.0,0.0,0.0,0.0,0.0,0.0,0.0,0.0,0.0,0.0,0.0,0.0,0.0,0.0,0.0,0.0,0.0,0.0,0.0,0.0,0.0,0.0,0.0,-4.5577,-4.5485,-4.5448,-4.5586,-4.5594,-4.5594,-4.5594,-4.5594,-4.5635,-4.5723,0.0,0.0,0.0,0.0,0.0,0.0,0.0,0.0,0.0,0.0,0.0,0.0,0.0,0.0,0.0,0.0,0.0,0.0,0.0,0.0,0.0,0.0,0.0,0.0,0.0,0.0,0.0,0.0,0.0,0.0,0.0,0.0,0.0,0.0,0.0,0.0,0.0,0.0,0.0,0.0,0.0,0.0,0.0,0.0,0.0,0.0,0.0,0.0,0.0,0.0,0.0,0.0,0.0,0.0,0.0,0.0,0.0,0.0,0.0,0.0,0.0,0.0,0.0,0.0,0.0,0.0,0.0,0.0,0.0,0.0,0.0,0.0,0.0,0.0,0.0,0.0,0.0,0.0,0.0,0.0,0.0,0.0,0.0,0.0,0.0,0.0,0.0,0.0,0.0,0.0,0.0,0.0,0.0,0.0,0.0,0.0,0.0,0.0,0.0,0.0,0.0,0.0,-4.5513,-4.5253,-4.518,-4.5466,-4.555,-4.5559,-4.5559,-4.5577,-4.5594,-4.5594,0.0,0.0,0.0,0.0,0.0,0.0,0.0,0.0,0.0,0.0,0.0,0.0,0.0,0.0,0.0,0.0,0.0,0.0,0.0,0.0,0.0,0.0,0.0,0.0,0.0,0.0,0.0,0.0,0.0,0.0,0.0,0.0,0.0,0.0,0.0,0.0,0.0,0.0,0.0,0.0,0.0,0.0,0.0,0.0,0.0,0.0,0.0,0.0,0.0,0.0,0.0,0.0,0.0,0.0,0.0,0.0,0.0,0.0,0.0,0.0,-4.5096,-4.5211,0.0,0.0,0.0,0.0,0.0,0.0,0.0,0.0,0.0,0.0,0.0,0.0,0.0,0.0,0.0,0.0,0.0,0.0,0.0,0.0,0.0,0.0,0.0,0.0,0.0,0.0,0.0,0.0,0.0,0.0,0.0,0.0,0.0,0.0,0.0,0.0,0.0,0.0,0.0,0.0,-4.5201,-4.4919,-4.472,-4.4812,-4.5052,-4.5211,-4.5211,-4.5438,-4.5594,-4.5594,-4.5637,0.0,0.0,0.0,0.0,0.0,0.0,0.0,0.0,0.0,0.0,0.0,0.0,0.0,0.0,0.0,0.0,0.0,0.0,0.0,0.0,0.0,0.0,0.0,0.0,0.0,0.0,0.0,0.0,0.0,0.0,0.0,0.0,0.0,0.0,0.0,0.0,0.0,0.0,0.0,0.0,0.0,0.0,0.0,0.0,0.0,0.0,0.0,0.0,0.0,0.0,0.0,0.0,0.0,0.0,0.0,0.0,0.0,0.0,0.0,-4.4707,-4.4861,0.0,0.0,0.0,0.0,0.0,0.0,0.0,0.0,0.0,0.0,0.0,0.0,0.0,0.0,0.0,0.0,0.0,0.0,0.0,0.0,0.0,0.0,0.0,0.0,0.0,0.0,0.0,0.0,0.0,0.0,0.0,0.0,0.0,0.0,0.0,0.0,0.0,0.0,0.0,0.0,-4.4861,-4.4535,-4.4392,-4.458,-4.4763,-4.4861,-4.4861,-4.5011,-4.5118,-4.5118,-4.5118,0.0,0.0,0.0,0.0,0.0,0.0,0.0,0.0,0.0,0.0,0.0,0.0,0.0,0.0,0.0,0.0,0.0,0.0,0.0,0.0,0.0,0.0,0.0,0.0,0.0,0.0,0.0,0.0,0.0,0.0,0.0,0.0,0.0,0.0,0.0,0.0,0.0,0.0,0.0,0.0,0.0,0.0,0.0,0.0,0.0,0.0,0.0,0.0,0.0,0.0,0.0,0.0,0.0,-4.3512,-4.4199,-4.4199,-4.4349,-4.4237,-4.3924,-4.4266,-4.4447,-4.4514,-4.4793,0.0,0.0,0.0,0.0,0.0,0.0,0.0,0.0,0.0,0.0,0.0,0.0,0.0,0.0,0.0,0.0,0.0,0.0,0.0,0.0,0.0,0.0,-4.4001,-4.4337,-4.415,-4.4001,-4.4337,0.0,0.0,0.0,0.0,0.0,0.0,0.0,0.0,0.0,0.0,0.0,-4.4501,-4.4146,-4.4031,-4.4364,-4.446,-4.4501,-4.4501,-4.4553,-4.4593,-4.4593,-4.4593,-4.4593,0.0,0.0,0.0,0.0,0.0,0.0,0.0,0.0,0.0,0.0,0.0,0.0,0.0,0.0,0.0,0.0,0.0,0.0,0.0,0.0,0.0,0.0,0.0,0.0,0.0,0.0,0.0,0.0,0.0,0.0,0.0,0.0,-3.8704,-3.8747,0.0,0.0,0.0,0.0,0.0,0.0,0.0,0.0,0.0,0.0,0.0,0.0,0.0,-4.0639,-4.0639,-4.1317,-4.167,-4.1656,-4.2294,-4.2597,-4.2634,-4.3334,-4.3614,-4.3563,-4.3631,0.0,-4.4073,-4.4132,0.0,0.0,0.0,0.0,0.0,0.0,0.0,0.0,0.0,0.0,0.0,0.0,0.0,0.0,0.0,0.0,0.0,0.0,0.0,0.0,0.0,0.0,-4.358,-4.3631,-4.3597,-4.358,-4.3631,-4.4154,-4.4606,-4.4644,-4.4676,-4.467,0.0,0.0,0.0,0.0,0.0,0.0,-4.4073,-4.3772,-4.358,-4.3647,-4.3896,-4.4073,-4.4073,-4.4406,-4.4593,-4.4593,-4.4593,-4.4593,-4.4593,-4.4631,0.0,0.0,0.0,0.0,0.0,0.0,0.0,0.0,0.0,0.0,0.0,0.0,0.0,0.0,0.0,0.0,0.0,0.0,0.0,0.0,0.0,0.0,0.0,0.0,0.0,0.0,0.0,0.0,0.0,-3.8251,-3.8366,-3.8658,-3.843,-3.841,0.0,0.0,0.0,0.0,0.0,0.0,0.0,0.0,0.0,-3.9775,-4.0546,-4.0958,-4.0958,-4.1662,-4.1976,-4.1994,-4.2645,-4.2965,-4.2983,-4.3332,-4.3515,-4.3515,-4.3515,-4.358,-4.3742,-4.3909,-4.4102,-4.4294,0.0,0.0,0.0,0.0,-4.4593,-4.4567,-4.4332,-4.4261,-4.4219,-4.4035,0.0,0.0,0.0,0.0,0.0,0.0,0.0,-4.3515,-4.3515,-4.3515,-4.3515,-4.3515,-4.3515,-4.3515,-4.3515,-4.3742,-4.4035,-4.4237,-4.4261,-4.4332,-4.4553,-4.4593,0.0,0.0,0.0,-4.3924,-4.3742,-4.3597,-4.3515,-4.3515,-4.3629,-4.3726,-4.3726,-4.3884,-4.3992,-4.3992,-4.3992,-4.3992,-4.3992,-4.4165,-4.4261,0.0,0.0,0.0,0.0,0.0,0.0,0.0,0.0,0.0,0.0,0.0,0.0,0.0,0.0,0.0,0.0,0.0,0.0,0.0,0.0,0.0,0.0,0.0,0.0,0.0,0.0,0.0,0.0,-3.772,-3.7911,-3.8433,-3.8132,-3.8099,0.0,0.0,0.0,0.0,0.0,0.0,-3.9297,-3.9882,-4.0212,-4.0212,-4.1001,-4.1407,-4.1407,-4.2213,-4.2598,-4.2598,-4.3221,-4.3625,-4.3809,-4.3809,-4.392,-4.4103,-4.4103,-4.4103,-4.4101,-4.3941,-4.3865,-4.3912,-4.4194,-4.4308,-4.4308,-4.4308,-4.4308,-4.4266,-4.3989,-4.3865,-4.3818,-4.358,-4.3515,-4.3515,-4.3515,0.0,0.0,0.0,0.0,-4.3515,-4.3515,-4.3515,-4.3515,-4.3515,-4.3515,-4.3515,-4.3515,-4.3515,-4.3563,-4.3818,-4.3865,-4.3974,-4.4266,-4.4308,0.0,-4.3927,-4.3865,-4.3772,-4.3531,-4.3515,-4.3515,-4.3515,-4.3515,-4.3515,-4.3515,-4.3515,-4.3515,-4.3515,-4.3515,-4.3515,-4.3515,-4.3742,-4.3865,-4.3865,0.0,0.0,0.0,0.0,0.0,0.0,0.0,0.0,0.0,0.0,0.0,0.0,0.0,0.0,0.0,0.0,0.0,0.0,0.0,0.0,0.0,0.0,0.0,0.0,0.0,0.0,0.0,0.0,0.0,-3.7876,-3.7929,0.0,0.0,0.0,0.0,-3.9772,-3.9827,-4.0175,-4.093,-4.1022,-4.104,-4.104,-4.1827,-4.2249,-4.2249,-4.3039,-4.3441,-4.3441,-4.3478,-4.3901,-4.4654,-4.4654,-4.5057,-4.5773,-4.5773,-4.5773,-4.5663,-4.4156,-4.3531,-4.3531,-4.3548,-4.3565,-4.3565,-4.3565,-4.3565,-4.3548,-4.3531,-4.3531,-4.3513,-4.3515,-4.3515,-4.3515,-4.3515,-4.3515,0.0,0.0,-4.3515,-4.3515,-4.3515,-4.3515,-4.3515,-4.3515,-4.3515,-4.3515,-4.3515,-4.3515,-4.3496,-4.3513,-4.3531,-4.3531,-4.3548,0.0,-4.3548,-4.3531,-4.3531,-4.3513,-4.3496,-4.3515,-4.3515,-4.3515,-4.3515,-4.3515,-4.3515,-4.3515,-4.3515,-4.3515,-4.3515,-4.3515,-4.3515,-4.3513,-4.3531,-4.3531,-4.3531,0.0,0.0,0.0,0.0,0.0,0.0,0.0,0.0,0.0,0.0,0.0,0.0,0.0,0.0,0.0,0.0,0.0,0.0,0.0,0.0,0.0,0.0,0.0,0.0,0.0,0.0,0.0,0.0,-3.8035,-3.784,0.0,-3.9045,-3.9463,-3.9783,-4.0073,-4.0454,-4.0799,-4.1077,-4.1589,-4.1882,-4.1882,-4.2653,-4.3314,-4.3846,-4.414,-4.4525,-4.5039,-4.5039,-4.5186,-4.548,-4.548,-4.5626,-4.5902,-4.5902,-4.5902,-4.5865,-4.5278,-4.4745,-4.4213,-4.3699,-4.3515,-4.3515,-4.3515,-4.3515,-4.3515,-4.3515,-4.3515,-4.3515,-4.3515,-4.3515,-4.3515,-4.3515,-4.3515,-4.3427,-4.3069,-4.3232,-4.3339,-4.26,-4.294,-4.341,-4.3087,-4.325,-4.3515,-4.3515,-4.3515,-4.3515,-4.3515,-4.3515,-4.3515,-4.3515,-4.3515,-4.3515,-4.3515,-4.3515,-4.3515,-4.3515,-4.3515,-4.3515,-4.3515,-4.3515,-4.3515,-4.3515,-4.3515,-4.3515,-4.3515,-4.3515,-4.3515,-4.3515,-4.3515,-4.3339,-4.2995,-4.2976,-4.2976,0.0,0.0,0.0,0.0,0.0,0.0,0.0,0.0,0.0,0.0,0.0,0.0,0.0,0.0,0.0,0.0,0.0,0.0,0.0,0.0,0.0,0.0,0.0,0.0,0.0,-3.6736,-3.7279,-3.8278,-3.8098,-3.8268,-3.9297,-3.9711,-4.0031,-4.0299,-4.0854,-4.1317,-4.1609,-4.2586,-4.3112,-4.3112,-4.3883,-4.4562,-4.5112,-4.5112,-4.5369,-4.5902,-4.5902,-4.6049,-4.6305,-4.6305,-4.6452,-4.6709,-4.6709,-4.6709,-4.6672,-4.6192,-4.5696,-4.5112,-4.4252,-4.3901,-4.3864,-4.3606,-4.3515,-4.3515,-4.3515,-4.3392,-4.3232,-4.3232,-4.3087,-4.2922,-4.2922,-4.2922,-4.2847,-4.25,-4.2638,-4.2753,-4.2,-4.2366,-4.2847,-4.2482,-4.2657,-4.2922,-4.2922,-4.2922,-4.2922,-4.2922,-4.3232,-4.3515,-4.3515,-4.3515,-4.3515,-4.3515,-4.3515,-4.3515,-4.3515,-4.3515,-4.3515,-4.3515,-4.3515,-4.3515,-4.3515,-4.3515,-4.3427,-4.3232,-4.3232,-4.3142,-4.294,-4.3124,-4.2905,-4.2278,-4.226,-4.2308,-4.24,0.0,0.0,0.0,0.0,0.0,0.0,0.0,0.0,0.0,0.0,0.0,0.0,0.0,0.0,0.0,0.0,0.0,0.0,0.0,0.0,0.0,0.0,0.0,-3.6846,-3.7449,-3.8084,-3.857,-3.8619,-3.8816,-3.9379,-3.9441,-3.9779,-4.0559,-4.1139,-4.1825,-4.2655,-4.398,-4.471,-4.4692,-4.5443,-4.5865,-4.5883,-4.5883,-4.5883,-4.592,-4.592,-4.6323,-4.7074,-4.7074,-4.7497,-4.823,-4.823,-4.823,-4.8136,-4.6778,-4.6224,-4.6104,-4.5094,-4.471,-4.46,-4.3829,-4.3517,-4.3481,-4.3481,-4.3142,-4.2655,-4.2655,-4.2282,-4.181,-4.181,-4.181,-4.181,-4.1789,-4.1789,-4.1789,-4.1768,-4.1771,-4.181,-4.1789,-4.1789,-4.181,-4.181,-4.181,-4.181,-4.181,-4.2678,-4.3444,-4.3444,-4.3444,-4.3444,-4.3444,-4.3444,0.0,-4.3444,-4.3444,-4.3444,-4.3462,-4.348,-4.348,-4.348,-4.348,-4.325,-4.2711,-4.2655,-4.242,-4.1814,-4.2362,-4.2276,-4.141,-4.1373,-4.1518,-4.1789,0.0,0.0,0.0,0.0,0.0,0.0,0.0,0.0,0.0,0.0,0.0,0.0,0.0,0.0,0.0,0.0,0.0,0.0,0.0,0.0,0.0,-3.8041,-3.8193,-3.7669,-3.777,-3.8139,-3.8823,-3.8874,-3.915,-3.9846,-4.0268,-4.057,-4.0802,-4.1841,-4.2587,-4.2818,-4.4144,-4.4696,-4.4225,-4.4874,-4.5294,-4.539,-4.539,-4.5676,-4.6248,-4.6248,-4.6396,-4.6592,-4.6592,-4.6717,-4.6914,-4.6914,-4.6914,-4.6896,-4.6501,-4.6361,-4.6247,-4.5289,-4.4617,-4.421,-4.4484,-4.3953,-4.3048,-4.3048,-4.2608,-4.2059,-4.2059,-4.1937,-4.181,-4.181,-4.181,-4.1707,-4.1268,-4.1468,-4.1617,-4.0767,-4.1173,-4.1686,-4.1246,-4.149,-4.181,-4.181,-4.181,-4.181,-4.181,-4.2044,-4.2266,-4.2266,-4.2266,-4.2266,-4.2266,-4.2266,-4.2266,-4.2266,-4.2266,-4.2424,-4.2865,-4.292,-4.292,-4.292,-4.292,-4.2675,-4.2062,-4.2059,-4.1979,-4.181,-4.1958,-4.1747,-4.1069,-4.1029,-4.1103,0.0,0.0,0.0,0.0,0.0,0.0,0.0,0.0,0.0,0.0,0.0,0.0,0.0,0.0,0.0,0.0,0.0,0.0,0.0,0.0,0.0,0.0,-3.8717,-3.9073,-3.9259,-3.9022,-3.9089,-3.9834,-3.9918,-4.0206,-4.0959,-4.1306,-4.1496,-4.1496,-4.2438,-4.3027,-4.3027,-4.4338,-4.492,-4.4521,-4.5218,-4.5615,-4.5717,-4.5693,-4.5947,-4.6407,-4.6407,-4.6407,-4.6407,-4.6407,-4.6407,-4.6407,-4.6407,-4.6407,-4.6383,-4.6136,-4.6014,-4.5965,0.0,0.0,0.0,0.0,-4.407,-4.3355,-4.3355,-4.2916,-4.2349,-4.2033,-4.1752,-4.1493,-4.1163,-4.1099,-4.1007,-4.0672,-4.0821,-4.0955,-4.0279,-4.0594,-4.1007,-4.0648,-4.0821,-4.1099,-4.1099,-4.1099,-4.1099,-4.1099,-4.1099,0.0,-4.1099,-4.1486,-4.181,-4.181,-4.181,-4.181,-4.181,-4.181,-4.1937,-4.2282,-4.2322,-4.2322,-4.2322,-4.2322,0.0,0.0,0.0,-4.1424,-4.1424,-4.1104,0.0,0.0,0.0,-4.0463,-4.0611,-4.0594,0.0,0.0,-4.0744,-4.075,0.0,0.0,0.0,0.0,0.0,0.0,0.0,0.0,0.0,0.0,0.0,0.0,0.0,0.0,0.0,0.0,-3.8984,-3.9497,-4.0989,-4.0601,-4.0484,-4.1212,-4.1322,-4.1576,-4.2236,-4.2286,-4.2286,-4.2286,-4.2869,-4.3232,-4.3232,-4.4487,0.0,0.0,0.0,-4.6264,-4.6192,-4.6192,-4.6192,-4.6192,-4.6192,-4.6192,-4.6192,-4.6192,-4.6192,-4.6192,-4.6192,-4.6192,-4.6143,-4.5622,-4.5399,-4.539,-4.5194,-4.5176,-4.5135,-4.4349,-4.4003,-4.3915,-4.3915,0.0,0.0,-4.2334,-4.1705,-4.1085,-4.0409,-4.018,-4.0096,-4.0096,-4.0096,-4.0096,-4.0096,-4.0096,-4.0096,-4.0096,-4.0096,-4.0096,-4.0096,-4.0096,-4.0096,-4.0096,-4.0096,-4.0096,-4.0096,-4.0938,-4.1617,-4.1617,-4.1617,-4.1617,-4.1617,-4.1617,-4.1621,-4.1686,-4.1686,0.0,-4.1686,-4.1686,-4.1446,-4.085,-4.0803,-4.0803,-4.0803,-4.0118,-4.0083,-4.0786,-4.0118,-3.9853,-4.0096,-4.0096,-4.0096,-4.0096,-4.0096,-4.0096,0.0,0.0,0.0,0.0,0.0,0.0,0.0,0.0,0.0,0.0,0.0,0.0,0.0,0.0,0.0,-3.8601,-3.884,-3.9361,-4.0826,-4.091,-4.1145,-4.1987,-4.2083,-4.2134,-4.2286,-4.2286,-4.2286,-4.2286,-4.2952,-4.3372,-4.3372,-4.4665,-4.5209,-4.4739,-4.5338,-4.5433,-4.4944,-4.4961,-4.4961,-4.4961,-4.4961,0.0,-4.4961,-4.4961,-4.4961,-4.4961,-4.4961,-4.4961,-4.4934,-4.4814,-4.4759,-4.4769,-4.4726,-4.5008,-4.5354,-4.4738,-4.407,-4.3524,-4.3524,-4.3053,-4.2464,-4.2328,-4.1782,-4.117,-4.1035,-4.0561,0.0,-4.0096,-4.0096,-4.0096,-4.0096,-4.0096,-4.0096,-4.0096,-4.0096,-4.0096,-4.0096,-4.0096,-4.0096,-4.0096,-4.0096,-4.0096,-4.0096,-4.0279,-4.0417,-4.0417,-4.0417,-4.0417,-4.0417,-4.0417,-4.0594,-4.1018,-4.1087,-4.1087,-4.1087,-4.1087,-4.0827,-4.0286,-4.0237,-4.0237,-4.0237,-4.0118,-4.0101,-4.0237,-4.0101,-4.0043,-4.0096,-4.0096,-4.0096,-4.0096,-4.0096,-4.0096,0.0,0.0,0.0,0.0,0.0,0.0,0.0,0.0,0.0,0.0,0.0,-3.5481,-3.6896,0.0,-3.761,-3.9063,-3.9299,-3.969,-4.079,-4.135,-4.1917,-4.2736,-4.2861,-4.3014,-4.343,-4.3464,-4.3464,-4.3464,-4.3792,-4.3995,-4.3995,-4.4674,-4.4906,-4.4598,-4.4879,-4.4906,-4.4598,-4.4615,-4.4615,-4.4615,-4.4615,-4.4615,-4.4615,-4.4615,-4.4615,-4.4615,-4.4615,-4.4615,-4.4615,-4.4615,-4.4615,-4.4615,-4.4615,-4.4786,-4.5025,-4.472,-4.4361,-4.3995,-4.3995,-4.3758,-4.3369,-4.298,-4.2608,-4.2168,-4.1424,-4.0933,-4.0561,-4.0214,-4.0096,-4.0096,-4.0096,-4.0096,-4.0096,-4.0096,-4.0096,-4.0096,-4.0096,-4.0096,-4.0096,-4.0096,-4.0096,-4.0096,-4.0096,-4.0096,-4.0096,-4.0096,-4.0096,-4.0096,-4.0096,-4.0096,-4.0204,-4.0473,-4.0497,-4.0497,-4.0497,-4.0155,-3.9846,-3.9554,-3.9554,-3.9723,-4.0079,-4.0096,-4.0096,-4.0096,-4.0096,-4.0096,-4.0096,-4.0096,-4.0096,-4.0096,-4.0096,-4.0096,0.0,0.0,0.0,0.0,0.0,0.0,0.0,-3.3888,-3.4068,-3.4758,-3.4893,-3.543,-3.7241,-3.7552,-3.7992,-3.9314,-3.9519,-3.9819,-4.0721,-4.1477,-4.2282,-4.3272,-4.3529,-4.3893,-4.4547,-4.4615,-4.4615,-4.4615,-4.4615,-4.4615,-4.4615,-4.4615,-4.4615,-4.4615,-4.4615,-4.4615,-4.4615,-4.4615,-4.4615,-4.4615,-4.4615,-4.4615,-4.4615,-4.4615,-4.4615,-4.4615,-4.4615,-4.4615,-4.4615,-4.4615,-4.4615,-4.4615,-4.4615,-4.4615,-4.4615,-4.4615,-4.4615,-4.4615,-4.4615,-4.4615,-4.4496,-4.3842,-4.3538,-4.3139,-4.183,-4.1322,-4.1052,-4.0316,-4.0096,-4.0096,-4.0096,-4.0096,-4.0096,-4.0096,-4.0096,-4.0096,-4.0096,-4.0096,-4.0096,-4.0096,-4.0096,-4.0096,-4.0096,-4.0096,-4.0096,-4.0096,-4.0096,-4.0096,-4.0096,-4.0096,-4.0096,-4.0096,-4.0096,-4.0096,-4.0096,-3.9436,-3.8988,-3.8988,-3.887,-3.9039,-3.9656,-3.9673,-3.9673,-3.9673,-3.9673,-3.9757,-3.9893,-3.9893,-3.996,-4.0113,-3.9927,-3.9952,-3.202,-3.2886,-3.3544,-3.4234,-3.4399,-3.4548,0.0,-3.528,-3.5474,-3.6133,-3.6267,-3.651,-3.7286,-3.7421,-3.7665,-3.843,-3.8571,-3.9059,-4.0507,-4.0803,-4.1482,-4.3114,-4.4004,-4.4513,-4.4598,-4.4615,-4.4615,-4.4615,-4.4615,-4.4615,-4.4615,-4.4615,-4.4615,-4.4615,-4.4615,-4.4615,-4.4615,-4.4615,-4.4615,-4.4615,-4.4615,-4.4615,-4.4615,-4.4615,-4.4615,-4.4615,-4.4615,-4.4615,-4.4615,-4.4615,-4.4615,-4.4615,-4.4615,-4.4615,-4.4615,-4.4615,-4.4615,-4.4615,-4.4615,-4.4615,-4.4598,-4.4513,-4.3978,-4.3267,-4.2422,-4.1711,-4.1052,-4.0316,-4.0096,-4.0096,-4.0096,-4.0096,-4.0096,-4.0096,-4.0096,-4.0096,-4.0096,-4.0096,-4.0096,-4.0096,-4.0096,-4.0096,-4.0096,-4.0096,-4.0096,-4.0096,-4.0096,-4.0096,-4.0096,-4.0096,-4.0096,-4.0096,-4.0096,-4.0096,-4.0096,-3.9436,-3.8988,-3.8988,-3.8396,-3.8075,-3.8142,-3.8159,-3.8159,-3.8159,-3.8159,-3.8464,-3.9106,-3.9106,-3.9469,-4.007,-3.9368,-3.9411,-3.3012,-3.3858,-3.4218,-3.4906,-3.507,-3.525,-3.5923,-3.6073,-3.6252,-3.6881,-3.703,-3.7225,-3.7853,-3.7973,-3.8197,-3.8871,-3.899,-3.9223,-3.9854,-4.0363,-4.0979,-4.1707,-4.2552,-4.3486,-4.4514,-4.4615,-4.4784,-4.5213,-4.5229,-4.5415,-4.5867,-4.5872,-4.5872,-4.5872,-4.5872,-4.5872,-4.5872,-4.5449,-4.5229,-4.5229,-4.4818,-4.4615,-4.4615,-4.4615,-4.4615,-4.4615,-4.4615,-4.4615,-4.4615,-4.4615,-4.4615,-4.4615,-4.4615,-4.4615,-4.4615,-4.4615,-4.4615,-4.4615,-4.4615,-4.4615,-4.4615,-4.4615,-4.435,-4.3944,-4.3183,-4.2439,-4.1677,-4.095,-4.0434,-4.0096,-4.0096,-4.0096,-4.0096,-4.0096,-4.0096,-4.0096,-4.0096,-4.0096,-4.0096,-4.0096,-4.0096,-4.0096,-4.0096,-4.0096,-4.0096,-4.0096,-4.0096,-4.0096,-4.0096,-4.0096,-4.0096,-4.0096,-4.0096,-3.9943,-3.9503,-3.8768,-3.8362,-3.8362,-3.7669,-3.7449,-3.7889,-3.7905,-3.7905,-3.7905,-3.7905,-3.8058,-3.8362,-3.8362,-3.831,-3.8178,-3.8233,-3.8245,-3.3428,-3.4226,-3.4557,-3.5305,-3.5639,-3.5893,-3.6372,-3.6611,-3.6911,-3.7554,-3.7689,-3.7883,-3.8556,-3.8676,-3.8841,-3.9298,-3.9388,-3.9388,-3.9388,-3.992,-4.0432,-4.069,-4.1636,-4.289,-4.4394,-4.4555,-4.4829,-4.5555,-4.5874,-4.6244,-4.6752,-4.6786,-4.6786,-4.6786,-4.6786,-4.6786,-4.6786,-4.6075,-4.5703,-4.5703,-4.4942,-4.4615,-4.4615,-4.4615,-4.4615,-4.4615,-4.4615,-4.4615,-4.4615,-4.4615,-4.4615,-4.4615,-4.4615,-4.4615,-4.4615,-4.4615,-4.4615,-4.4615,-4.4615,-4.4615,-4.4615,-4.4615,-4.4615,-4.4462,-4.3656,-4.2878,-4.2151,-4.1407,-4.0663,-4.0096,-4.0096,-4.0096,-4.0096,-4.0096,-4.0096,-4.0096,-4.0096,-4.0096,-4.0096,-4.0096,-4.0096,-4.0096,-4.0096,-4.0096,-4.0096,-4.0096,-4.0096,-4.0096,-4.0096,-4.0096,-4.0096,-4.0096,-4.0096,-3.9893,-3.9368,-3.8633,-3.8125,-3.7922,-3.7195,-3.6948,-3.7263,-3.728,-3.728,-3.728,-3.728,-3.727,-3.7287,-3.7287,-3.712,-3.6797,-3.707,-3.7137,-3.2839,-3.3552,-3.425,-3.5246,-3.5983,-3.6462,-3.6492,-3.6941,-3.7569,-3.8227,-3.8362,-3.8571,-3.926,-3.9394,-3.9394,-3.9388,-3.9388,-3.9388,-3.9388,-3.9409,-3.9758,-4.0588,-4.2113,-4.3412,-4.4327,-4.442,-4.4686,-4.5349,-4.6254,-4.6769,-4.6786,-4.6786,-4.6786,-4.6786,-4.6786,-4.6786,-4.6786,-4.6075,-4.5703,-4.5703,-4.4942,-4.4615,-4.4615,-4.4615,-4.4615,-4.4615,-4.4615,-4.4615,-4.4615,-4.4615,-4.4615,-4.4615,-4.4615,-4.4615,-4.4615,-4.4615,-4.4615,-4.4615,-4.4615,-4.4615,-4.4615,-4.4615,-4.4615,-4.4462,-4.3656,-4.2878,-4.2151,-4.1407,-4.0663,-4.0096,-4.0096,-4.0096,-4.0096,-4.0096,-4.0096,-4.0096,-4.0096,-4.0096,-4.0096,-4.0096,-4.0096,-4.0096,-4.0096,-4.0096,-4.0096,-4.0096,-4.0096,-4.0096,-4.0096,-4.0096,-4.0096,-4.0096,-4.0096,-4.0096,-4.0079,-3.9402,-3.8667,-3.7956,-3.7195,-3.6451,-3.5701,-3.5667,-3.5667,-3.5667,-3.5667,-3.5713,-3.5778,-3.5778,-3.6114,-3.677,-3.6032,-3.6409,-3.3155,-3.3835,-3.4245,-3.5246,-3.5998,-3.6596,-3.7,-3.7599,-3.8257,-3.8931,-3.9065,-3.914,-3.9379,-3.9388,-3.9388,-3.9388,-3.9388,-3.9388,-3.9388,-3.9388,-3.9517,-3.9793,-4.071,-4.1597,-4.2348,-4.456,-4.6297,-4.7005,-4.7332,-4.775,-4.824,-4.8257,-4.8257,-4.8257,-4.8257,-4.8257,-4.8257,-4.753,-4.6921,-4.6413,-4.5207,-4.4615,-4.4615,-4.4615,-4.4615,-4.4615,-4.4615,-4.4615,-4.4615,-4.4615,-4.4615,-4.4615,-4.4615,-4.4615,-4.4615,-4.4615,-4.4615,-4.4615,-4.4615,-4.4615,-4.4615,-4.4615,-4.4615,-4.4564,-4.4265,-4.3656,-4.2878,-4.2134,-4.139,-4.0713,-4.0231,-4.0096,-4.0096,-4.0096,-4.0096,-4.0096,-4.0096,-4.0096,-4.0096,-4.0096,-4.0096,-4.0096,-4.0096,-4.0096,-4.0096,-4.0096,-4.0096,-4.0096,-4.0096,-4.0096,-4.0096,-4.0096,-4.0096,-4.0096,-4.0096,-3.9436,-3.8684,-3.7956,-3.7195,-3.6434,-3.5633,-3.56,-3.5385,-3.4941,-3.4941,-3.4732,-3.4293,-3.4293,-3.4414,-3.4626,-3.4781,-3.515,-3.2898,-3.3484,-3.3865,-3.5462,-3.6342,-3.6985,-3.7614,-3.8272,-3.8886,-3.9334,-3.9388,-3.9388,-3.9388,-3.9388,-3.9388,-3.9388,-3.9388,-3.9388,-3.9388,-3.9388,-3.9388,-3.9388,-4.0501,-4.1416,-4.1856,-4.5046,-4.7118,-4.7301,-4.7919,-4.8511,-4.8984,-4.9001,-4.9001,-4.9001,-4.9001,-4.9001,-4.9001,-4.8291,-4.7411,-4.6397,-4.519,-4.4615,-4.4615,-4.4615,-4.4615,-4.4615,-4.4615,-4.4615,-4.4615,-4.4615,-4.4615,-4.4615,-4.4615,-4.4615,-4.4615,-4.4615,-4.4615,-4.4615,-4.4615,-4.4615,-4.4615,-4.4615,-4.4615,-4.4615,-4.4615,-4.4045,-4.3291,-4.2828,-4.1982,-4.1085,-4.0612,-4.0316,-4.0096,-4.0096,-4.0096,-4.0096,-4.0096,-4.0096,-4.0096,-4.0096,-4.0096,-4.0096,-4.0096,-4.0096,-4.0096,-4.0096,-4.0096,-4.0096,-4.0096,-4.0096,-4.0096,-4.0096,-4.0096,-4.0096,-4.0096,-3.9673,-3.8954,-3.7973,-3.7449,-3.6705,-3.5633,-3.5362,-3.5052,-3.46,-3.4358,-3.3912,-3.3235,-3.3235,-3.3322,-3.3505,-3.3933,-3.4379,-3.2046,-3.2558,-3.322,-3.5798,-3.6922,-3.7584,-3.8242,-3.8931,-3.9388,-3.9388,-3.9388,-3.9388,-3.9388,-3.9388,-3.9388,-3.9388,-3.9388,-3.9388,-3.9388,-3.9388,-3.9388,-3.9388,-4.1377,-4.2736,-4.2736,-4.5598,-4.7104,-4.6244,-4.795,-4.9001,-4.9001,-4.9001,-4.9001,-4.9001,-4.9001,-4.9001,-4.9001,-4.824,-4.7158,-4.5754,-4.4987,-4.4615,-4.4615,-4.4615,-4.4615,-4.4615,-4.4615,-4.4615,-4.4615,-4.4615,-4.4615,-4.4615,-4.4615,-4.4615,-4.4615,-4.4615,-4.4615,-4.4615,-4.4615,-4.4615,-4.4615,-4.4615,-4.4615,-4.4615,-4.4615,-4.4062,-4.3443,-4.3409,-4.2405,-4.1305,-4.1221,-4.0679,-4.0146,-4.0113,-4.0096,-4.0096,-4.0096,-4.0096,-4.0096,-4.0096,-4.0096,-4.0096,-4.0096,-4.0096,-4.0096,-4.0096,-4.0096,-4.0096,-4.0096,-4.0096,-4.0096,-4.0096,-4.0096,-4.0096,-4.0096,-4.0096,-3.9462,-3.799,-3.7905,-3.7229,-3.5667,-3.4965,-3.4576,-3.4552,-3.3887,-3.3209,-3.2532,-3.2578,-3.2894,-3.3499,-3.3529,-3.4247,-3.1254,-3.2069,-3.303,-3.4923,-3.6404,-3.7584,-3.8242,-3.8931,-3.9388,-3.9388,-3.9388,-3.9388,-3.9388,-3.9388,-3.9388,-3.9388,-3.9388,-3.9388,-3.9388,-3.9388,-3.9388,-3.9388,-4.0783,-4.1753,-4.1753,-4.4028,-4.5706,-4.6173,-4.795,-4.9001,-4.9001,-4.9001,-4.9001,-4.9001,-4.9001,-4.9001,-4.9001,-4.7716,-4.6887,-4.6498,-4.5196,-4.4615,-4.4615,-4.4615,-4.4615,-4.4615,-4.4615,-4.4615,-4.4615,-4.4615,-4.4615,-4.4615,-4.4615,-4.4615,-4.4615,-4.4615,-4.4615,-4.4615,-4.4615,-4.4615,-4.4615,-4.4615,-4.4615,-4.4615,-4.4615,-4.4479,-4.4164,-4.3589,-4.3122,-4.2608,-4.1491,-4.1068,-4.0781,-4.0231,-4.0096,-4.0096,-4.0096,-4.0096,-4.0096,-4.0096,-4.0096,-4.0096,-4.0096,-4.0096,-4.0096,-4.0096,-4.0096,-4.0096,-4.0096,-4.0096,-4.0096,-4.0096,-4.0096,-4.0096,-4.0096,-4.0096,-3.9462,-3.799,-3.7905,-3.7229,-3.5667,-3.4965,-3.4358,-3.3862,-3.3198,-3.2504,-3.1768,-3.2294,-3.2855,-3.3499,-3.3993,-3.4681,-3.2069,-3.282,-3.3676,-3.5598,-3.6729,-3.7659,-3.8616,-3.914,-3.9388,-3.9388,-3.9388,-3.9388,-3.9388,-3.9388,-3.9388,-3.9388,-3.9388,-3.9388,-3.9388,-3.9388,-3.9388,-3.9388,-4.0576,-4.1422,-4.1422,-4.3478,-4.502,-4.5561,-4.7306,-4.8576,-4.897,-4.9001,-4.9001,-4.9001,-4.9001,-4.9001,-4.9001,-4.753,-4.6786,-4.6769,-4.5309,-4.4615,-4.4615,-4.4615,-4.4615,-4.4615,-4.4615,-4.4615,-4.4615,-4.4615,-4.4615,-4.4615,-4.4615,-4.4615,-4.4615,-4.4615,-4.4615,-4.4615,-4.4615,-4.4615,-4.4615,-4.4615,-4.4615,-4.4615,-4.4615,-4.4615,-4.4513,-4.4045,-4.3673,-4.3206,-4.2361,-4.1931,-4.1576,-4.1179,-4.1077,-4.1077,-4.1077,-4.1077,-4.0976,-4.0646,-4.0578,-4.0485,-4.0163,-4.0096,-4.0096,-4.0096,-4.0096,-4.0096,-4.0096,-4.0096,-4.0096,-4.0096,-4.0096,-4.0096,-4.0096,-4.0096,-3.9462,-3.799,-3.7905,-3.7077,-3.5234,-3.452,-3.3836,-3.3156,-3.2477,-3.191,-3.1511,-3.2168,-3.2856,-3.3514,-3.4204,-3.4846,-3.338,-3.3982,-3.465,-3.6699,-3.7361,-3.7868,-3.9089,-3.9388,-3.9388,-3.9388,-3.9388,-3.9388,-3.9388,-3.9388,-3.9388,-3.9388,-3.9388,-3.9388,-3.9388,-3.9388,-3.9388,-3.9388,-4.0576,-4.1422,-4.1422,-4.3327,-4.4662,-4.4774,-4.6311,-4.7704,-4.8767,-4.8829,-4.8861,-4.9001,-4.9001,-4.9001,-4.9001,-4.7631,-4.6887,-4.6769,-4.5382,-4.4699,-4.4615,-4.4615,-4.4615,-4.4615,-4.4615,-4.4615,-4.4615,-4.4615,-4.4615,-4.4615,-4.4615,-4.4615,-4.4615,-4.4615,-4.4615,-4.4615,-4.4615,-4.4615,-4.4615,-4.4615,-4.4615,-4.4615,-4.4615,-4.4615,-4.4615,-4.4615,-4.4096,-4.3511,-4.3426,-4.2929,-4.2422,-4.2303,-4.2286,-4.2286,-4.2286,-4.2286,-4.21,-4.1474,-4.1356,-4.1102,-4.0383,-4.0248,-4.0214,-4.0113,-4.0096,-4.0096,-4.0096,-4.0096,-4.0096,-4.0096,-4.0096,-4.0096,-4.0096,-4.0096,-3.9471,-3.7964,-3.7795,-3.6807,-3.4676,-3.386,-3.3182,-3.2614,-3.1957,-3.163,-3.163,-3.2392,-3.3066,-3.3649,-3.4307,-3.4936,-3.2749,-3.3818,-3.5047,-3.6025,-3.724,-3.8422,-3.923,-3.9388,-3.9388,-3.9388,-3.9388,-3.9388,-3.9388,-3.9388,-3.9388,-3.9388,-3.9388,-3.9388,-3.9388,-3.9388,-3.9388,-3.9388,-4.0576,-4.1422,-4.1422,-4.2707,-4.3888,-4.4737,-4.5095,-4.6028,-4.777,-4.7836,-4.8193,-4.897,-4.9001,-4.9001,-4.9001,-4.8156,-4.7411,-4.6786,-4.5923,-4.5179,-4.4615,-4.4615,-4.4615,-4.4615,-4.4615,-4.4615,-4.4615,-4.4615,-4.4615,-4.4615,-4.4615,-4.4615,-4.4615,-4.4615,-4.4615,-4.4615,-4.4615,-4.4615,-4.4615,-4.4615,-4.4615,-4.4615,-4.4615,-4.4615,-4.4615,-4.4615,-4.4513,-4.4231,-4.3561,-4.3291,-4.3064,-4.2439,-4.2286,-4.2286,-4.2286,-4.2286,-4.2252,-4.2117,-4.21,-4.1863,-4.1136,-4.1018,-4.0798,-4.0197,-4.0096,-4.0096,-4.0096,-4.0096,-4.0096,-4.0096,-4.0096,-4.0096,-4.0096,-4.0096,-3.9455,-3.7921,-3.7317,-3.6253,-3.4661,-3.3418,-3.2722,-3.2586,-3.2411,-3.2318,-3.2318,-3.3544,-3.4219,-3.4354,-3.5011,-3.5385,-3.4376,-3.519,-3.6031,-3.6987,-3.7842,-3.8571,-3.926,-3.9388,-3.9388,-3.9388,-3.9388,-3.9388,-3.9388,-3.9388,-3.9388,-3.9388,-3.9388,-3.9388,-3.9388,-3.9388,-3.9388,-3.9388,-4.0576,-4.1422,-4.1422,-4.2566,-4.3512,-4.3989,-4.4028,-4.484,-4.6781,-4.6884,-4.7306,-4.8257,-4.8257,-4.8513,-4.9001,-4.8291,-4.753,-4.6786,-4.6058,-4.5314,-4.4615,-4.4615,-4.4615,-4.4615,-4.4615,-4.4615,-4.4615,-4.4615,-4.4615,-4.4615,-4.4615,-4.4615,-4.4615,-4.4615,-4.4615,-4.4615,-4.4615,-4.4615,-4.4615,-4.4615,-4.4615,-4.4615,-4.4615,-4.4615,-4.4615,-4.4615,-4.4615,-4.4513,-4.4113,-4.4012,-4.3944,-4.3572,-4.3515,-4.3515,-4.3515,-4.3515,-4.3352,-4.2946,-4.2878,-4.2523,-4.139,-4.1204,-4.095,-4.0214,-4.0096,-4.0096,-4.0096,-4.0096,-4.0096,-4.0096,-4.0096,-4.0096,-4.0096,-3.9731,-3.899,-3.7877,-3.7138,-3.6093,-3.4596,-3.3948,-3.3426,-3.307,-3.3036,-3.3021,-3.3021,-3.4039,-3.4503,-3.4518,-3.519,-3.5504,-3.6116,-3.6582,-3.6956,-3.8108,-3.8497,-3.8751,-3.929,-3.9388,-3.9388,-3.9388,-3.9388,-3.9388,-3.9388,-3.9388,-3.9388,-3.9388,-3.9388,-3.9388,-3.9388,-3.9388,-3.9388,-3.9388,-4.0576,-4.1422,-4.1422,-4.2566,-4.329,-4.329,-4.329,-4.4051,-4.5798,-4.6103,-4.6643,-4.7589,-4.7589,-4.8047,-4.9001,-4.8291,-4.753,-4.6786,-4.6058,-4.5314,-4.4615,-4.4615,-4.4615,-4.4615,-4.4615,-4.4615,-4.4615,-4.4615,-4.4615,-4.4615,-4.4615,-4.4615,-4.4615,-4.4615,-4.4615,-4.4615,-4.4615,-4.4485,-4.4327,-4.4327,-4.4457,-4.4615,-4.4615,-4.4615,-4.4615,-4.4615,-4.4615,-4.4615,-4.4615,-4.4615,-4.4615,-4.4615,-4.4615,-4.4615,-4.4615,-4.4615,-4.4401,-4.3792,-4.3673,-4.3234,-4.1914,-4.1542,-4.1187,-4.0468,-4.0197,-4.0096,-4.0096,-4.0096,-4.0096,-4.0096,-4.0096,-4.0096,-4.0096,-3.9368,-3.8596,-3.785,-3.697,-3.587,-3.4554,-3.437,-3.4028,-3.3515,-3.3634,-3.3709,-3.3709,-3.4399,-3.4728,-3.4743,-3.525,-3.5504,-3.6297,-3.6896,-3.7494,-3.8212,-3.8856,-3.9298,-3.9373,-3.9388,-3.9388,-3.9388,-3.9388,-3.9388,-3.9388,-3.9388,-3.9388,-3.9388,-3.9388,-3.9388,-3.9388,-3.9388,-3.9388,-3.9388,-4.0576,-4.1422,-4.1422,-4.2566,-4.329,-4.329,-4.329,-4.3771,-4.4871,-4.5726,-4.6643,-4.7589,-4.7589,-4.8047,-4.9001,-4.8291,-4.753,-4.6786,-4.6058,-4.5314,-4.4615,-4.4615,-4.4615,-4.4615,-4.4615,-4.4615,-4.4615,-4.4615,-4.4615,-4.4615,-4.4615,-4.4615,-4.4615,-4.4615,-4.4615,-4.4615,-4.4615,-4.4064,-4.3413,-4.3413,-4.3931,-4.4615,-4.4615,-4.4615,-4.4615,-4.4615,-4.4615,-4.4615,-4.4615,-4.4615,-4.4615,-4.4615,-4.4615,-4.4615,-4.4615,-4.4615,-4.4581,-4.4513,-4.4496,-4.4198,-4.3341,-4.2642,-4.1948,-4.1221,-4.0536,-4.0096,-4.0096,-4.0096,-4.0096,-4.0096,-4.0096,-4.0096,-4.0096,-3.9368,-3.8591,-3.7841,-3.6497,-3.5337,-3.4524,-3.3922,-3.3546,-3.3499,-3.4114,-3.4414,-3.4414,-3.507,-3.5415,-3.5415,-3.5474,-3.5504,-3.6761,-3.7225,-3.7674,-3.8736,-3.9215,-3.9388,-3.9388,-3.9388,-3.9388,-3.9388,-3.9388,-3.9388,-3.9388,-3.9388,-3.9388,-3.9388,-3.9388,-3.9388,-3.9388,-3.9388,-3.9574,-3.9963,-4.0816,-4.1572,-4.1976,-4.2791,-4.329,-4.329,-4.329,-4.3472,-4.3888,-4.4266,-4.4899,-4.5885,-4.647,-4.7205,-4.8161,-4.8012,-4.753,-4.6786,-4.6058,-4.5314,-4.4615,-4.4615,-4.4615,-4.4615,-4.4615,-4.4615,-4.4615,-4.4615,-4.4615,-4.4615,-4.4615,-4.4615,-4.4615,-4.4615,-4.4615,-4.4514,-4.4006,-4.3591,-4.3199,-4.2693,-4.2738,-4.3122,-4.3651,-4.4196,-4.4615,-4.4615,-4.4615,-4.4615,-4.4615,-4.4615,-4.4615,-4.4615,-4.4615,-4.4615,-4.4615,-4.4615,-4.4615,-4.4615,-4.4615,-4.4333,-4.3527,-4.2794,-4.2049,-4.1322,-4.0561,-4.0096,-4.0096,-4.0096,-3.9927,-3.9437,-3.9808,-3.9901,-3.9437,-3.8679,-3.7905,-3.7114,-3.6091,-3.5406,-3.5117,-3.4846,-3.4696,-3.4696,-3.4966,-3.51,-3.51,-3.537,-3.5504,-3.5504,-3.5504,-3.5504,-3.706,-3.7404,-3.7734,-3.9059,-3.9388,-3.9388,-3.9388,-3.9388,-3.9388,-3.9388,-3.9388,-3.9388,-3.9388,-3.9388,-3.9388,0.0,-3.9388,-3.9388,-3.9388,-3.9388,-3.9589,-4.0053,-4.0861,-4.1602,-4.2066,-4.2836,-4.329,-4.329,-4.329,-4.329,-4.329,-4.329,-4.3771,-4.4774,-4.5431,-4.6224,-4.7172,-4.6925,-4.6512,-4.601,-4.5303,-4.4716,-4.4224,-4.4485,-4.4615,-4.4615,-4.4615,-4.4615,-4.4615,-4.4615,-4.4615,-4.457,-4.4327,-4.4224,-4.4196,-4.3931,-4.3827,-4.3739,-4.3139,-4.2754,-4.2426,-4.1804,-4.1609,-4.1739,-4.2347,-4.332,-4.4224,-4.4224,-4.4412,-4.4615,-4.4615,-4.4615,-4.4615,-4.4615,-4.4615,-4.4615,-4.4615,-4.4615,-4.4615,-4.4615,-4.4615,-4.4429,-4.3859,-4.2946,-4.2117,-4.1593,-4.0696,-4.0096,-4.0096,-4.0096,-3.9782,-3.9005,-3.9411,-3.9437,-3.8635,-3.7876,-3.7203,-3.6646,-3.5926,-3.5504,-3.5504,-3.5504,-3.5504,-3.5504,-3.5504,-3.5504,-3.5504,-3.5504,-3.5504,-3.5504,-3.5504,-3.5504,-3.706,-3.7404,-3.7734,-3.9059,-3.9388,-3.9388,-3.9388,-3.9388,-3.9388,-3.9388,-3.9388,-3.9388,-3.9388,-3.9388,-3.9388,-3.9388,-3.9388,-3.9388,-3.9388,-3.9388,-3.9388,-3.9388,-4.0591,-4.1422,-4.1384,-4.2566,-4.329,-4.329,-4.329,-4.329,-4.329,-4.329,-4.3771,-4.4774,-4.4812,-4.5264,-4.6208,-4.4847,-4.4159,-4.4127,-4.358,-4.3306,-4.3336,-4.4196,-4.4615,-4.4615,-4.4615,-4.4615,-4.4615,-4.4615,-4.4615,-4.4514,-4.3651,-4.3306,-4.3199,-4.2363,-4.2029,-4.2029,-4.2029,-4.1445,-4.0724,-4.0724,-4.0709,-4.0724,-4.0724,-4.1933,-4.3306,-4.3306,-4.3931,-4.4615,-4.4615,-4.4615,-4.4615,-4.4615,-4.4615,-4.4615,-4.4615,-4.4615,-4.4615,-4.4615,-4.4615,-4.4615,-4.4598,-4.3328,-4.2286,-4.2286,-4.1044,-4.0096,-4.0096,-4.0096,-3.9782,-3.9005,-3.8908,-3.8608,-3.7863,-3.7054,-3.6615,-3.6615,-3.5926,-3.5504,-3.5504,-3.5504,-3.5504,-3.5504,-3.5504,-3.5504,-3.5504,-3.5504,-3.5504,-3.5504,-3.5504,-3.5504,-3.718,-3.7734,-3.8302,-3.92,-3.9388,-3.9388,-3.9388,-3.9388,-3.9388,-3.9388,-3.9388,-3.9388,-3.9388,-3.9388,-3.9388,-3.9388,-3.9388,-3.9388,-3.9388,-3.9388,-3.9553,-4.0038,-4.1287,-4.2261,-4.2671,-4.305,-4.329,-4.329,-4.329,-4.329,-4.329,-4.329,-4.3448,-4.3771,-4.4434,-4.4946,-4.5264,-4.4468,-4.4109,-4.4093,-4.2929,-4.2426,-4.2426,-4.2707,-4.2831,-4.2831,-4.2831,-4.2831,-4.2831,-4.2831,-4.2831,-4.28,-4.252,-4.2426,-4.2395,-4.2093,-4.1997,-4.1901,-4.1313,-4.0912,-4.0588,-3.999,-3.9793,-3.9793,-3.9793,-4.1028,-4.252,-4.3139,-4.3502,-4.371,-4.371,-4.371,-4.3562,-4.2953,-4.329,-4.371,-4.371,-4.4196,-4.4412,-4.3814,-4.371,-4.3515,-4.2939,-4.1624,-4.0836,-4.1326,-3.978,-3.8707,-3.9209,-3.8843,-3.8218,-3.7408,-3.7336,-3.7247,-3.6994,-3.6752,-3.6384,-3.5894,-3.5651,-3.5504,-3.5504,-3.5504,-3.5504,-3.5504,-3.5504,-3.5504,-3.5504,-3.5504,-3.5504,-3.5504,-3.5504,-3.5504,-3.7674,-3.8078,-3.8556,-3.9245,-3.9388,-3.9388,-3.9388,-3.9388,-3.9388,-3.9388,-3.9388,-3.9388,-3.9388,-3.9388,-3.9388,-3.9388,-3.9388,-3.9388,-3.9388,-3.9388,-3.9664,-4.0322,-4.113,-4.1968,-4.288,-4.297,-4.306,-4.3275,-4.329,-4.329,-4.329,-4.329,-4.329,-4.329,-4.3927,-4.422,-4.422,-4.3469,-4.3091,-4.3075,-4.2007,-4.1511,-4.1528,-4.1869,-4.1997,-4.1997,-4.1997,-4.1997,0.0,-4.1997,-4.1997,-4.1965,-4.1642,-4.1511,-4.1478,-4.1129,-4.1028,-4.0927,-4.0413,-4.022,-4.0115,-3.9574,-3.9388,-3.9388,-3.9388,-4.0393,-4.1707,-4.2552,-4.2816,-4.2816,-4.2816,-4.2816,-4.2676,-4.2125,-4.2426,-4.2816,-4.2816,-4.3229,-4.3456,-4.2909,-4.2816,-4.2645,-4.2093,-4.0814,-4.0068,-4.0515,-3.8995,-3.7978,-3.8414,-3.8092,-3.7485,-3.6707,-3.6615,-3.6492,-3.6228,-3.6196,-3.6006,-3.5537,-3.5504,-3.5504,-3.5504,-3.5504,-3.5504,-3.5504,-3.5504,-3.5504,-3.5504,-3.5504,-3.5504,-3.5504,-3.5504,-3.5504,0.0,-3.8467,-3.8616,-3.926,-3.9388,-3.9388,-3.9388,-3.9388,0.0,-3.9388,-3.9388,-3.9388,-3.9388,-3.9388,-3.9388,-3.9388,-3.9388,-3.9388,-3.9388,-3.9388,-3.9664,-4.0322,-4.0397,-4.0905,-4.2201,-4.2366,-4.265,-4.317,-4.3275,-4.329,-4.329,-4.329,-4.329,-4.329,-4.329,-4.329,-4.329,-4.2043,-4.1422,-4.1392,-4.0847,-4.0588,-4.0622,-4.1445,-4.1804,-4.1804,-4.1804,-4.1804,-4.1804,-4.1804,-4.1804,-4.1739,-4.0912,-4.0588,-4.05,-3.9702,-3.9388,-3.9388,-3.9388,-3.9388,-3.9388,-3.9388,-3.9388,-3.9388,-3.9388,-3.9955,-4.0792,-4.1674,-4.1901,-4.1901,-4.1901,-4.1901,-4.1901,-4.1836,-4.1869,-4.1901,-4.1901,-4.1965,-4.1965,-4.1933,-4.1901,-4.1901,-4.1836,-4.0657,-3.9733,-3.9794,-3.8583,-3.7648,-3.769,-3.7661,-3.7338,-3.6615,-3.6523,-3.6244,-3.5554,-3.5504,-3.5504,-3.5504,-3.5504,-3.5504,-3.5504,-3.5504,-3.5504,-3.5504,-3.5504,-3.5504,-3.5504,-3.5504,-3.5504,-3.5504,-3.5504,-3.5504,-3.9035,0.0,-3.9215,-3.9379,-3.9388,-3.9388,0.0,-3.9388,-3.9388,-3.9388,-3.9388,-3.9388,-3.9388,-3.9388,-3.9388,-3.9388,-3.9388,-3.9388,-3.9388,-3.9388,-3.9664,-4.0322,-4.0397,-4.0726,-4.1572,-4.2111,-4.247,-4.262,-4.3045,-4.329,-4.329,-4.329,-4.329,-4.329,-4.329,-4.329,-4.329,-4.2043,-4.1422,-4.1407,-4.0242,-3.9702,-3.9702,-3.9935,-3.999,-3.999,-3.999,-3.999,-3.999,-3.999,-3.999,-4.0005,-3.9809,-3.9702,-3.9666,-3.9481,-3.9388,-3.9388,-3.9388,-3.9388,-3.9388,-3.9388,-3.9388,-3.9388,-3.9388,-3.9538,-3.99,-4.0758,-4.1013,-4.1013,-4.1013,-4.1013,-4.086,-4.0165,-4.05,-4.1013,-4.1013,-4.1543,-4.1788,-4.1147,-4.1013,-4.0792,-4.013,-3.8899,-3.8185,-3.8789,-3.726,-3.6243,-3.6798,-3.6384,-3.5973,-3.5782,-3.575,-3.5701,-3.5504,-3.5504,-3.5504,-3.5504,-3.5504,-3.5504,-3.5504,-3.5504,-3.5504,-3.5504,-3.5504,-3.5504,-3.5504,-3.5504,-3.5504,-3.5504,-3.5504,-3.5504,-3.932,-3.9388,-3.9388,-3.9388,-3.9388,-3.9388,-3.9388,-3.9388,-3.9388,-3.9388,-3.9388,-3.9388,-3.9388,-3.9388,-3.9388,-3.9388,-3.9388,-3.9388,-3.9388,-3.9388,-3.9508,-3.9903,-3.9948,-4.0202,-4.0876,-4.1572,-4.2066,-4.2381,-4.297,-4.329,-4.329,-4.329,-4.329,-4.329,-4.329,-4.329,-4.329,-4.2043,-4.1422,-4.1369,-4.0053,-3.9388,-3.9388,-3.9388,-3.9388,-3.9388,-3.9388,-3.9388,-3.9388,-3.9388,-3.9388,-3.9388,-3.9388,-3.9388,-3.9388,-3.9388,-3.9388,-3.9388,-3.9388,-3.9388,-3.9388,-3.9388,-3.9388,-3.9388,-3.9388,-3.9388,-3.9517,-3.9955,-4.0115,-4.0115,-4.0115,-4.0115,-3.999,-3.9517,-3.9773,-4.0115,-4.0115,-4.0481,-4.0672,-4.022,-4.0115,-3.9955,-3.9481,-3.8302,-3.7541,-3.7983,-3.6595,-3.5636,-3.6023,-3.5765,-3.5504,-3.5504,-3.5504,-3.5504,-3.5504,-3.5504,-3.5504,-3.5504,-3.5504,-3.5504,-3.5504,-3.5504,-3.5504,-3.5504,-3.5504,-3.5504,-3.5504,-3.5504,-3.5504,-3.5504,-3.5504,-3.5504,-3.946,-3.9388,-3.9388,-3.9388,-3.9388,-3.9388,-3.9388,-3.9388,-3.9388,-3.9388,-3.9388,-3.9388,-3.9388,-3.9388,-3.9388,-3.9388,-3.9388,-3.9388,-3.9388,-3.9388,-3.9388,-3.9388,-3.9388,-3.9634,-4.0187,-4.0846,-4.1542,-4.2201,-4.2821,-4.3185,-4.329,-4.329,-4.329,-4.329,-4.329,-4.329,-4.329,-4.2043,-4.1422,-4.1369,-4.0053,-3.9388,-3.9388,-3.9388,-3.9388,-3.9388,-3.9388,-3.9388,-3.9388,-3.9388,-3.9388,-3.9388,-3.9388,-3.9388,-3.9388,-3.9388,-3.9388,-3.9388,-3.9388,-3.9388,-3.9388,-3.9388,-3.9388,-3.9388,-3.9388,-3.9388,-3.9388,-3.9388,-3.9388,-3.9388,-3.9388,-3.9388,-3.9388,-3.9388,-3.9388,-3.9388,-3.9388,-3.9388,-3.9388,-3.9388,-3.9388,-3.9388,-3.9388,-3.8302,-3.7404,-3.7404,-3.6327,-3.5504,-3.5504,-3.5504,-3.5504,-3.5504,-3.5504,-3.5504,-3.5504,-3.5504,-3.5504,-3.5504,-3.5504,-3.5504,-3.5504,-3.5504,-3.5504,-3.5504,-3.5504,-3.5504,-3.5504,-3.5504,-3.5504,-3.5504,-3.5504,-3.5504,-3.961,-3.9388,-3.9388,-3.9388,-3.9388,-3.9388,-3.9388,-3.9388,-3.9388,-3.9388,-3.9388,-3.9388,-3.9388,-3.9388,-3.9388,-3.9388,-3.9388,-3.9388,-3.9388,-3.9388,-3.9388,-3.9388,-3.9388,-3.9454,-3.9559,-4.0172,-4.0831,-4.1512,-4.2186,-4.2746,-4.326,-4.329,-4.329,-4.329,-4.329,-4.329,-4.329,-4.2043,-4.1422,-4.1369,-4.0053,-3.9388,-3.9388,-3.9388,-3.9388,-3.9388,-3.9388,-3.9388,-3.9388,-3.9388,-3.9388,-3.9388,-3.9388,-3.9388,-3.9388,-3.9388,-3.9388,-3.9388,-3.9388,-3.9388,-3.9388,-3.9388,-3.9388,-3.9388,-3.9388,-3.9388,-3.9388,-3.9388,-3.9388,-3.9388,-3.9388,-3.9388,-3.9388,-3.9388,-3.9388,-3.9388,-3.9388,-3.9388,-3.9388,-3.9388,-3.9388,-3.9388,-3.9388,-3.8302,-3.7404,-3.7404,-3.6327,-3.5504,-3.5504,-3.5504,-3.5504,-3.5504,-3.5504,-3.5504,-3.5504,-3.5504,-3.5504,-3.5504,-3.5504,-3.5504,-3.5504,-3.5504,-3.5504,-3.5504,-3.5504,-3.5504,-3.5504,-3.5504,-3.5504,-3.5504,-3.5504,-3.5504,-3.9646,-3.9388,-3.9388,-3.9388,-3.9388,-3.9388,-3.9388,-3.9388,-3.9388,-3.9388,-3.9388,-3.9388,-3.9388,-3.9388,-3.9388,-3.9388,-3.9388,-3.9388,-3.9388,-3.9388,-3.9388,-3.9388,-3.9388,-3.9388,-3.9388,-4.0023,-4.0666,-4.1324,-4.2036,-4.2641,-4.326,-4.329,-4.329,-4.329,-4.329,-4.329,-4.329,-4.2043,-4.1422,-4.1369,-4.0053,-3.9388,-3.9388,-3.9388,-3.9388,-3.9388,-3.9388,-3.9388,-3.9388,-3.9388,-3.9388,-3.9388,-3.9388,-3.9388,-3.9388,-3.9388,-3.9388,-3.9388,-3.9388,-3.9388,-3.9388,-3.9388,-3.9388,-3.9388,-3.9388,-3.9388,-3.9388,-3.9388,-3.9388,-3.9388,-3.9388,-3.9388,-3.9388,-3.9388,-3.9388,-3.9388,-3.9388,-3.9388,-3.9388,-3.9388,-3.9388,-3.9388,-3.9388,-3.8302,-3.7404,-3.7404,-3.6327,-3.5504,-3.5504,-3.5504,-3.5504,-3.5504,-3.5504,-3.5504,-3.5504,-3.5504,-3.5504,-3.5504,-3.5504,-3.5504,-3.5504,-3.5504,-3.5504,-3.5504,-3.5504,-3.5504,-3.5504,-3.5504,-3.5504,-3.5504,-3.5504,-3.5504,-3.9702,-3.9388,-3.9388,-3.9388,-3.9388,-3.9388,-3.9388,-3.9388,-3.9388,-3.9388,-3.9388,-3.9388,-3.9388,-3.9388,-3.9388,-3.9388,-3.9388,-3.9388,-3.9388,-3.9388,-3.9388,-3.9388,-3.9388,-3.9388,-3.9388,-3.9873,-4.0442,-4.11,-4.1796,-4.2455,-4.3075,-4.32,-4.329,-4.329,-4.329,-4.329,-4.329,-4.2043,-4.1422,-4.1369,-4.0053,-3.9388,-3.9388,-3.9388,-3.9388,-3.9388,-3.9388,-3.9388,-3.9388,-3.9388,-3.9388,-3.9388,-3.9388,-3.9388,-3.9388,-3.9388,-3.9388,-3.9388,-3.9388,-3.9388,-3.9388,-3.9388,-3.9388,-3.9388,-3.9388,-3.9388,-3.9388,-3.9388,-3.9388,-3.9388,-3.9388,-3.9388,-3.9388,-3.9388,-3.9388,-3.9388,-3.9388,-3.9388,-3.9388,-3.9388,-3.9388,-3.9388,-3.9388,-3.8302,-3.7404,-3.7404,-3.6327,-3.5504,-3.5504,-3.5504,-3.5504,-3.5504,-3.5504,-3.5504,-3.5504,-3.5504,-3.5504,-3.5504,-3.5504,-3.5504,-3.5504,-3.5504,-3.5504,-3.5504,-3.5504,-3.5504,-3.5504,-3.5504,-3.5504,-3.5504,-3.5504,-3.5504,-3.9879,-3.9388,-3.9388,-3.9388,-3.9388,-3.9388,-3.9388,-3.9388,-3.9388,-3.9388,-3.9388,-3.9388,-3.9388,-3.9388,-3.9388,-3.9388,-3.9388,-3.9388,-3.9388,-3.9388,-3.9388,-3.9388,-3.9388,-3.9388,-3.9388,-3.9454,-3.9768,-4.0427,-4.107,-4.1767,-4.244,-4.3015,-4.329,-4.329,-4.329,-4.329,-4.329,-4.2043,-4.1422,-4.1369,-4.0053,-3.9388,-3.9388,-3.9388,-3.9388,-3.9388,-3.9388,-3.9388,-3.9388,-3.9388,-3.9388,-3.9388,-3.9388,-3.9388,-3.9388,-3.9388,-3.9388,-3.9388,-3.9388,-3.9388,-3.9388,-3.9388,-3.9388,-3.9388,-3.9388,-3.9388,-3.9388,-3.9388,-3.9388,-3.9388,-3.9388,-3.9388,-3.9388,-3.9388,-3.9388,-3.9388,-3.9388,-3.9388,-3.9388,-3.9388,-3.9388,-3.9388,-3.9388,-3.8302,-3.7404,-3.7404,-3.6327,-3.5504,-3.5504,-3.5504,-3.5504,-3.5504,-3.5504,-3.5504,-3.5504,-3.5504,-3.5504,-3.5504,-3.5504,-3.5504,-3.5504,-3.5504,-3.5504,-3.5504,-3.5504,-3.5504,-3.5504,-3.5504,-3.5504,-3.5504,-3.5504,-3.5504,-3.9864,-3.9388,-3.9388,-3.9388,-3.9388,-3.9388,-3.9388,-3.9388,-3.9388,-3.9388,-3.9388,-3.9388,-3.9388,-3.9388,-3.9388,-3.9388,-3.9388,-3.9388,-3.9388,-3.9388,-3.9388,-3.9388,-3.9388,-3.9388,-3.9388,-3.9388,-3.9694,-4.0352,-4.101,-4.1707,-4.2366,-4.297,-4.329,-4.329,-4.329,-4.3135,-4.2731,-4.1833,-4.1175,-4.0756,-3.9843,-3.9388,-3.9388,-3.9388,-3.9388,-3.9388,-3.9388,-3.9388,-3.9388,-3.9388,-3.9388,-3.9388,-3.9388,-3.9388,-3.9388,-3.9388,-3.9388,-3.9388,-3.9388,-3.9388,-3.9388,-3.9388,-3.9388,-3.9388,-3.9388,-3.9388,-3.9388,-3.9388,-3.9388,-3.9388,-3.9388,-3.9388,-3.9388,-3.9388,-3.9388,-3.9388,-3.9388,-3.9388,-3.9388,-3.9388,-3.9388,-3.9388,-3.9388,-3.8631,-3.7883,-3.7464,-3.6671,-3.5968,-3.5549,-3.5504,-3.5504,-3.5504,-3.5504,-3.5504,-3.5504,-3.5504,-3.5504,-3.5504,-3.5504,-3.5504,-3.5504,-3.5504,-3.5504,-3.5504,-3.5504,-3.5504,-3.5504,-3.5504,-3.5504,-3.5504,-3.5504,-3.5504,-4.022,-3.961,-3.9388,-3.9388,-3.9388,-3.9388,-3.9388,-3.9388,-3.9388,-3.9388,-3.9388,-3.9388,-3.9388,-3.9388,-3.9388,-3.9388,-3.9388,-3.9388,-3.9388,-3.9388,-3.9388,-3.9388,-3.9388,-3.9388,-3.9388,-3.9388,-3.9604,-4.0053,-4.0696,-4.1392,-4.2051,-4.2671,-4.312,-4.329,-4.3135,-4.2821,-4.2396,-4.1542,-4.0846,-4.0382,-3.9738,-3.9388,-3.9388,-3.9388,-3.9388,-3.9388,-3.9388,-3.9388,-3.9388,-3.9388,-3.9388,-3.9388,-3.9388,-3.9388,-3.9388,-3.9388,-3.9388,-3.9388,-3.9388,-3.9388,-3.9388,-3.9388,-3.9388,-3.9388,-3.9388,-3.9388,-3.9388,-3.9388,-3.9388,-3.9388,-3.9388,-3.9388,-3.9388,-3.9388,-3.9388,-3.9388,-3.9388,-3.9388,-3.9388,-3.9388,-3.9388,-3.9388,-3.9388,-3.8841,-3.8167,-3.7509,-3.6881,-3.6252,-3.5594,-3.5504,-3.5504,-3.5504,-3.5504,-3.5504,-3.5504,-3.5504,-3.5504,-3.5504,-3.5504,-3.5504,-3.5504,-3.5504,-3.5504,-3.5504,-3.5504,-3.5504,-3.5504,-3.5504,-3.5504,-3.5504,-3.5504,-3.5504,-4.0946,-4.0045,-3.9388,-3.9388,-3.9388,-3.9388,-3.9388,-3.9388,-3.9388,-3.9388,-3.9388,-3.9388,-3.9388,-3.9388,-3.9388,-3.9388,-3.9388,-3.9388,-3.9388,-3.9388,-3.9388,-3.9388,-3.9388,-3.9388,-3.9388,-3.9388,-3.9388,-3.9388,-4.0023,-4.0681,-4.1324,-4.2036,-4.2641,-4.3245,-4.2686,-4.2396,-4.2381,-4.1055,-4.0397,-4.0382,-3.9723,-3.9388,-3.9388,-3.9388,-3.9388,-3.9388,-3.9388,-3.9388,-3.9388,-3.9388,-3.9388,-3.9388,-3.9388,-3.9388,-3.9388,-3.9388,-3.9388,-3.9388,-3.9388,-3.9388,-3.9388,-3.9388,-3.9388,-3.9388,-3.9388,-3.9388,-3.9388,-3.9388,-3.9388,-3.9388,-3.9388,-3.9388,-3.9388,-3.9388,-3.9388,-3.9388,-3.9388,-3.9388,-3.9388,-3.9388,-3.9388,-3.9388,-3.9388,-3.8856,-3.8182,-3.7524,-3.6896,-3.6252,-3.5594,-3.5504,-3.5504,-3.5504,-3.5504,-3.5504,-3.5504,-3.5504,-3.5504,-3.5504,-3.5504,-3.5504,-3.5504,-3.5504,-3.5504,-3.5504,-3.5504,-3.5504,-3.5504,-3.5504,-3.5504,-3.5504,-3.5504,-3.5504,-4.0946,-4.0045,-3.9388,-3.9388,-3.9388,-3.9388,-3.9388,-3.9388,-3.9388,-3.9388,-3.9388,-3.9388,-3.9388,-3.9388,-3.9388,-3.9388,-3.9388,-3.9388,-3.9388,-3.9388,-3.9388,-3.9388,-3.9388,-3.9388,-3.9388,-3.9388,-3.9388,-3.9388,-4.0023,-4.0487,-4.0681,-4.1309,-4.1758,-4.1953,-4.1773,-4.1444,-4.0995,-4.0591,-4.0172,-3.9709,-3.9514,-3.9388,-3.9388,-3.9388,-3.9388,-3.9388,-3.9388,-3.9388,-3.9388,-3.9388,-3.9388,-3.9388,-3.9388,-3.9388,-3.9388,-3.9388,-3.9388,-3.9388,-3.9388,-3.9388,-3.9388,-3.9388,-3.9388,-3.9388,-3.9388,-3.9388,-3.9388,-3.9388,-3.9388,-3.9388,-3.9388,-3.9388,-3.9388,-3.9388,-3.9388,-3.9388,-3.9388,-3.9388,-3.9388,-3.9388,-3.9388,-3.9388,-3.9388,-3.9245,-3.8886,-3.8197,-3.7554,-3.6746,-3.5654,-3.5504,-3.5504,-3.5504,-3.5504,-3.5504,-3.5504,-3.5504,-3.5504,-3.5504,-3.5504,-3.5504,-3.5504,-3.5504,-3.5504,-3.5504,-3.5504,-3.5504,-3.5504,-3.5504,-3.5504,-3.5504,-3.5504,-3.5504,-4.1379,-4.0309,-3.9388,-3.9388,-3.9388,-3.9388,-3.9388,-3.9388,-3.9388,-3.9388,-3.9388,-3.9388,-3.9388,-3.9388,-3.9265,-3.8819,-3.8745,-3.862,-3.8182,-3.813,-3.813,-3.813,-3.813,-3.8294,-3.8745,-3.8745,-3.8943,-3.9373,-3.9783,-4.0127,-4.0382,-4.0771,-4.1115,-4.1407,-4.113,-4.0801,-4.0397,-4.0142,-3.9813,-3.9388,-3.9388,-3.9388,-3.9388,-3.9388,-3.9388,-3.9388,-3.9388,-3.9388,-3.9388,-3.9388,-3.9388,-3.9388,-3.9388,-3.9388,-3.9388,-3.9388,-3.9388,-3.9388,-3.9388,-3.9388,-3.9388,-3.9388,-3.9388,-3.9388,-3.9388,-3.9388,-3.9388,-3.9388,-3.9388,-3.9388,-3.9388,-3.9388,-3.9388,-3.9388,-3.9388,-3.9388,-3.9388,-3.9388,-3.9388,-3.9388,-3.9388,-3.9388,-3.9388,-3.9388,-3.9185,-3.8497,-3.7629,-3.6671,-3.5639,-3.5504,-3.5504,-3.5504,-3.5504,-3.5504,-3.5504,-3.5504,-3.5504,-3.5504,-3.5504,-3.5504,-3.5504,-3.5504,-3.5504,-3.5504,-3.5504,-3.5504,-3.5504,-3.5504,-3.5504,-3.5504,-3.5504,-3.5504,-4.1997,-4.074,-3.9388,-3.9388,-3.9388,-3.9388,-3.9388,-3.9301,-3.9265,-3.9388,-3.9388,-3.9373,-3.9265,-3.9265,-3.8892,-3.7829,-3.7663,-3.7305,-3.633,-3.6198,-3.6198,-3.6198,-3.6198,-3.6565,-3.7548,-3.7663,-3.8107,-3.9177,-3.9265,-3.9555,-4.0277,-4.0307,-4.0591,-4.119,-4.0621,-4.0307,-4.0307,-3.9709,-3.9388,-3.9388,-3.9388,-3.9388,-3.9388,-3.9388,-3.9388,-3.9388,-3.9388,-3.9388,-3.9388,-3.9388,-3.9388,-3.9388,-3.9388,-3.9388,-3.9388,-3.9388,-3.9388,-3.9388,-3.9388,-3.9388,-3.9388,-3.9388,-3.9388,-3.9388,-3.9388,-3.9388,-3.9388,-3.9388,-3.9388,-3.9388,-3.9388,-3.9388,-3.9388,-3.9388,-3.9388,-3.9388,-3.9388,-3.9388,-3.9388,-3.9388,-3.9388,-3.9388,-3.9388,-3.9388,-3.917,-3.8422,-3.7315,-3.6312,-3.5594,-3.5504,-3.5504,-3.5504,-3.5504,-3.5504,-3.5504,-3.5504,-3.5504,-3.5504,-3.5504,-3.5504,-3.5504,-3.5504,-3.5504,-3.5504,-3.5504,-3.5504,-3.5504,-3.5504,-3.5504,-3.5504,-3.5504,-3.5439,-4.1997,-4.074,-3.9388,-3.9388,-3.9388,-3.9388,-3.9388,-3.8745,-3.8383,-3.9228,-3.9388,-3.9141,-3.8308,-3.8144,-3.7776,-3.6735,-3.6526,-3.6448,-3.6237,-3.6198,-3.6198,-3.6198,-3.6198,-3.629,-3.6526,-3.6526,-3.6968,-3.8069,-3.8144,-3.8567,-3.9546,-3.9634,-3.9694,-3.9843,-3.9709,-3.9634,-3.9634,-3.9448,-3.9388,-3.9388,-3.9388,-3.9388,-3.9388,-3.9388,-3.9388,-3.9388,-3.9388,-3.9388,-3.9388,-3.9388,-3.9388,-3.9388,-3.9388,-3.9388,-3.9388,-3.9388,-3.9388,-3.9388,-3.9388,-3.9388,-3.9388,-3.9388,-3.9388,-3.9388,-3.9388,-3.9388,-3.9388,-3.9388,-3.9388,-3.9388,-3.9388,-3.9388,-3.9388,-3.9388,-3.9388,-3.9388,-3.9388,-3.9388,-3.9388,-3.9388,-3.9388,-3.9388,-3.9388,-3.9388,-3.9005,-3.7808,-3.7389,-3.6791,-3.5654,-3.5504,-3.5504,-3.5504,-3.5504,-3.5504,-3.5504,-3.5504,-3.5504,-3.5504,-3.5504,-3.5504,-3.5504,-3.5504,-3.5504,-3.5504,-3.5504,-3.5504,-3.5504,-3.5504,-3.5504,-3.5504,-3.5504,-3.51,-4.1997,-4.074,-3.9388,-3.9388,-3.9388,-3.9388,-3.9388,-3.898,-3.8583,-3.862,-3.8219,-3.7686,-3.7137,-3.7021,-3.6696,-3.5628,-3.548,-3.5319,-3.4802,-3.4719,-3.4719,-3.4719,-3.4719,-3.4925,-3.544,-3.548,-3.5908,-3.6944,-3.7021,-3.7496,-3.8583,-3.862,-3.887,-3.9388,-3.9388,-3.9388,-3.9388,-3.9388,-3.9388,-3.9388,-3.9388,-3.9388,-3.9388,-3.9388,-3.9388,-3.9388,-3.9388,-3.9388,-3.9388,-3.9388,-3.9388,-3.9388,-3.9388,-3.9388,-3.9388,-3.9388,-3.9388,-3.9388,-3.9388,-3.9388,-3.9388,-3.9388,-3.9388,-3.9388,-3.9388,-3.9388,-3.9388,-3.9388,-3.9388,-3.9388,-3.9388,-3.9388,-3.9388,-3.9388,-3.9388,-3.9388,-3.9388,-3.9388,-3.9388,-3.9388,-3.9388,-3.9388,-3.9388,-3.9388,-3.9065,-3.8033,-3.7614,-3.706,-3.6103,-3.5699,-3.5504,-3.5504,-3.5504,-3.5504,-3.5504,-3.5504,-3.5504,-3.5504,-3.5504,-3.5504,-3.5504,-3.5504,-3.5504,-3.5504,-3.5504,-3.5504,-3.5504,-3.5504,-3.5246,-3.4758,-3.4758,-3.4259,-4.2029,-4.074,-3.9388,-3.9388,-3.9388,-3.9388,-3.9388,-3.9265,-3.8819,-3.7738,-3.6982,-3.6369,-3.6013,-3.5934,-3.5628,-3.4581,-3.4428,-3.4108,-3.324,-3.3124,-3.3124,-3.3124,-3.3124,-3.3441,-3.4345,-3.4428,-3.4856,-3.5854,-3.5934,-3.6501,-3.7753,-3.7791,-3.8308,-3.9373,-3.9388,-3.9388,-3.9388,-3.9388,-3.9388,-3.9388,-3.9388,-3.9388,-3.9388,-3.9388,-3.9388,-3.9388,-3.9388,-3.9388,-3.9388,-3.9388,-3.9388,-3.9388,-3.9388,-3.9388,-3.9388,-3.9388,-3.9388,-3.9388,-3.9388,-3.9388,-3.9388,-3.9388,-3.9388,-3.9388,-3.9388,-3.9388,-3.9388,-3.9388,-3.9388,-3.9388,-3.9388,-3.9388,-3.9388,-3.9388,-3.9388,-3.9388,-3.9388,-3.9388,-3.9388,-3.9388,-3.9388,-3.9388,-3.9388,-3.9388,-3.9185,-3.8497,-3.7823,-3.718,-3.6567,-3.5908,-3.5504,-3.5504,-3.5504,-3.5504,-3.5504,-3.5504,-3.5504,-3.5504,-3.5504,-3.5504,-3.5504,-3.5504,-3.5504,-3.5504,-3.5504,-3.5504,-3.5504,-3.5504,-3.4986,-3.3993,-3.3993,-3.3415,-4.2205,-4.074,-3.9388,-3.9388,-3.9388,-3.9388,-3.9388,-3.8671,-3.7701,-3.6643,-3.706,-3.7035,-3.521,-3.4897,-3.454,-3.3471,-3.3313,-3.3283,-3.3124,-3.3124,-3.3124,-3.3124,-3.3124,-3.3154,-3.3313,-3.3313,-3.3755,-3.4815,-3.4897,-3.5735,-3.7715,-3.7791,-3.8308,-3.9373,-3.9388,-3.9388,-3.9388,-3.9388,-3.9388,-3.9388,-3.9388,-3.9388,-3.9388,-3.9388,-3.9388,-3.9388,-3.9388,-3.9388,-3.9388,-3.9388,-3.9388,-3.9388,-3.9388,-3.9388,-3.9388,-3.9388,-3.9388,-3.9388,-3.9388,-3.9388,-3.9388,-3.9388,-3.9388,-3.9388,-3.9388,-3.9388,-3.9388,-3.9388,-3.9388,-3.9388,-3.9388,-3.9388,-3.9388,-3.9388,-3.9388,-3.9388,-3.9388,-3.9388,-3.9388,-3.9388,-3.9388,-3.9388,-3.9388,-3.9388,-3.9185,-3.8497,-3.7823,-3.718,-3.6567,-3.5908,-3.5504,-3.5504,-3.5504,-3.5504,-3.5504,-3.5504,-3.5504,-3.5504,-3.5504,-3.5504,-3.5504,-3.5504,-3.5504,-3.5504,-3.5504,-3.5504,-3.5504,-3.5504,-3.4986,-3.3993,-3.3993,-3.3066,-4.1642,-4.0724,-4.0025,-3.9502,-3.9388,-3.9388,-3.9388,-3.9031,-3.8219,-3.6565,-3.6565,-3.6265,-3.4191,-3.3797,-3.3641,-3.3197,-3.3124,-3.3124,-3.3124,-3.3124,-3.3124,-3.3124,-3.3124,-3.3124,-3.3124,-3.3124,-3.3313,-3.3755,-3.3797,-3.447,-3.5975,-3.6593,-3.7381,-3.8472,-3.9104,-3.9388,-3.9388,-3.9388,-3.9388,-3.9388,-3.9388,-3.9388,-3.9388,-3.9388,-3.9388,-3.9388,-3.9388,-3.9388,-3.9388,-3.9388,-3.9388,-3.9388,-3.9388,-3.9388,-3.9388,-3.9388,-3.9388,-3.9388,-3.9388,-3.9388,-3.9388,-3.9388,-3.9388,-3.9388,-3.9388,-3.9388,-3.9388,-3.9388,-3.9388,-3.9388,-3.9388,-3.9388,-3.9388,-3.9388,-3.9388,-3.9388,-3.9388,-3.9388,-3.9388,-3.9388,-3.9388,-3.9388,-3.9388,-3.9388,-3.932,-3.9005,-3.8392,-3.7719,-3.709,-3.6447,-3.5908,-3.5549,-3.5504,-3.5504,-3.5504,-3.5504,-3.5504,-3.5504,-3.5504,-3.5504,-3.5504,-3.5504,-3.5504,-3.5504,-3.5504,-3.5504,-3.5504,-3.5504,-3.4691,-3.3206,-3.3206,-3.2213,-4.1643,-4.1046,-4.0519,-3.99,-3.9574,-3.9388,-3.9388,-3.9388,-3.8855,-3.7007,-3.6408,-3.5654,-3.3827,-3.3283,-3.3124,-3.3124,-3.3124,-3.3124,-3.3124,-3.3124,-3.3124,-3.3124,-3.3124,-3.3124,-3.3124,-3.3124,-3.3124,-3.3124,-3.3124,-3.3556,-3.4622,-3.5668,-3.6682,-3.7753,-3.8819,-3.9388,-3.9388,-3.9388,-3.9388,-3.9388,-3.9388,-3.9388,-3.9388,-3.9388,-3.9388,-3.9388,-3.9388,-3.9388,-3.9388,-3.9388,-3.9388,-3.9388,-3.9388,-3.9388,-3.9388,-3.9388,-3.9388,-3.9388,-3.9388,-3.9388,-3.9388,-3.9388,-3.9388,-3.9388,-3.9388,-3.9388,-3.9388,-3.9388,-3.9388,-3.9388,-3.9388,-3.9388,-3.9388,-3.9388,-3.9388,-3.9388,-3.9388,-3.9388,-3.9388,-3.9388,-3.9388,-3.9388,-3.9388,-3.9388,-3.9388,-3.9388,-3.8841,-3.8212,-3.7719,-3.6971,-3.6297,-3.5804,-3.5609,-3.5504,-3.5504,-3.5504,-3.5504,-3.5504,-3.5504,-3.5504,-3.5504,-3.5504,-3.5504,-3.5504,-3.5504,-3.5504,-3.5504,-3.5246,-3.4259,-3.2593,-3.2357,-3.1378,-4.2988,-4.1965,-4.069,-4.0656,-4.0025,-3.9388,-3.9388,-3.9388,-3.9068,-3.7956,-3.6891,-3.5894,-3.4815,-3.3797,-3.3124,-3.3124,-3.3124,-3.3124,-3.3124,-3.3124,-3.3124,-3.3124,-3.3124,-3.3124,-3.3124,-3.3124,-3.3124,-3.3124,-3.3124,-3.3556,-3.4622,-3.5668,-3.6682,-3.7753,-3.8819,-3.9388,-3.9388,-3.9388,-3.9388,-3.9388,-3.9388,-3.9388,-3.9388,-3.9388,-3.9388,-3.9388,-3.9388,-3.9388,-3.9388,-3.9388,-3.9388,-3.9388,-3.9388,-3.9388,-3.9388,-3.9388,-3.9388,-3.9388,-3.9388,-3.9388,-3.9388,-3.9388,-3.9388,-3.9388,-3.9388,-3.9388,-3.9388,-3.9388,-3.9388,-3.9388,-3.9388,-3.9388,-3.9388,-3.9388,-3.9388,-3.9388,-3.9388,-3.9388,-3.9388,-3.9388,-3.9388,-3.9388,-3.9388,-3.9388,-3.9388,-3.9388,-3.8841,-3.8377,-3.8347,-3.7255,-3.6477,-3.6432,-3.5878,-3.5504,-3.5504,-3.5504,-3.5504,-3.5504,-3.5504,-3.5504,-3.5504,-3.5504,-3.5504,-3.5504,-3.5504,-3.5504,-3.5504,-3.4543,-3.3567,-3.2558,-3.1669,-3.072,-4.1894,-4.1362,-4.07,-4.0106,-3.9671,-3.9388,-3.9388,-3.9388,-3.9104,-3.8032,-3.693,-3.5894,-3.4897,-3.3839,-3.3124,-3.3124,-3.3124,-3.3124,-3.3124,-3.3124,-3.3124,-3.3124,-3.3124,-3.3124,-3.3124,-3.3124,-3.3124,-3.3124,-3.3124,-3.3283,-3.3641,-3.5265,-3.6369,-3.6774,-3.8494,-3.9388,-3.9388,-3.9388,-3.9388,-3.9388,-3.9388,-3.9388,-3.9388,-3.9388,-3.9388,-3.9388,-3.9388,-3.9388,-3.9388,-3.9388,-3.9388,-3.9388,-3.9388,-3.9388,-3.9388,-3.9388,-3.9388,-3.9388,-3.9388,-3.9388,-3.9388,-3.9388,-3.9388,-3.9388,-3.9388,-3.9388,-3.9388,-3.9388,-3.9388,-3.9388,-3.9388,-3.9388,-3.9388,-3.9388,-3.9388,-3.9388,-3.9388,-3.9388,-3.9388,-3.9388,-3.9388,-3.9388,-3.9388,-3.9388,-3.9388,-3.9388,-3.9215,-3.8901,-3.8452,-3.7988,-3.7539,-3.712,-3.6507,-3.6133,-3.6133,-3.5744,-3.5504,-3.5504,-3.5504,-3.5504,-3.5504,-3.5504,-3.5504,-3.5504,-3.4872,-3.4543,-3.4543,-3.4177,-3.3206,-3.1669,-3.1352,-3.0696,-4.1527,-4.1183,-4.0729,-3.9912,-3.9398,-3.9073,-3.8771,-3.8751,-3.8508,-3.7813,-3.683,-3.5811,-3.4766,-3.3886,-3.3255,-3.3129,-3.3124,-3.3124,-3.3124,-3.3124,-3.3124,-3.3124,-3.3124,-3.3124,-3.3124,-3.3124,-3.3124,-3.3124,-3.3124,-3.3124,-3.3124,-3.4774,-3.6027,-3.6735,-3.8457,-3.9388,-3.9388,-3.9388,-3.9388,-3.9388,-3.9388,-3.9388,-3.9388,-3.9388,-3.9388,-3.9388,-3.9388,-3.9388,-3.9388,-3.9388,-3.9388,-3.9388,-3.9388,-3.9388,-3.9388,-3.9388,-3.9388,-3.9388,-3.9388,-3.9388,-3.9388,-3.9388,-3.9388,-3.9388,-3.9388,-3.9388,-3.9388,-3.9388,-3.9388,-3.9388,-3.9388,-3.9388,-3.9388,-3.9388,-3.9388,-3.9388,-3.9388,-3.9388,-3.9388,-3.9388,-3.9388,-3.9388,-3.9388,-3.9388,-3.9388,-3.9388,-3.9388,-3.926,-3.8796,-3.8542,-3.8227,-3.7778,-3.6985,-3.6492,-3.6492,-3.5893,-3.5504,-3.5504,-3.5504,-3.5504,-3.5504,-3.518,-3.4986,-3.4986,-3.4027,-3.338,-3.3066,-3.3066,-3.2429,-3.118,-3.0871,-3.0381,0.0,0.0,0.0,-4.0065,-3.9235,-3.8398,-3.756,-3.7404,-3.7404,-3.7404,-3.6611,-3.5603,-3.4627,-3.404,-3.3571,-3.3186,-3.3099,-3.3124,-3.3124,-3.3124,-3.3124,-3.3124,-3.3124,-3.3124,-3.3124,-3.3124,-3.3124,-3.3124,-3.3124,-3.3124,-3.3124,-3.415,-3.5695,-3.7753,-3.8819,-3.9388,-3.9388,-3.9388,-3.9388,-3.9388,-3.9388,-3.9388,-3.9388,-3.9388,-3.9388,-3.9388,-3.9388,-3.9388,-3.9388,-3.9388,-3.9388,-3.9388,-3.9388,-3.9388,-3.9388,-3.9388,-3.9388,-3.9388,-3.9388,-3.9388,-3.9388,-3.9388,-3.9388,-3.9388,-3.9388,-3.9388,-3.9388,-3.9388,-3.9388,-3.9388,-3.9388,-3.9388,-3.9388,-3.9388,-3.9388,-3.9388,-3.9388,-3.9388,-3.9388,-3.9388,-3.9388,-3.9388,-3.9388,-3.9388,-3.9388,-3.9388,-3.9388,-3.9388,-3.9388,-3.8841,-3.8422,-3.8422,-3.727,-3.6507,-3.6507,-3.5893,-3.5504,-3.5504,-3.5504,-3.5504,-3.5472,-3.4509,-3.3993,-3.3959,-3.3031,-3.2105,-3.1217,-3.1217,-3.118,-3.1143,-3.0203,-2.9792,-4.0654,0.0,0.0,0.0,0.0,0.0,-3.756,-3.7404,-3.7404,-3.7404,-3.6611,-3.5798,-3.553,-3.4732,-3.3878,-3.3024,-3.302,-3.3124,-3.3124,-3.3124,-3.3124,-3.3124,-3.3124,-3.3124,-3.3124,-3.3124,-3.3124,-3.3124,-3.3124,-3.3124,-3.3124,-3.4802,-3.6383,-3.7753,-3.8819,-3.9388,-3.9388,-3.9388,-3.9388,-3.9388,-3.9388,-3.9388,-3.9388,-3.9388,-3.9388,-3.9388,-3.9388,-3.9388,-3.9388,-3.9388,-3.9388,-3.9388,-3.9388,-3.9388,-3.9388,-3.9388,-3.9388,-3.9388,-3.9388,-3.9388,-3.9388,-3.9388,-3.9388,-3.9388,-3.9388,-3.9388,-3.9388,-3.9388,-3.9388,-3.9388,-3.9388,-3.9388,-3.9388,-3.9388,-3.9388,-3.9388,-3.9388,-3.9388,-3.9388,-3.9388,-3.9388,-3.9388,-3.9388,-3.9388,-3.9388,-3.9388,-3.9388,-3.9388,-3.9388,-3.9245,-3.9125,-3.9125,-3.7943,-3.715,-3.715,-3.6148,-3.5504,-3.5504,-3.5504,-3.5166,-3.4461,-3.4143,-3.3671,-3.2996,-3.2069,-3.1462,-3.1217,-3.1217,-3.0871,-3.0177,-2.9934,-2.9792,-4.0096,-4.0033,-3.9812,-3.9032,0.0,0.0,-3.7262,-3.6848,-3.6611,-3.6611,-3.6157,-3.5598,-3.5185,-3.4781,-3.4219,-3.3217,-3.337,-3.3403,-3.2806,-3.2918,-3.3124,-3.3124,-3.3124,-3.3124,-3.3124,-3.3124,-3.3124,-3.3124,-3.3124,-3.3124,-3.3124,-3.4692,-3.6067,-3.7098,-3.8182,-3.8943,-3.9388,-3.9388,-3.9388,-3.9388,-3.9388,-3.9388,-3.9388,-3.9388,-3.9388,-3.9388,-3.9388,-3.9388,-3.9388,-3.9388,-3.9388,-3.9388,-3.9388,-3.9388,-3.9388,-3.9388,-3.9388,-3.9388,-3.9388,-3.9388,-3.9388,-3.9388,-3.9388,-3.9388,-3.9388,-3.9388,-3.9388,-3.9388,-3.9388,-3.9388,-3.9388,-3.9388,-3.9388,-3.9388,-3.9388,-3.9388,-3.9388,-3.9388,-3.9388,-3.9388,-3.9388,-3.9388,-3.9388,-3.9388,-3.9388,-3.9388,-3.9388,-3.9388,-3.9388,-3.9388,-3.9388,-3.9388,-3.8452,-3.7704,-3.7434,-3.6492,-3.5804,-3.5519,-3.5504,-3.5052,-3.4027,-3.3636,-3.2961,-3.2033,-3.1082,-3.0633,-3.0633,-3.0633,-3.0317,-2.9792,-2.9792,-2.9792,-4.0096,-4.0096,-3.9901,-3.9113,-3.8414,0.0,-3.6904,-3.6243,-3.5733,-3.5651,-3.5619,-3.5314,-3.4361,-3.462,-3.4646,-3.3626,-3.397,-3.3935,-3.2711,-3.3022,-3.3322,-3.327,-3.3283,-3.324,-3.3124,-3.3124,-3.3124,-3.3124,-3.3124,-3.3124,-3.3124,-3.4108,-3.5129,-3.6013,-3.719,-3.8271,-3.9228,-3.9337,-3.9388,-3.9388,-3.9388,-3.9388,-3.9388,-3.9388,-3.9388,-3.9388,-3.9388,-3.9388,-3.9388,-3.9388,-3.9388,-3.9388,-3.9388,-3.9388,-3.9388,-3.9388,-3.9388,-3.9388,-3.9388,-3.9388,-3.9388,-3.9388,-3.9388,-3.9388,-3.9388,-3.9388,-3.9388,-3.9388,-3.9388,-3.9388,-3.9388,-3.9388,-3.9388,-3.9388,-3.9388,-3.9388,-3.9388,-3.9388,-3.9388,-3.9388,-3.9388,-3.9388,-3.9388,-3.9388,-3.9388,-3.9388,-3.9388,-3.9388,-3.9388,-3.9388,-3.9388,-3.9388,-3.8796,-3.8153,-3.7569,-3.6813,-3.6089,-3.546,-3.5291,-3.4739,-3.3739,-3.289,-3.1997,-3.1082,-3.0241,-2.9792,-2.9792,-2.9792,-2.9792,-2.9792,-2.9792,-2.9792,-4.0096,-4.0096,-3.9901,-3.9113,-3.8799,0.0,-3.7748,-3.7456,-3.7175,-3.6508,-3.6384,-3.615,-3.5362,-3.5317,-3.5045,-3.4043,-3.4398,-3.4775,-3.4687,-3.4788,-3.4727,-3.4417,-3.4387,-3.4037,-3.3197,-3.3124,-3.3124,-3.3124,-3.3124,-3.3124,-3.3124,-3.4108,-3.4787,-3.4979,-3.6841,-3.7904,-3.8107,-3.898,-3.9388,-3.9388,-3.9388,-3.9388,-3.9388,-3.9388,-3.9388,-3.9388,-3.9388,-3.9388,-3.9388,-3.9388,-3.9388,-3.9388,-3.9388,-3.9388,-3.9388,-3.9388,-3.9388,-3.9388,-3.9388,-3.9388,-3.9388,-3.9388,-3.9388,-3.9388,-3.9388,-3.9388,-3.9388,-3.9388,-3.9388,-3.9388,-3.9388,-3.9388,-3.9388,-3.9388,-3.9388,-3.9388,-3.9388,-3.9388,-3.9388,-3.9388,-3.9388,-3.9388,-3.9388,-3.9388,-3.9388,-3.9388,-3.9388,-3.9388,-3.9388,-3.9388,-3.9388,-3.9388,-3.8796,-3.8347,-3.8212,-3.6408,-3.5247,-3.5096,-3.3886,-3.2749,-3.1779,-3.1573,-3.1044,-3.0113,-2.9895,-2.9792,-2.9792,-2.9792,-2.9792,-2.9792,-2.9792,-2.9792,-4.0096,-4.0096,-3.9995,-3.961,-3.9209,0.0,0.0,-3.8064,-3.769,-3.7263,-3.6873,-3.6492,-3.6117,-3.5765,-3.5311,-3.4839,-3.5003,-3.5355,-3.5827,-3.5536,-3.5233,-3.5021,-3.5264,-3.5047,-3.3995,-3.3911,-3.367,-3.3154,-3.3124,-3.3124,-3.3124,-3.3598,-3.415,-3.4664,-3.5695,-3.6763,-3.7791,-3.8345,-3.887,-3.9388,-3.9388,-3.9388,-3.9388,-3.9388,-3.9388,-3.9388,-3.9388,-3.9388,-3.9388,-3.9388,-3.9388,-3.9388,-3.9388,-3.9388,-3.9388,-3.9388,-3.9388,-3.9388,-3.9388,-3.9388,-3.9388,-3.9388,-3.9388,-3.9388,-3.9388,-3.9388,-3.9388,-3.9388,-3.9388,-3.9388,-3.9388,-3.9388,-3.9388,-3.9388,-3.9388,-3.9388,-3.9388,-3.9388,-3.9388,-3.9388,-3.9388,-3.9388,-3.9388,-3.9388,-3.9388,-3.9388,-3.9388,-3.9388,-3.9388,-3.9388,-3.9177,-3.8671,-3.8289,-3.7755,-3.6944,-3.5798,-3.5009,-3.4663,-3.3612,-3.2577,-3.164,-3.1325,-3.0758,-2.983,-2.9792,-2.9792,-2.9792,-2.9792,-2.9792,-2.9792,-2.9792,-2.9792,-4.0096,-4.0096,-4.0096,-4.0096,-3.961,-3.9139,0.0,0.0,0.0,-3.8035,-3.7499,-3.7008,-3.6843,-3.6228,-3.5701,-3.5701,-3.5587,-3.5684,-3.6222,-3.5848,-3.5549,-3.5582,-3.6125,-3.6107,-3.5088,-3.4815,-3.4275,-3.3197,-3.3124,-3.3124,-3.3124,-3.3124,-3.3513,-3.4345,-3.4594,-3.5615,-3.7472,-3.7715,-3.8345,-3.9388,-3.9388,-3.9388,-3.9388,-3.9388,-3.9388,-3.9388,-3.9388,-3.9388,-3.9388,-3.9388,-3.9388,-3.9388,-3.9388,-3.9388,-3.9388,-3.9388,-3.9388,-3.9388,-3.9388,-3.9388,-3.9388,-3.9388,-3.9388,-3.9388,-3.9388,-3.9388,-3.9388,-3.9388,-3.9388,-3.9388,-3.9388,-3.9388,-3.9388,-3.9388,-3.9388,-3.9388,-3.9388,-3.9388,-3.9388,-3.9388,-3.9388,-3.9388,-3.9388,-3.9388,-3.9388,-3.9388,-3.9388,-3.9388,-3.9388,-3.9388,-3.9068,-3.8196,-3.7919,-3.7272,-3.591,-3.5294,-3.4788,-3.4233,-3.3468,-3.2678,-3.1914,-3.1365,-3.0712,-2.9955,-2.9842,-2.9792,-2.9792,-2.9792,-2.9792,-2.9792,-2.9792,-2.9792,-4.0096,-4.0096,-4.0096,-4.0096,-4.002,-3.9952,-3.9952,0.0,-3.9636,-3.8908,0.0,-3.8425,-3.7777,0.0,0.0,-3.6477,-3.5926,-3.5534,-3.5609,-3.6056,-3.6423,-3.6609,-3.7186,-3.719,-3.6132,-3.5197,-3.4275,-3.3197,-3.3124,-3.3124,-3.3124,-3.3124,-3.3154,-3.3283,-3.4191,-3.5251,-3.6369,-3.7305,-3.8345,-3.9388,-3.9388,-3.9388,-3.9388,-3.9388,-3.9388,-3.9388,-3.9388,-3.9388,-3.9388,-3.9388,-3.9388,-3.9388,-3.9388,-3.9388,-3.9388,-3.9388,-3.9388,-3.9388,-3.9388,-3.9388,-3.9388,-3.9388,-3.9388,-3.9388,-3.9388,-3.9388,-3.9388,-3.9388,-3.9388,-3.9388,-3.9388,-3.9388,-3.9388,-3.9388,-3.9388,-3.9388,-3.9388,-3.9388,-3.9388,-3.9388,-3.9388,-3.9388,-3.9388,-3.9388,-3.9388,-3.9388,-3.9388,-3.9388,-3.9388,-3.9388,-3.9337,-3.9228,-3.8383,-3.7724,-3.7524,-3.5358,-3.3927,-3.3861,-3.2429,-3.1557,-3.1488,-3.0943,-3.0626,-3.052,-3.0043,-2.9792,-2.9792,-2.9792,-2.9792,-2.9792,-2.9792,-2.9792,-4.0096,-4.0096,-4.0096,-4.0096,-4.0096,-4.0096,-4.0096,-4.0096,-3.9995,-3.9662,0.0,0.0,0.0,0.0,0.0,0.0,-3.6631,-3.6134,-3.6134,-3.6356,-3.6671,-3.7102,-3.7758,-3.7871,-3.7171,-3.5655,-3.4511,-3.4079,-3.3441,-3.3124,-3.3124,-3.3124,-3.3124,-3.3124,-3.3556,-3.4568,-3.6158,-3.6643,-3.7738,-3.9388,-3.9388,-3.9388,-3.9388,-3.9388,-3.9388,-3.9388,-3.9388,-3.9388,-3.9388,-3.9388,-3.9017,-3.8472,-3.8472,-3.887,-3.9388,-3.9388,-3.9388,-3.9388,-3.9388,-3.9388,-3.9388,-3.9388,-3.9388,-3.9388,-3.9388,-3.9388,-3.9388,-3.9388,-3.9388,-3.9388,-3.9388,-3.9388,-3.9388,-3.9388,-3.9388,-3.9388,-3.9388,-3.9388,-3.9388,-3.9388,-3.9388,-3.9388,-3.9388,-3.9388,-3.9388,-3.9388,-3.9388,-3.9388,-3.9388,-3.9388,-3.8929,-3.7686,-3.7123,-3.6383,-3.5183,-3.404,-3.3383,-3.3383,-3.2415,-3.1725,-3.1399,-3.1185,-3.0922,-3.062,-3.0382,-3.0118,-2.9792,-2.9792,-2.9792,-2.9792,-2.9792,-2.9792,-4.0096,-4.0096,-4.0096,-4.0096,-4.0096,-4.0096,-4.0096,-4.0096,-4.0096,-4.0096,-3.9636,0.0,0.0,0.0,-3.8121,-3.8121,0.0,-3.6843,-3.663,-3.6561,-3.6682,-3.7109,-3.7883,-3.8151,-3.7587,-3.6064,-3.5129,-3.5129,-3.415,-3.367,-3.394,-3.394,-3.3827,-3.3556,-3.3556,-3.4415,-3.6158,-3.5934,-3.6866,-3.8943,-3.8943,-3.8819,-3.8531,-3.8819,-3.8943,-3.8943,-3.8943,-3.9141,-3.9388,-3.9068,-3.8509,-3.7753,-3.7472,-3.7829,-3.8568,-3.8855,-3.9141,-3.9388,-3.9388,-3.9388,-3.9388,-3.9388,-3.9388,-3.9388,-3.9388,-3.9388,-3.9388,-3.9388,-3.9388,-3.9388,-3.9388,-3.9388,-3.9388,-3.9388,-3.9388,-3.9388,-3.9388,-3.9388,-3.9388,-3.9388,-3.9388,-3.9388,-3.9388,-3.9388,-3.9388,-3.9388,-3.9388,-3.9388,-3.9388,-3.9388,-3.8694,-3.6852,-3.6369,-3.5467,-3.367,-3.3283,-3.3124,-3.3124,-3.2679,-3.2265,-3.1863,-3.17,-3.1436,-3.106,-3.0771,-3.0419,-3.0018,-2.9867,-2.9792,-2.9792,-2.9792,-2.9792,-4.0096,-4.0096,-4.0096,-4.0096,-4.0096,-4.0096,-4.0096,-4.0096,-4.0096,-4.0096,-4.007,-4.007,-4.007,-3.9411,-3.8854,0.0,-3.8246,0.0,0.0,-3.66,-3.6582,-3.6517,-3.7629,-3.7973,-3.6937,-3.641,-3.6158,-3.6158,-3.521,-3.5088,-3.6053,-3.6079,-3.5668,-3.4664,-3.4664,-3.517,-3.6198,-3.5238,-3.5775,-3.7829,-3.7829,-3.7305,-3.633,-3.7381,-3.7829,-3.7829,-3.7829,-3.8435,-3.9301,-3.8271,-3.7829,-3.7715,-3.6643,-3.6277,-3.6448,-3.7472,-3.8509,-3.9388,-3.9388,-3.9388,-3.9388,-3.9388,-3.9388,-3.9388,-3.9388,-3.9388,-3.9388,-3.9388,-3.9388,-3.9388,-3.9388,-3.9388,-3.9388,-3.9388,-3.9388,-3.9388,-3.9388,-3.9388,-3.9388,-3.9388,-3.9388,-3.9388,-3.9388,-3.9388,-3.9388,-3.9388,-3.9388,-3.9388,-3.9388,-3.9388,-3.898,-3.7866,-3.6813,-3.5774,-3.4746,-3.3713,-3.3124,-3.3124,-3.3056,-3.3043,-3.3074,-3.2478,-3.2177,-3.2164,-3.1148,-3.0608,-3.0583,-3.0055,-2.9792,-2.9792,-2.9792,-2.9792,-4.0096,-4.0096,-4.0096,-4.0096,-4.0096,-4.0096,-4.0096,-4.0096,-4.0096,-4.0096,-4.0096,-4.0096,-4.0096,-3.9876,-3.9688,0.0,-3.9032,-3.8425,0.0,-3.7247,-3.6414,-3.5887,-3.6971,-3.7759,-3.7843,-3.7074,-3.6798,-3.7238,-3.6304,-3.5854,-3.6158,-3.6198,-3.6053,-3.5708,-3.5047,-3.5156,-3.6198,-3.5197,-3.5413,-3.6735,-3.6735,-3.6565,-3.6198,-3.6565,-3.6735,-3.6735,-3.6735,-3.693,-3.7238,-3.6891,-3.6344,-3.5695,-3.5332,-3.521,-3.5319,-3.6383,-3.742,-3.8435,-3.9141,-3.8943,-3.8345,-3.8345,-3.7852,-3.7405,-3.8144,-3.8345,-3.8345,-3.8345,-3.887,-3.9228,-3.8546,-3.887,-3.9388,-3.9388,-3.9388,-3.9388,-3.9388,-3.9388,-3.9388,-3.9388,-3.9388,-3.9388,-3.9388,-3.9388,-3.9388,-3.9388,-3.9388,-3.9388,-3.9388,-3.9388,-3.8745,-3.693,-3.6408,-3.5507,-3.3797,-3.3313,-3.3124,-3.3124,-3.3124,-3.3124,-3.3124,-3.288,-3.2604,-3.2227,-3.1863,-3.1323,-3.062,-3.0432,-3.0143,-2.9792,-2.9792,-2.9792,-4.0096,-4.0096,-4.0096,-4.0096,-4.0096,-4.0096,-4.0096,-4.0096,-4.0096,-4.0096,-4.0096,-4.0096,-4.0096,-4.0096,-4.0096,0.0,0.0,-3.9236,0.0,-3.7584,-3.6415,-3.5943,-3.6601,-3.724,-3.7674,-3.7163,-3.7133,-3.7952,-3.7239,-3.693,-3.7329,-3.7329,-3.7007,-3.6237,-3.5588,-3.5359,-3.5668,-3.4664,-3.4664,-3.5668,-3.5668,-3.5467,-3.5116,-3.5507,-3.5668,-3.5668,-3.5668,-3.5854,-3.6158,-3.5814,-3.5278,-3.4664,-3.4275,-3.4108,-3.4275,-3.5278,-3.6579,-3.7829,-3.813,-3.8055,-3.7753,-3.7343,-3.6774,-3.633,-3.7021,-3.7214,-3.7171,-3.7011,-3.7566,-3.8049,-3.7163,-3.7618,-3.8368,-3.8745,-3.8819,-3.8943,-3.9301,-3.9104,-3.8819,-3.8819,-3.8531,-3.8242,-3.8242,-3.8242,-3.8368,-3.8782,-3.9141,-3.9265,-3.887,-3.8819,-3.8182,-3.6408,-3.5894,-3.4966,-3.324,-3.3124,-3.3124,-3.3124,-3.3124,-3.3124,-3.3124,-3.3124,-3.2905,-3.2528,-3.2315,-3.1775,-3.0884,-3.0708,-3.0331,-2.9792,-2.9792,-2.9792]},{"header":{"parameterUnit":"m.s-1","parameterCategory":1,"la1":30.6,"la2":29.2853,"lo1":-89.7004,"lo2":-87.6739,"dy":0.0162,"dx":0.0183,"nx":112,"ny":82,"refTime":"2023-05-02T00:00:00:Z","depth":0,"parameterNumber":3,"parameterNumberName":"V-component_of_WINDS"},"data":[0.0,0.0,0.0,0.0,0.0,0.0,0.0,0.0,0.0,0.0,0.0,0.0,0.0,0.0,0.0,0.0,0.0,0.0,0.0,0.0,0.0,0.0,0.0,0.0,0.0,0.0,0.0,0.0,0.0,0.0,0.0,0.0,0.0,0.0,0.0,0.0,0.0,0.0,0.0,0.0,0.0,0.0,0.0,0.0,0.0,0.0,0.0,0.0,0.0,0.0,0.0,0.0,0.0,0.0,0.0,0.0,0.0,0.0,0.0,0.0,0.0,0.0,0.0,0.0,0.0,0.0,0.0,0.0,0.0,0.0,0.0,0.0,0.0,0.0,0.0,0.0,0.0,0.0,0.0,0.0,0.0,0.0,0.0,0.0,0.0,0.0,0.0,0.0,0.0,0.0,0.531,0.4246,0.3011,0.1761,0.0429,0.0095,0.0,0.0,0.0,0.0,0.0,0.0,0.0,0.0,0.0,0.0,0.0,0.0,0.0,0.0,0.0,0.0,0.0,0.0,0.0,0.0,0.0,0.0,0.0,0.0,0.0,0.0,0.0,0.0,0.0,0.0,0.0,0.0,0.0,0.0,0.0,0.0,0.0,0.0,0.0,0.0,0.0,0.0,0.0,0.0,0.0,0.0,0.0,0.0,0.0,0.0,0.0,0.0,0.0,0.0,0.0,0.0,0.0,0.0,0.0,0.0,0.0,0.0,0.0,0.0,0.0,0.0,0.0,0.0,0.0,0.0,0.0,0.0,0.0,0.0,0.0,0.0,0.0,0.0,0.0,0.0,0.0,0.0,0.0,0.0,0.0,0.0,0.0,0.0,0.0,0.0,0.0,0.0,0.0,0.0,0.0,0.0,0.0,0.0,0.0,0.0,0.0,0.0,0.0,0.0,0.0,0.0,0.6827,0.5615,0.4309,0.3041,0.1808,0.0667,0.0,0.0,0.0,0.0,0.0,0.0,0.0,0.0,0.0,0.0,0.0,0.0,0.0,0.0,0.0,0.0,0.0,0.0,0.0,0.0,0.0,0.0,0.0,0.0,0.0,0.0,0.0,0.0,0.0,0.0,0.0,0.0,0.0,0.0,0.0,0.0,0.0,0.0,0.0,0.0,0.0,0.0,0.0,0.0,0.0,0.0,0.0,0.0,0.0,0.0,0.0,0.0,0.0,0.0,0.0,0.0,0.0,0.0,0.0,0.0,0.0,0.0,0.0,0.0,0.0,0.0,0.0,0.0,0.0,0.0,0.0,0.0,0.0,0.0,0.0,0.0,0.0,0.0,0.0,0.0,0.0,0.0,0.0,0.0,0.0,0.0,0.0,0.0,0.0,0.0,0.0,0.0,0.0,0.0,0.0,0.0,0.0,0.0,0.0,0.0,0.0,0.0,0.0,0.0,0.0,0.7291,0.7228,0.5926,0.4667,0.3379,0.2109,0.0786,0.0,0.0,0.0,0.0,0.0,0.0,0.0,0.0,0.0,0.0,0.0,0.0,0.0,0.0,0.0,0.0,0.0,0.0,0.0,0.0,0.0,0.0,0.0,0.0,0.0,0.0,0.0,0.0,0.0,0.0,0.0,0.0,0.0,0.0,0.0,0.0,0.0,0.0,0.0,0.0,0.0,0.0,0.0,0.0,0.0,0.0,0.0,0.0,0.0,0.0,0.0,0.0,0.0,0.0,0.0,0.0,0.0,0.0,0.0,0.0,0.0,0.0,0.0,0.0,0.0,0.0,0.0,0.0,0.0,0.0,0.0,0.0,0.0,0.0,0.0,0.0,0.0,0.0,0.0,0.0,0.0,0.0,0.0,0.0,0.0,0.0,0.0,0.0,0.0,0.0,0.0,0.0,0.0,0.0,0.0,0.0,0.0,0.0,0.0,0.0,0.0,0.0,0.0,0.0,0.0,0.7797,0.7472,0.6439,0.5225,0.4067,0.3016,0.1411,0.0454,0.0454,0.0151,0.0,0.0,0.0,0.0,0.0,0.0,0.0,0.0,0.0,0.0,0.0,0.0,0.0,0.0,0.0,0.0,0.0,0.0,0.0,0.0,0.0,0.0,0.0,0.0,0.0,0.0,0.0,0.0,0.0,0.0,0.0,0.0,0.0,0.0,0.0,0.0,0.0,0.0,0.0,0.0,0.0,0.0,0.0,0.0,0.0,0.0,0.0,0.0,0.0,0.0,0.0,0.0,0.0,0.0,0.0,0.0,0.0,0.0,0.0,0.0,0.0,0.0,0.0,0.0,0.0,0.0,0.0,0.0,0.0,0.0,0.0,0.0,0.0,0.0,0.0,0.0,0.0,0.0,0.0,0.0,0.0,0.0,0.0,0.0,0.0,0.0,0.0,0.0,0.0,0.0,0.0,0.0,0.0,0.0,0.0,0.0,0.0,0.0,0.0,0.0,0.0,0.0,0.7968,0.7971,0.7872,0.6675,0.5827,0.5727,0.3367,0.1862,0.1862,0.0706,0.0,0.0,0.0,0.0,0.0,0.0,0.0,0.0,0.0,0.0,0.0,0.0,0.0,0.0,0.0,0.0,0.0,0.0,0.0,0.0,0.0,0.0,0.0,0.0,0.0,0.0,0.0,0.0,0.0,0.0,0.0,0.0,0.0,0.0,0.0,0.0,0.0,0.0,0.0,0.0,0.0,0.0,0.0,0.0,0.0,0.0,0.0,0.0,0.0,0.0,0.0,0.0,0.0,0.0,0.0,0.0,0.0,0.0,0.0,0.0,0.0,0.0,0.0,0.0,0.0,0.0,0.0,0.0,0.0,0.0,0.0,0.0,0.0,0.0,0.0,0.0,0.0,0.0,0.0,0.0,0.0,0.0,0.0,0.0,0.0,0.0,0.0,0.0,0.0,0.0,0.0,0.0,0.0,0.0,0.0,0.0,0.0,0.0,0.0,0.0,0.0,0.0,0.7988,0.7988,0.7988,0.6783,0.5979,0.5979,0.432,0.2914,0.2063,0.0,0.0,0.0,0.0,0.0,0.0,0.0,0.0,0.0,0.0,0.0,0.0,0.0,0.0,0.0,0.0,0.0,0.0,0.0,0.0,0.0,0.0,0.0,0.0,0.0,0.0,0.0,0.0,0.0,0.0,0.0,0.0,0.0,0.0,0.0,0.0,0.0,0.0,0.0,0.0,0.0,0.0,0.0,0.0,0.0,0.0,0.0,0.0,0.0,0.0,0.0,0.0,0.0,0.0,0.0,0.0,0.0,0.0,0.0,0.0,0.0,0.0,0.0,0.0,0.0,0.0,0.0,0.0,0.0,0.0,0.0,0.0,0.0,0.0,0.0,0.0,0.0,0.0,0.0,0.0,0.0,0.0,0.0,0.0,0.0,0.0,0.0,0.0,0.0,0.0,0.0,0.0,0.0,0.0,0.0,0.0,0.0,0.0,0.0,0.0,0.0,0.0,0.7988,0.7988,0.7988,0.7988,0.7185,0.6631,0.6631,0.5422,0.427,0.3317,0.0,0.0,0.0,0.0,0.0,0.0,0.0,0.0,0.0,0.0,0.0,0.0,0.0,0.0,0.0,0.0,0.0,0.0,0.0,0.0,0.0,0.0,0.0,0.0,0.0,0.0,0.0,0.0,0.0,0.0,0.0,0.0,0.0,0.0,0.0,0.0,0.0,0.0,0.0,0.0,0.0,0.0,0.0,0.0,0.0,0.0,0.0,0.0,0.0,0.0,0.0,0.0,0.0,0.0,0.0,0.0,0.0,0.0,0.0,0.0,0.0,0.0,0.0,0.0,0.0,0.0,0.0,0.0,0.0,0.0,0.0,0.0,0.0,0.0,0.0,0.0,0.0,0.0,0.0,0.0,0.0,0.0,0.0,0.0,0.0,0.0,0.0,0.0,0.0,0.0,0.0,0.0,0.0,0.0,0.0,0.0,0.0,0.0,0.0,0.0,0.0,0.0,0.7988,0.7988,0.7988,0.7988,0.7988,0.7988,0.7988,0.6783,0.6029,0.0,0.0,0.0,0.0,0.0,0.0,0.0,0.0,0.0,0.0,0.0,0.0,0.0,0.0,0.0,0.0,0.0,0.0,0.0,0.0,0.0,0.0,0.0,0.0,0.0,0.0,0.0,0.0,0.0,0.0,0.0,0.0,0.0,0.0,0.0,0.0,0.0,0.0,0.0,0.0,0.0,0.0,0.0,0.0,0.0,0.0,0.0,0.0,0.0,0.0,0.0,0.0,0.0,0.0,0.0,0.0,0.0,0.0,0.0,0.0,0.0,0.0,0.0,0.0,0.0,0.0,0.0,0.0,0.0,0.0,0.0,0.0,0.0,0.0,0.0,0.0,0.0,0.0,0.0,0.0,0.0,0.0,0.0,0.0,0.0,0.0,0.0,0.0,0.0,0.0,0.0,0.0,0.0,0.0,0.0,0.0,0.0,0.0,0.0,0.0,0.0,0.0,0.0,0.7988,0.7988,0.7988,0.7988,0.7988,0.7988,0.7988,0.7637,0.6983,0.6079,0.0,0.0,0.0,0.0,0.0,0.0,0.0,0.0,0.0,0.0,0.0,0.0,0.0,0.0,0.0,0.0,0.0,0.0,0.0,0.0,0.0,0.0,0.0,0.0,0.0,0.0,0.0,0.0,0.0,0.0,0.0,0.0,0.0,0.0,0.0,0.0,0.0,0.0,0.0,0.0,0.0,0.0,0.0,0.0,0.0,0.0,0.0,0.0,0.0,0.0,0.0,0.0,0.0,0.0,0.0,0.0,0.0,0.0,0.0,0.0,0.0,0.0,0.0,0.0,0.0,0.0,0.0,0.0,0.0,0.0,0.0,0.0,0.0,0.0,0.0,0.0,0.0,0.0,0.0,0.0,0.0,0.0,0.0,0.0,0.0,0.0,0.0,0.0,0.0,0.0,0.0,0.0,0.0,0.0,0.0,0.0,0.0,0.0,0.0,0.0,0.0,0.0,0.8088,0.8482,0.8577,0.8038,0.7988,0.7988,0.7988,0.7988,0.7637,0.6833,0.0,0.0,0.0,0.0,0.0,0.0,0.0,0.0,0.0,0.0,0.0,0.0,0.0,0.0,0.0,0.0,0.0,0.0,0.0,0.0,0.0,0.0,0.0,0.0,0.0,0.0,0.0,0.0,0.0,0.0,0.0,0.0,0.0,0.0,0.0,0.0,0.0,0.0,0.0,0.0,0.0,0.0,0.0,0.0,0.0,0.0,0.0,0.0,0.0,0.0,0.0,0.0,0.0,0.0,0.0,0.0,0.0,0.0,0.0,0.0,0.0,0.0,0.0,0.0,0.0,0.0,0.0,0.0,0.0,0.0,0.0,0.0,0.0,0.0,0.0,0.0,0.0,0.0,0.0,0.0,0.0,0.0,0.0,0.0,0.0,0.0,0.0,0.0,0.0,0.0,0.0,0.0,0.0,0.0,0.0,0.0,0.0,0.0,0.0,0.0,0.0,0.0,0.8333,0.9361,0.9706,0.8478,0.8237,0.8187,0.8187,0.8088,0.7988,0.7988,0.0,0.0,0.0,0.0,0.0,0.0,0.0,0.0,0.0,0.0,0.0,0.0,0.0,0.0,0.0,0.0,0.0,0.0,0.0,0.0,0.0,0.0,0.0,0.0,0.0,0.0,0.0,0.0,0.0,0.0,0.0,0.0,0.0,0.0,0.0,0.0,0.0,0.0,0.0,0.0,0.0,0.0,0.0,0.0,0.0,0.0,0.0,0.0,0.0,0.0,0.0,0.0,0.0,0.0,0.0,0.0,0.0,0.0,0.0,0.0,0.9998,0.9558,0.0,0.0,0.0,0.0,0.0,0.0,0.0,0.0,0.0,0.0,0.0,0.0,0.0,0.0,0.0,0.0,0.0,0.0,0.0,0.0,0.0,0.0,0.0,0.0,0.0,0.0,0.0,0.0,0.0,0.0,0.0,0.0,0.0,0.0,0.0,0.0,0.0,0.0,0.0,0.0,0.9608,1.0681,1.1409,1.1121,1.0194,0.9558,0.9558,0.8627,0.7988,0.7988,0.7739,0.0,0.0,0.0,0.0,0.0,0.0,0.0,0.0,0.0,0.0,0.0,0.0,0.0,0.0,0.0,0.0,0.0,0.0,0.0,0.0,0.0,0.0,0.0,0.0,0.0,0.0,0.0,0.0,0.0,0.0,0.0,0.0,0.0,0.0,0.0,0.0,0.0,0.0,0.0,0.0,0.0,0.0,0.0,0.0,0.0,0.0,0.0,0.0,0.0,0.0,0.0,0.0,0.0,0.0,0.0,0.0,0.0,0.0,0.0,1.1458,1.0925,0.0,0.0,0.0,0.0,0.0,0.0,0.0,0.0,0.0,0.0,0.0,0.0,0.0,0.0,0.0,0.0,0.0,0.0,0.0,0.0,0.0,0.0,0.0,0.0,0.0,0.0,0.0,0.0,0.0,0.0,0.0,0.0,0.0,0.0,0.0,0.0,0.0,0.0,0.0,0.0,1.0925,1.2037,1.2624,1.1945,1.1317,1.0925,1.0925,1.0288,0.9899,0.9899,0.9899,0.0,0.0,0.0,0.0,0.0,0.0,0.0,0.0,0.0,0.0,0.0,0.0,0.0,0.0,0.0,0.0,0.0,0.0,0.0,0.0,0.0,0.0,0.0,0.0,0.0,0.0,0.0,0.0,0.0,0.0,0.0,0.0,0.0,0.0,0.0,0.0,0.0,0.0,0.0,0.0,0.0,0.0,0.0,0.0,0.0,0.0,0.0,0.0,0.0,0.0,0.0,0.0,0.0,1.222,1.2517,1.2517,1.256,1.3156,1.4166,1.306,1.2431,1.2188,1.1116,0.0,0.0,0.0,0.0,0.0,0.0,0.0,0.0,0.0,0.0,0.0,0.0,0.0,0.0,0.0,0.0,0.0,0.0,0.0,0.0,0.0,0.0,1.3926,1.2818,1.3445,1.3926,1.2818,0.0,0.0,0.0,0.0,0.0,0.0,0.0,0.0,0.0,0.0,0.0,1.2237,1.3392,1.383,1.2721,1.2382,1.2237,1.2237,1.2042,1.1896,1.1896,1.1896,1.1896,0.0,0.0,0.0,0.0,0.0,0.0,0.0,0.0,0.0,0.0,0.0,0.0,0.0,0.0,0.0,0.0,0.0,0.0,0.0,0.0,0.0,0.0,0.0,0.0,0.0,0.0,0.0,0.0,0.0,0.0,0.0,0.0,1.4039,1.3864,0.0,0.0,0.0,0.0,0.0,0.0,0.0,0.0,0.0,0.0,0.0,0.0,0.0,1.1032,1.1032,1.2288,1.2939,1.2984,1.4306,1.4928,1.4941,1.5186,1.5391,1.5534,1.5343,0.0,1.3632,1.344,0.0,0.0,0.0,0.0,0.0,0.0,0.0,0.0,0.0,0.0,0.0,0.0,0.0,0.0,0.0,0.0,0.0,0.0,0.0,0.0,0.0,0.0,1.5486,1.5343,1.5439,1.5486,1.5343,1.3499,1.1848,1.1702,1.1658,1.1604,0.0,0.0,0.0,0.0,0.0,0.0,1.3632,1.4752,1.5486,1.5296,1.4316,1.3632,1.3632,1.2576,1.1896,1.1896,1.1896,1.1896,1.1896,1.175,0.0,0.0,0.0,0.0,0.0,0.0,0.0,0.0,0.0,0.0,0.0,0.0,0.0,0.0,0.0,0.0,0.0,0.0,0.0,0.0,0.0,0.0,0.0,0.0,0.0,0.0,0.0,0.0,0.0,1.5019,1.4776,1.4166,1.4608,1.4552,0.0,0.0,0.0,0.0,0.0,0.0,0.0,0.0,0.0,1.278,1.3125,1.3308,1.3308,1.4041,1.4453,1.446,1.5259,1.5638,1.5645,1.5772,1.5784,1.5784,1.5784,1.5486,1.4902,1.4214,1.3536,1.2963,0.0,0.0,0.0,0.0,1.1896,1.1994,1.2764,1.3006,1.3151,1.3884,0.0,0.0,0.0,0.0,0.0,0.0,0.0,1.5784,1.5784,1.5784,1.5784,1.5784,1.5784,1.5784,1.5784,1.4902,1.3884,1.3156,1.3006,1.2764,1.2042,1.1896,0.0,0.0,0.0,1.4166,1.4902,1.5439,1.5784,1.5784,1.5289,1.4949,1.4949,1.4418,1.4082,1.4082,1.4082,1.4082,1.4082,1.3397,1.3006,0.0,0.0,0.0,0.0,0.0,0.0,0.0,0.0,0.0,0.0,0.0,0.0,0.0,0.0,0.0,0.0,0.0,0.0,0.0,0.0,0.0,0.0,0.0,0.0,0.0,0.0,0.0,0.0,1.6108,1.5703,1.4657,1.5213,1.5296,0.0,0.0,0.0,0.0,0.0,0.0,1.4352,1.4516,1.4636,1.4636,1.4923,1.5122,1.5122,1.5364,1.5504,1.5504,1.5678,1.5824,1.5945,1.5945,1.5985,1.6052,1.6052,1.6052,1.5943,1.4863,1.4411,1.4268,1.3301,1.2915,1.2915,1.2915,1.2915,1.306,1.4028,1.4411,1.4555,1.5486,1.5784,1.5784,1.5784,0.0,0.0,0.0,0.0,1.5784,1.5784,1.5784,1.5784,1.5784,1.5784,1.5784,1.5784,1.5784,1.5534,1.4555,1.4411,1.4076,1.306,1.2915,0.0,1.422,1.4411,1.4752,1.5683,1.5784,1.5784,1.5784,1.5784,1.5784,1.5784,1.5784,1.5784,1.5784,1.5784,1.5784,1.5784,1.4902,1.4411,1.4411,0.0,0.0,0.0,0.0,0.0,0.0,0.0,0.0,0.0,0.0,0.0,0.0,0.0,0.0,0.0,0.0,0.0,0.0,0.0,0.0,0.0,0.0,0.0,0.0,0.0,0.0,0.0,0.0,0.0,1.5737,1.5662,0.0,0.0,0.0,0.0,1.4476,1.4496,1.4623,1.4948,1.4981,1.4988,1.4988,1.5224,1.5378,1.5378,1.5665,1.5758,1.5758,1.5771,1.5979,1.6253,1.6253,1.64,1.666,1.666,1.666,1.662,1.5963,1.5683,1.5683,1.5635,1.5588,1.5588,1.5588,1.5588,1.5635,1.5683,1.5683,1.573,1.5784,1.5784,1.5784,1.5784,1.5784,0.0,0.0,1.5784,1.5784,1.5784,1.5784,1.5784,1.5784,1.5784,1.5784,1.5784,1.5784,1.5778,1.573,1.5683,1.5683,1.5635,0.0,1.5635,1.5683,1.5683,1.573,1.5778,1.5784,1.5784,1.5784,1.5784,1.5784,1.5784,1.5784,1.5784,1.5784,1.5784,1.5784,1.5784,1.573,1.5683,1.5683,1.5683,0.0,0.0,0.0,0.0,0.0,0.0,0.0,0.0,0.0,0.0,0.0,0.0,0.0,0.0,0.0,0.0,0.0,0.0,0.0,0.0,0.0,0.0,0.0,0.0,0.0,0.0,0.0,0.0,1.7283,1.7796,0.0,1.7079,1.6296,1.5872,1.5987,1.5276,1.485,1.5001,1.5137,1.5244,1.5244,1.5524,1.5765,1.5959,1.6066,1.6206,1.6393,1.6393,1.6446,1.6553,1.6553,1.6607,1.6707,1.6707,1.6707,1.6693,1.648,1.6286,1.6092,1.5905,1.5784,1.5784,1.5784,1.5784,1.5784,1.5784,1.5784,1.5784,1.5784,1.5784,1.5784,1.5784,1.5784,1.5967,1.6803,1.6433,1.615,1.7755,1.7023,1.6015,1.681,1.6386,1.5784,1.5784,1.5784,1.5784,1.5784,1.5784,1.5784,1.5784,1.5784,1.5784,1.5784,1.5784,1.5784,1.5784,1.5784,1.5784,1.5784,1.5784,1.5784,1.5784,1.5784,1.5784,1.5784,1.5784,1.5784,1.5784,1.5784,1.6204,1.699,1.7037,1.7037,0.0,0.0,0.0,0.0,0.0,0.0,0.0,0.0,0.0,0.0,0.0,0.0,0.0,0.0,0.0,0.0,0.0,0.0,0.0,0.0,0.0,0.0,0.0,0.0,0.0,1.9894,1.9666,1.8825,1.9359,1.9498,1.8691,1.7889,1.7458,1.7575,1.6454,1.5808,1.592,1.5764,1.5691,1.5691,1.5972,1.6219,1.642,1.642,1.6513,1.6707,1.6707,1.676,1.6854,1.6854,1.6907,1.7001,1.7001,1.7001,1.7045,1.7385,1.7427,1.7204,1.6326,1.5979,1.5965,1.5818,1.5784,1.5784,1.5784,1.6062,1.6433,1.6433,1.6702,1.707,1.707,1.707,1.7203,1.8095,1.7716,1.7436,1.9085,1.8257,1.7257,1.8087,1.7669,1.707,1.707,1.707,1.707,1.707,1.6379,1.5784,1.5784,1.5784,1.5784,1.5784,1.5784,1.5784,1.5784,1.5784,1.5784,1.5784,1.5784,1.5784,1.5784,1.5784,1.5967,1.6433,1.6433,1.6615,1.7023,1.6662,1.6793,1.7512,1.7505,1.7796,1.8326,0.0,0.0,0.0,0.0,0.0,0.0,0.0,0.0,0.0,0.0,0.0,0.0,0.0,0.0,0.0,0.0,0.0,0.0,0.0,0.0,0.0,0.0,0.0,2.122,2.1621,2.1492,2.04,2.0265,1.9885,1.8836,1.8707,1.8814,1.9129,1.7995,1.7432,1.7777,1.6882,1.6384,1.6432,1.6652,1.6807,1.6814,1.6814,1.687,1.6884,1.6884,1.7032,1.7367,1.7367,1.7464,1.7733,1.7733,1.7733,1.7818,1.884,1.9265,1.9097,1.7141,1.6384,1.6399,1.6006,1.5893,1.5933,1.5933,1.6723,1.7777,1.7777,1.8549,1.9497,1.9497,1.9497,1.9497,1.9542,1.9542,1.9542,1.9588,1.9534,1.9497,1.9542,1.9542,1.9497,1.9497,1.9497,1.9497,1.9497,1.7569,1.592,1.592,1.592,1.592,1.592,1.592,0.0,1.592,1.592,1.592,1.5872,1.5879,1.5879,1.5879,1.5879,1.6386,1.7692,1.7777,1.828,1.9443,1.8365,1.7619,1.7311,1.7349,1.8053,1.9542,0.0,0.0,0.0,0.0,0.0,0.0,0.0,0.0,0.0,0.0,0.0,0.0,0.0,0.0,0.0,0.0,0.0,0.0,0.0,0.0,0.0,2.1963,2.2051,2.1748,2.1807,2.1909,2.1853,2.1882,2.1869,2.1861,2.1074,2.0616,2.0678,1.9845,1.9352,1.9457,1.8568,1.8514,1.9517,1.8645,1.8704,1.9972,1.9972,2.0098,2.035,2.035,2.0354,2.044,2.044,2.0495,2.0582,2.0582,2.0582,2.0574,2.0886,2.1006,2.0833,1.8817,1.8652,1.9453,1.8312,1.8318,1.8942,1.8942,1.897,1.9001,1.9001,1.9222,1.9497,1.9497,1.9497,1.967,2.0576,2.0169,1.9906,2.1676,2.0809,1.9716,2.0621,2.0124,1.9497,1.9497,1.9497,1.9497,1.9497,1.894,1.8488,1.8488,1.8488,1.8488,1.8488,1.8488,1.8488,1.8488,1.8488,1.8172,1.7264,1.7178,1.7178,1.7178,1.7178,1.7677,1.8948,1.9001,1.9131,1.9497,1.9177,1.9356,2.0142,2.0178,2.0381,0.0,0.0,0.0,0.0,0.0,0.0,0.0,0.0,0.0,0.0,0.0,0.0,0.0,0.0,0.0,0.0,0.0,0.0,0.0,0.0,0.0,0.0,2.2353,2.2559,2.2666,2.2529,2.2568,2.2998,2.3047,2.3213,2.3588,2.3014,2.2589,2.2589,2.1682,2.116,2.116,2.0265,2.0117,2.0938,2.031,2.0428,2.1379,2.1429,2.1486,2.1702,2.1702,2.1702,2.1702,2.1702,2.1702,2.1702,2.1702,2.1702,2.1752,2.2316,2.2567,2.2356,0.0,0.0,0.0,0.0,1.991,2.039,2.039,2.0585,2.0769,2.0615,2.0874,2.1256,2.1087,2.0998,2.1177,2.1854,2.1534,2.132,2.2731,2.2041,2.1177,2.1898,2.1534,2.0998,2.0998,2.0998,2.0998,2.0998,2.0998,0.0,2.0998,2.0178,1.9497,1.9497,1.9497,1.9497,1.9497,1.9497,1.9222,1.8549,1.8457,1.8457,1.8457,1.8457,0.0,0.0,0.0,2.026,2.026,2.0159,0.0,0.0,0.0,2.1458,2.205,2.2041,0.0,0.0,2.1721,2.1667,0.0,0.0,0.0,0.0,0.0,0.0,0.0,0.0,0.0,0.0,0.0,0.0,0.0,0.0,0.0,0.0,2.302,2.3265,2.3964,2.3737,2.3551,2.3854,2.3857,2.4004,2.4385,2.4414,2.4414,2.4414,2.3458,2.2866,2.2866,2.1999,0.0,0.0,0.0,2.2005,2.2156,2.2156,2.2156,2.2156,2.2156,2.2156,2.2156,2.2156,2.2156,2.2156,2.2156,2.2156,2.2257,2.3434,2.3949,2.3755,2.2287,2.1608,2.1468,2.1391,2.1343,2.13,2.13,0.0,0.0,2.2391,2.2939,2.3721,2.333,2.314,2.3091,2.3091,2.3091,2.3091,2.3091,2.3091,2.3091,2.3091,2.3091,2.3091,2.3091,2.3091,2.3091,2.3091,2.3091,2.3091,2.3091,2.1311,1.9906,1.9906,1.9906,1.9906,1.9906,1.9906,1.9852,1.9716,1.9716,0.0,1.9716,1.9716,2.0215,2.1436,2.1525,2.1525,2.1525,2.1275,2.1257,2.1515,2.1275,2.1808,2.3091,2.3091,2.3091,2.3091,2.3091,2.3091,0.0,0.0,0.0,0.0,0.0,0.0,0.0,0.0,0.0,0.0,0.0,0.0,0.0,0.0,0.0,2.6282,2.6383,2.6238,2.5884,2.575,2.5337,2.4425,2.4297,2.4326,2.4414,2.4414,2.4414,2.4414,2.4549,2.4601,2.4601,2.3749,2.3722,2.4799,2.3854,2.384,2.4913,2.4922,2.4922,2.4922,2.4922,0.0,2.4922,2.4922,2.4922,2.4922,2.4922,2.4922,2.4971,2.5226,2.5323,2.5265,2.4983,2.4184,2.3359,2.4354,2.4554,2.425,2.425,2.4173,2.4025,2.3948,2.388,2.3769,2.3691,2.3418,0.0,2.3091,2.3091,2.3091,2.3091,2.3091,2.3091,2.3091,2.3091,2.3091,2.3091,2.3091,2.3091,2.3091,2.3091,2.3091,2.3091,2.2731,2.2403,2.2403,2.2403,2.2403,2.2403,2.2403,2.2041,2.1069,2.0935,2.0935,2.0935,2.0935,2.148,2.2677,2.2765,2.2765,2.2765,2.2698,2.2688,2.2765,2.2688,2.2829,2.3091,2.3091,2.3091,2.3091,2.3091,2.3091,0.0,0.0,0.0,0.0,0.0,0.0,0.0,0.0,0.0,0.0,0.0,2.7103,2.7301,0.0,2.7451,2.7671,2.771,2.7662,2.7578,2.6982,2.6129,2.4923,2.4746,2.4834,2.5011,2.5031,2.5031,2.5031,2.5283,2.54,2.54,2.4955,2.502,2.5684,2.5069,2.502,2.5684,2.5693,2.5693,2.5693,2.5693,2.5693,2.5693,2.5693,2.5693,2.5693,2.5693,2.5693,2.5693,2.5693,2.5693,2.5693,2.5693,2.5274,2.4766,2.543,2.5547,2.54,2.54,2.5264,2.5039,2.4814,2.46,2.4346,2.3916,2.3633,2.3418,2.3159,2.3091,2.3091,2.3091,2.3091,2.3091,2.3091,2.3091,2.3091,2.3091,2.3091,2.3091,2.3091,2.3091,2.3091,2.3091,2.3091,2.3091,2.3091,2.3091,2.3091,2.3091,2.3091,2.2862,2.2262,2.2217,2.2217,2.2217,2.203,2.2144,2.2779,2.2779,2.2877,2.3081,2.3091,2.3091,2.3091,2.3091,2.3091,2.3091,2.3091,2.3091,2.3091,2.3091,2.3091,0.0,0.0,0.0,0.0,0.0,0.0,0.0,2.8436,2.8586,2.9101,2.9214,2.9271,2.9359,2.9405,2.9284,2.8958,2.891,2.8996,2.9248,2.8374,2.7197,2.5744,2.5385,2.5342,2.5654,2.5693,2.5693,2.5693,2.5693,2.5693,2.5693,2.5693,2.5693,2.5693,2.5693,2.5693,2.5693,2.5693,2.5693,2.5693,2.5693,2.5693,2.5693,2.5693,2.5693,2.5693,2.5693,2.5693,2.5693,2.5693,2.5693,2.5693,2.5693,2.5693,2.5693,2.5693,2.5693,2.5693,2.5693,2.5693,2.5625,2.5312,2.5137,2.4969,2.415,2.3857,2.3701,2.3218,2.3091,2.3091,2.3091,2.3091,2.3091,2.3091,2.3091,2.3091,2.3091,2.3091,2.3091,2.3091,2.3091,2.3091,2.3091,2.3091,2.3091,2.3091,2.3091,2.3091,2.3091,2.3091,2.3091,2.3091,2.3091,2.3091,2.3091,2.2711,2.251,2.251,2.2441,2.2539,2.2838,2.2847,2.2847,2.2847,2.2847,2.2896,2.2974,2.2974,2.3013,2.3101,2.3343,2.3299,2.7288,2.7595,2.8147,2.8662,2.88,2.8925,0.0,2.9603,2.9767,3.0319,3.0432,3.0568,3.101,3.1123,3.1256,3.168,3.1725,3.1559,3.1012,3.0817,2.9863,2.7599,2.631,2.5635,2.5684,2.5693,2.5693,2.5693,2.5693,2.5693,2.5693,2.5693,2.5693,2.5693,2.5693,2.5693,2.5693,2.5693,2.5693,2.5693,2.5693,2.5693,2.5693,2.5693,2.5693,2.5693,2.5693,2.5693,2.5693,2.5693,2.5693,2.5693,2.5693,2.5693,2.5693,2.5693,2.5693,2.5693,2.5693,2.5693,2.5684,2.5635,2.5391,2.498,2.4492,2.4082,2.3701,2.3218,2.3091,2.3091,2.3091,2.3091,2.3091,2.3091,2.3091,2.3091,2.3091,2.3091,2.3091,2.3091,2.3091,2.3091,2.3091,2.3091,2.3091,2.3091,2.3091,2.3091,2.3091,2.3091,2.3091,2.3091,2.3091,2.3091,2.3091,2.2711,2.251,2.251,2.2168,2.1982,2.2021,2.2031,2.2031,2.2031,2.2031,2.2207,2.2578,2.2578,2.273,2.3135,2.4125,2.4092,2.8382,2.8411,2.8712,2.9289,2.9428,2.9578,3.0143,3.0269,3.0419,3.0947,3.1072,3.1235,3.1763,3.1863,3.2051,3.2616,3.2717,3.2621,3.2345,3.1677,3.081,2.9818,2.8634,2.7305,2.583,2.5693,2.5791,2.6103,2.6113,2.6221,2.6415,2.6484,2.6484,2.6484,2.6484,2.6484,2.6484,2.624,2.6113,2.6113,2.581,2.5693,2.5693,2.5693,2.5693,2.5693,2.5693,2.5693,2.5693,2.5693,2.5693,2.5693,2.5693,2.5693,2.5693,2.5693,2.5693,2.5693,2.5693,2.5693,2.5693,2.5693,2.5605,2.5371,2.4932,2.4502,2.4062,2.3643,2.3286,2.3091,2.3091,2.3091,2.3091,2.3091,2.3091,2.3091,2.3091,2.3091,2.3091,2.3091,2.3091,2.3091,2.3091,2.3091,2.3091,2.3091,2.3091,2.3091,2.3091,2.3091,2.3091,2.3091,2.3091,2.3003,2.275,2.2383,2.2148,2.2148,2.1748,2.1621,2.1875,2.1885,2.1885,2.1885,2.1885,2.1973,2.2148,2.2148,2.251,2.3224,2.4065,2.4482,2.951,2.9426,2.958,2.9756,2.9905,3.0118,3.052,3.0721,3.0972,3.1512,3.1625,3.1788,3.2353,3.2453,3.2591,3.3048,3.3124,3.3124,3.3124,3.2326,3.1589,3.1223,3.025,2.8726,2.6609,2.6376,2.6604,2.7102,2.6753,2.6699,2.6992,2.7012,2.7012,2.7012,2.7012,2.7012,2.7012,2.6602,2.6387,2.6387,2.5947,2.5693,2.5693,2.5693,2.5693,2.5693,2.5693,2.5693,2.5693,2.5693,2.5693,2.5693,2.5693,2.5693,2.5693,2.5693,2.5693,2.5693,2.5693,2.5693,2.5693,2.5693,2.5693,2.5606,2.5205,2.4756,2.4336,2.3906,2.3477,2.3091,2.3091,2.3091,2.3091,2.3091,2.3091,2.3091,2.3091,2.3091,2.3091,2.3091,2.3091,2.3091,2.3091,2.3091,2.3091,2.3091,2.3091,2.3091,2.3091,2.3091,2.3091,2.3091,2.3091,2.2974,2.2672,2.2305,2.2012,2.1894,2.1475,2.1278,2.1514,2.1523,2.1523,2.1523,2.1523,2.1735,2.2129,2.2129,2.2747,2.3953,2.4711,2.5345,3.0623,3.0745,3.0906,3.0037,3.0193,3.0595,3.062,3.0997,3.1524,3.2077,3.219,3.2365,3.2943,3.3056,3.3056,3.3124,3.3124,3.3124,3.3124,3.3068,3.2556,3.1356,3.0457,2.9489,2.824,2.8094,2.8331,2.889,2.7723,2.7002,2.7012,2.7012,2.7012,2.7012,2.7012,2.7012,2.7012,2.6602,2.6387,2.6387,2.5947,2.5693,2.5693,2.5693,2.5693,2.5693,2.5693,2.5693,2.5693,2.5693,2.5693,2.5693,2.5693,2.5693,2.5693,2.5693,2.5693,2.5693,2.5693,2.5693,2.5693,2.5693,2.5693,2.5606,2.5205,2.4756,2.4336,2.3906,2.3477,2.3091,2.3091,2.3091,2.3091,2.3091,2.3091,2.3091,2.3091,2.3091,2.3091,2.3091,2.3091,2.3091,2.3091,2.3091,2.3091,2.3091,2.3091,2.3091,2.3091,2.3091,2.3091,2.3091,2.3091,2.3091,2.3081,2.2691,2.2324,2.1914,2.1475,2.1045,2.0664,2.0644,2.0644,2.0644,2.0644,2.13,2.2684,2.2684,2.3677,2.5567,2.6662,2.6941,3.1257,3.1072,3.097,3.0037,3.0206,3.0708,3.1047,3.1549,3.2102,3.2667,3.278,3.2842,3.3043,3.3124,3.3124,3.3124,3.3124,3.3124,3.3124,3.3124,3.2939,3.2513,3.2528,3.2572,3.2495,2.9424,2.7612,2.8104,2.7742,2.7568,2.7851,2.7861,2.7861,2.7861,2.7861,2.7861,2.7861,2.7441,2.709,2.6797,2.6035,2.5693,2.5693,2.5693,2.5693,2.5693,2.5693,2.5693,2.5693,2.5693,2.5693,2.5693,2.5693,2.5693,2.5693,2.5693,2.5693,2.5693,2.5693,2.5693,2.5693,2.5693,2.5693,2.5664,2.5557,2.5205,2.4756,2.4326,2.3896,2.3506,2.3169,2.3091,2.3091,2.3091,2.3091,2.3091,2.3091,2.3091,2.3091,2.3091,2.3091,2.3091,2.3091,2.3091,2.3091,2.3091,2.3091,2.3091,2.3091,2.3091,2.3091,2.3091,2.3091,2.3091,2.3091,2.2711,2.2334,2.1914,2.1475,2.1035,2.0625,2.0605,2.0895,2.1517,2.1517,2.2073,2.324,2.324,2.4097,2.5739,2.6508,2.7277,3.2118,3.1706,3.1442,3.0355,3.0495,3.1035,3.1562,3.2114,3.2629,3.3006,3.3124,3.3124,3.3124,3.3124,3.3124,3.3124,3.3124,3.3124,3.3124,3.3124,3.3124,3.3124,3.3313,3.3613,3.397,3.0455,2.8522,2.9271,2.8438,2.8008,2.8281,2.8291,2.8291,2.8291,2.8291,2.8291,2.8291,2.7881,2.7373,2.6787,2.6025,2.5693,2.5693,2.5693,2.5693,2.5693,2.5693,2.5693,2.5693,2.5693,2.5693,2.5693,2.5693,2.5693,2.5693,2.5693,2.5693,2.5693,2.5693,2.5693,2.5693,2.5693,2.5693,2.5693,2.5693,2.543,2.5057,2.4727,2.4238,2.3721,2.3447,2.3218,2.3091,2.3091,2.3091,2.3091,2.3091,2.3091,2.3091,2.3091,2.3091,2.3091,2.3091,2.3091,2.3091,2.3091,2.3091,2.3091,2.3091,2.3091,2.3091,2.3091,2.3091,2.3091,2.3091,2.2847,2.249,2.1924,2.1621,2.1191,2.0625,2.0934,2.1375,2.1989,2.2366,2.3036,2.4036,2.4036,2.4939,2.6651,2.6992,2.7902,3.3185,3.2629,3.2291,3.0982,3.105,3.1537,3.2089,3.2667,3.3124,3.3124,3.3124,3.3124,3.3124,3.3124,3.3124,3.3124,3.3124,3.3124,3.3124,3.3124,3.3124,3.3124,3.2913,3.2792,3.2792,3.1412,3.103,3.223,2.9817,2.8291,2.8291,2.8291,2.8291,2.8291,2.8291,2.8291,2.8291,2.7851,2.7226,2.6416,2.5908,2.5693,2.5693,2.5693,2.5693,2.5693,2.5693,2.5693,2.5693,2.5693,2.5693,2.5693,2.5693,2.5693,2.5693,2.5693,2.5693,2.5693,2.5693,2.5693,2.5693,2.5693,2.5693,2.5693,2.5693,2.5439,2.5145,2.5125,2.4482,2.3848,2.3799,2.3486,2.312,2.3101,2.3091,2.3091,2.3091,2.3091,2.3091,2.3091,2.3091,2.3091,2.3091,2.3091,2.3091,2.3091,2.3091,2.3091,2.3091,2.3091,2.3091,2.3091,2.3091,2.3091,2.3091,2.3091,2.2783,2.1934,2.1885,2.1494,2.0644,2.1479,2.2027,2.2065,2.3073,2.4072,2.5075,2.5111,2.6165,2.8109,2.8134,2.8737,3.3959,3.3136,3.2458,3.1792,3.1506,3.1537,3.2089,3.2667,3.3124,3.3124,3.3124,3.3124,3.3124,3.3124,3.3124,3.3124,3.3124,3.3124,3.3124,3.3124,3.3124,3.3124,3.3769,3.4189,3.4189,3.3707,3.3055,3.2331,2.9817,2.8291,2.8291,2.8291,2.8291,2.8291,2.8291,2.8291,2.8291,2.7549,2.707,2.6846,2.6094,2.5693,2.5693,2.5693,2.5693,2.5693,2.5693,2.5693,2.5693,2.5693,2.5693,2.5693,2.5693,2.5693,2.5693,2.5693,2.5693,2.5693,2.5693,2.5693,2.5693,2.5693,2.5693,2.5693,2.5693,2.5615,2.5498,2.5166,2.4959,2.46,2.3955,2.3711,2.3545,2.3169,2.3091,2.3091,2.3091,2.3091,2.3091,2.3091,2.3091,2.3091,2.3091,2.3091,2.3091,2.3091,2.3091,2.3091,2.3091,2.3091,2.3091,2.3091,2.3091,2.3091,2.3091,2.3091,2.2783,2.1934,2.1885,2.1494,2.0644,2.1479,2.2366,2.311,2.412,2.5111,2.6129,2.6503,2.7204,2.8109,2.8524,2.9101,3.3136,3.2393,3.1957,3.1772,3.1578,3.1599,3.2403,3.2842,3.3124,3.3124,3.3124,3.3124,3.3124,3.3124,3.3124,3.3124,3.3124,3.3124,3.3124,3.3124,3.3124,3.3124,3.4048,3.468,3.468,3.4507,3.408,3.3254,3.0721,2.89,2.8344,2.8291,2.8291,2.8291,2.8291,2.8291,2.8291,2.7441,2.7012,2.7002,2.6093,2.5693,2.5693,2.5693,2.5693,2.5693,2.5693,2.5693,2.5693,2.5693,2.5693,2.5693,2.5693,2.5693,2.5693,2.5693,2.5693,2.5693,2.5693,2.5693,2.5693,2.5693,2.5693,2.5693,2.5693,2.5693,2.5635,2.543,2.5215,2.5008,2.4519,2.4209,2.4004,2.3715,2.3656,2.3656,2.3656,2.3656,2.3598,2.3467,2.3428,2.3315,2.313,2.3091,2.3091,2.3091,2.3091,2.3091,2.3091,2.3091,2.3091,2.3091,2.3091,2.3091,2.3091,2.3091,2.2783,2.1934,2.1885,2.1677,2.1223,2.2151,2.3147,2.4145,2.5146,2.5955,2.6499,2.7052,2.757,2.8122,2.8637,2.9239,3.1815,3.1344,3.1337,3.1552,3.1559,3.1775,3.2872,3.3124,3.3124,3.3124,3.3124,3.3124,3.3124,3.3124,3.3124,3.3124,3.3124,3.3124,3.3124,3.3124,3.3124,3.3124,3.4048,3.468,3.468,3.4696,3.4581,3.4434,3.2202,3.0172,2.8654,2.8548,2.8495,2.8291,2.8291,2.8291,2.8291,2.75,2.707,2.7002,2.6201,2.5742,2.5693,2.5693,2.5693,2.5693,2.5693,2.5693,2.5693,2.5693,2.5693,2.5693,2.5693,2.5693,2.5693,2.5693,2.5693,2.5693,2.5693,2.5693,2.5693,2.5693,2.5693,2.5693,2.5693,2.5693,2.5693,2.5693,2.5459,2.5184,2.5135,2.4785,2.4492,2.4424,2.4414,2.4414,2.4414,2.4414,2.4307,2.3945,2.3877,2.373,2.3257,2.3179,2.3159,2.3101,2.3091,2.3091,2.3091,2.3091,2.3091,2.3091,2.3091,2.3091,2.3091,2.3091,2.2846,2.2251,2.2152,2.2171,2.2305,2.3217,2.4108,2.4969,2.6052,2.66,2.66,2.7241,2.7745,2.8235,2.8787,2.9315,3.2464,3.2092,3.1974,3.2437,3.2301,3.224,3.2918,3.3124,3.3124,3.3124,3.3124,3.3124,3.3124,3.3124,3.3124,3.3124,3.3124,3.3124,3.3124,3.3124,3.3124,3.3124,3.4048,3.468,3.468,3.5519,3.5619,3.4483,3.3981,3.2605,3.0068,2.9964,2.946,2.8344,2.8291,2.8291,2.8291,2.7803,2.7373,2.7012,2.6514,2.6084,2.5693,2.5693,2.5693,2.5693,2.5693,2.5693,2.5693,2.5693,2.5693,2.5693,2.5693,2.5693,2.5693,2.5693,2.5693,2.5693,2.5693,2.5693,2.5693,2.5693,2.5693,2.5693,2.5693,2.5693,2.5693,2.5693,2.5635,2.5537,2.5213,2.5057,2.4863,2.4502,2.4414,2.4414,2.4414,2.4414,2.4394,2.4316,2.4307,2.417,2.375,2.3682,2.3555,2.3149,2.3091,2.3091,2.3091,2.3091,2.3091,2.3091,2.3091,2.3091,2.3091,2.3091,2.3299,2.3753,2.3318,2.3319,2.3878,2.4447,2.4826,2.5004,2.6422,2.7178,2.7178,2.8147,2.865,2.8762,2.9377,2.9691,3.1638,3.1408,3.1459,3.2294,3.232,3.2365,3.2943,3.3124,3.3124,3.3124,3.3124,3.3124,3.3124,3.3124,3.3124,3.3124,3.3124,3.3124,3.3124,3.3124,3.3124,3.3124,3.4048,3.468,3.468,3.5717,3.6108,3.5463,3.5415,3.4252,3.148,3.1327,3.0721,2.9355,2.9355,2.9006,2.8291,2.7881,2.7441,2.7012,2.6592,2.6162,2.5693,2.5693,2.5693,2.5693,2.5693,2.5693,2.5693,2.5693,2.5693,2.5693,2.5693,2.5693,2.5693,2.5693,2.5693,2.5693,2.5693,2.5693,2.5693,2.5693,2.5693,2.5693,2.5693,2.5693,2.5693,2.5693,2.5693,2.5635,2.5469,2.541,2.5371,2.5156,2.506,2.506,2.506,2.506,2.5029,2.4795,2.4756,2.4551,2.3896,2.3789,2.3643,2.3159,2.3091,2.3091,2.3091,2.3091,2.3091,2.3091,2.3091,2.3091,2.3091,2.3637,2.4069,2.4188,2.4465,2.4864,2.5483,2.5698,2.6057,2.6601,2.7354,2.7708,2.7708,2.8499,2.8888,2.89,2.9528,2.9792,3.0642,3.0696,3.1009,3.1976,3.2303,3.2516,3.2968,3.3124,3.3124,3.3124,3.3124,3.3124,3.3124,3.3124,3.3124,3.3124,3.3124,3.3124,3.3124,3.3124,3.3124,3.3124,3.4048,3.468,3.468,3.5717,3.6405,3.6405,3.6405,3.5355,3.2894,3.2431,3.1684,3.0317,3.0317,2.966,2.8291,2.7881,2.7441,2.7012,2.6592,2.6162,2.5693,2.5693,2.5693,2.5693,2.5693,2.5693,2.5693,2.5693,2.5693,2.5693,2.5693,2.5693,2.5693,2.5693,2.5693,2.5693,2.5693,2.5878,2.611,2.611,2.5927,2.5693,2.5693,2.5693,2.5693,2.5693,2.5693,2.5693,2.5693,2.5693,2.5693,2.5693,2.5693,2.5693,2.5693,2.5693,2.5635,2.5283,2.5215,2.4961,2.4199,2.3984,2.3779,2.3305,2.3149,2.3091,2.3091,2.3091,2.3091,2.3091,2.3091,2.3091,2.3091,2.4125,2.4767,2.4698,2.5587,2.6422,2.7057,2.6974,2.7311,2.806,2.8222,2.8285,2.8285,2.88,2.9076,2.9088,2.9578,2.9792,3.0457,3.0959,3.1461,3.2064,3.2604,3.3048,3.3111,3.3124,3.3124,3.3124,3.3124,3.3124,3.3124,3.3124,3.3124,3.3124,3.3124,3.3124,3.3124,3.3124,3.3124,3.3124,3.4048,3.468,3.468,3.5717,3.6405,3.6405,3.6405,3.5763,3.4276,3.2994,3.1684,3.0317,3.0317,2.966,2.8291,2.7881,2.7441,2.7012,2.6592,2.6162,2.5693,2.5693,2.5693,2.5693,2.5693,2.5693,2.5693,2.5693,2.5693,2.5693,2.5693,2.5693,2.5693,2.5693,2.5693,2.5693,2.5693,2.6476,2.7458,2.7458,2.6658,2.5693,2.5693,2.5693,2.5693,2.5693,2.5693,2.5693,2.5693,2.5693,2.5693,2.5693,2.5693,2.5693,2.5693,2.5693,2.5674,2.5635,2.5625,2.5518,2.5086,2.4619,2.4219,2.3799,2.3344,2.3091,2.3091,2.3091,2.3091,2.3091,2.3091,2.3091,2.3091,2.4125,2.5241,2.6251,2.6822,2.7609,2.865,2.8213,2.8024,2.8109,2.8562,2.8813,2.8813,2.9428,2.9716,2.9716,2.9767,2.9792,3.0846,3.1235,3.1612,3.2503,3.2905,3.3124,3.3124,3.3124,3.3124,3.3124,3.3124,3.3124,3.3124,3.3124,3.3124,3.3124,3.3124,3.3124,3.3124,3.3124,3.3206,3.3533,3.4248,3.4806,3.5144,3.5906,3.6405,3.6405,3.6405,3.6156,3.5619,3.5054,3.4142,3.2805,3.1938,3.0876,2.9513,2.8281,2.7441,2.7012,2.6592,2.6162,2.5693,2.5693,2.5693,2.5693,2.5693,2.5693,2.5693,2.5693,2.5693,2.5693,2.5693,2.5693,2.5693,2.5693,2.5693,2.583,2.6572,2.7173,2.772,2.8459,2.8355,2.7804,2.7078,2.6294,2.5693,2.5693,2.5693,2.5693,2.5693,2.5693,2.5693,2.5693,2.5693,2.5693,2.5693,2.5693,2.5693,2.5693,2.5693,2.5596,2.5194,2.4707,2.4277,2.3857,2.3418,2.3091,2.3091,2.3091,2.3343,2.4049,2.3507,2.3387,2.4049,2.5179,2.6295,2.74,2.8325,2.8992,2.9402,2.9239,2.9114,2.9114,2.934,2.9453,2.9453,2.9679,2.9792,2.9792,2.9792,2.9792,3.1097,3.1386,3.1662,3.2847,3.3124,3.3124,3.3124,3.3124,3.3124,3.3124,3.3124,3.3124,3.3124,3.3124,3.3124,0.0,3.3124,3.3124,3.3124,3.3124,3.3219,3.3608,3.4286,3.4831,3.5219,3.5943,3.6405,3.6405,3.6405,3.6405,3.6405,3.6405,3.5763,3.4434,3.3464,3.2292,3.0927,2.9393,2.8503,2.8126,2.7221,2.6603,2.6245,2.5878,2.5693,2.5693,2.5693,2.5693,2.5693,2.5693,2.5693,2.5732,2.611,2.6245,2.6294,2.6658,2.6791,2.6935,2.7814,2.8366,2.8819,2.9681,2.9954,2.9772,2.8901,2.7531,2.6245,2.6245,2.5965,2.5693,2.5693,2.5693,2.5693,2.5693,2.5693,2.5693,2.5693,2.5693,2.5693,2.5693,2.5693,2.5586,2.5322,2.4795,2.4316,2.4014,2.3496,2.3091,2.3091,2.3091,2.3551,2.467,2.4092,2.4049,2.521,2.6337,2.7279,2.8056,2.9157,2.9792,2.9792,2.9792,2.9792,2.9792,2.9792,2.9792,2.9792,2.9792,2.9792,2.9792,2.9792,2.9792,3.1097,3.1386,3.1662,3.2847,3.3124,3.3124,3.3124,3.3124,3.3124,3.3124,3.3124,3.3124,3.3124,3.3124,3.3124,3.3124,3.3124,3.3124,3.3124,3.3124,3.3124,3.3124,3.406,3.468,3.4726,3.5717,3.6405,3.6405,3.6405,3.6405,3.6405,3.6405,3.5763,3.4434,3.4385,3.3723,3.228,3.133,3.0849,3.0826,2.864,2.7589,2.7542,2.6294,2.5693,2.5693,2.5693,2.5693,2.5693,2.5693,2.5693,2.583,2.7078,2.7589,2.772,2.8912,2.9361,2.9361,2.9361,3.0181,3.1178,3.1178,3.1166,3.1178,3.1178,2.9498,2.7589,2.7589,2.6658,2.5693,2.5693,2.5693,2.5693,2.5693,2.5693,2.5693,2.5693,2.5693,2.5693,2.5693,2.5693,2.5693,2.5684,2.4953,2.4414,2.4414,2.3637,2.3091,2.3091,2.3091,2.3551,2.467,2.4787,2.5252,2.6389,2.7481,2.8096,2.8096,2.9157,2.9792,2.9792,2.9792,2.9792,2.9792,2.9792,2.9792,2.9792,2.9792,2.9792,2.9792,2.9792,2.9792,3.1198,3.1662,3.2139,3.2893,3.3124,3.3124,3.3124,3.3124,3.3124,3.3124,3.3124,3.3124,3.3124,3.3124,3.3124,3.3124,3.3124,3.3124,3.3124,3.3124,3.3262,3.3596,3.4568,3.5382,3.5805,3.6204,3.6405,3.6405,3.6405,3.6405,3.6405,3.6405,3.6216,3.5763,3.4872,3.4178,3.3723,3.1866,3.0886,3.0874,2.9504,2.8819,2.8819,2.8402,2.8215,2.8215,2.8215,2.8215,2.8215,2.8215,2.8215,2.8262,2.868,2.8819,2.8866,2.9269,2.9407,2.9544,3.0361,3.0899,3.1356,3.2239,3.2513,3.2513,3.2513,3.0777,2.868,2.7814,2.7315,2.6982,2.6982,2.6982,2.722,2.8028,2.7579,2.6982,2.6982,2.6294,2.5965,2.6849,2.6982,2.7258,2.8085,2.742,2.6519,2.5823,2.5526,2.5136,2.4382,2.4925,2.5839,2.693,2.7064,2.7186,2.7562,2.7884,2.8426,2.9197,2.9585,2.9792,2.9792,2.9792,2.9792,2.9792,2.9792,2.9792,2.9792,2.9792,2.9792,2.9792,2.9792,2.9792,3.1612,3.1951,3.2353,3.293,3.3124,3.3124,3.3124,3.3124,3.3124,3.3124,3.3124,3.3124,3.3124,3.3124,3.3124,3.3124,3.3124,3.3124,3.3124,3.3124,3.3282,3.3834,3.4512,3.5215,3.5981,3.6056,3.6132,3.6392,3.6405,3.6405,3.6405,3.6405,3.6405,3.6405,3.5571,3.5174,3.5174,3.328,3.2324,3.2312,3.0801,3.009,3.0033,2.959,2.9407,2.9407,2.9407,2.9407,0.0,2.9407,2.9407,2.9453,2.9909,3.009,3.0135,3.0643,3.0777,3.0911,3.1645,3.1921,3.2052,3.284,3.3124,3.3124,3.3124,3.1701,2.9818,2.8634,2.8272,2.8272,2.8272,2.8272,2.8448,2.9223,2.8819,2.8272,2.8272,2.7673,2.7352,2.8132,2.8272,2.8495,2.9269,2.8578,2.7667,2.7007,2.6675,2.6224,2.5546,2.6058,2.6924,2.7976,2.8096,2.8255,2.8688,2.8727,2.9028,2.9753,2.9792,2.9792,2.9792,2.9792,2.9792,2.9792,2.9792,2.9792,2.9792,2.9792,2.9792,2.9792,2.9792,2.9792,0.0,3.2277,3.2403,3.2943,3.3124,3.3124,3.3124,3.3124,0.0,3.3124,3.3124,3.3124,3.3124,3.3124,3.3124,3.3124,3.3124,3.3124,3.3124,3.3124,3.3282,3.3834,3.3897,3.4324,3.5332,3.547,3.5708,3.6304,3.6392,3.6405,3.6405,3.6405,3.6405,3.6405,3.6405,3.6405,3.6405,3.5278,3.468,3.4655,3.2419,3.1356,3.1311,3.0181,2.9681,2.9681,2.9681,2.9681,2.9681,2.9681,2.9681,2.9772,3.0899,3.1356,3.15,3.2655,3.3124,3.3124,3.3124,3.3124,3.3124,3.3124,3.3124,3.3124,3.3124,3.2283,3.1089,2.9863,2.9544,2.9544,2.9544,2.9544,2.9544,2.9636,2.959,2.9544,2.9544,2.9453,2.9453,2.9498,2.9544,2.9544,2.9636,2.88,2.8145,2.8059,2.7268,2.673,2.6637,2.6678,2.7128,2.8096,2.8215,2.8636,2.9702,2.9792,2.9792,2.9792,2.9792,2.9792,2.9792,2.9792,2.9792,2.9792,2.9792,2.9792,2.9792,2.9792,2.9792,2.9792,2.9792,2.9792,3.2754,0.0,3.2905,3.3043,3.3124,3.3124,0.0,3.3124,3.3124,3.3124,3.3124,3.3124,3.3124,3.3124,3.3124,3.3124,3.3124,3.3124,3.3124,3.3124,3.3282,3.3834,3.3897,3.4173,3.4806,3.5257,3.5558,3.5683,3.6119,3.6405,3.6405,3.6405,3.6405,3.6405,3.6405,3.6405,3.6405,3.5278,3.468,3.4668,3.332,3.2655,3.2655,3.2339,3.2239,3.2239,3.2239,3.2239,3.2239,3.2239,3.2239,3.2251,3.2525,3.2655,3.2698,3.2982,3.3124,3.3124,3.3124,3.3124,3.3124,3.3124,3.3124,3.3124,3.3124,3.2884,3.2382,3.1134,3.0765,3.0765,3.0765,3.0765,3.1,3.2021,3.15,3.0765,3.0765,3.0045,2.967,3.0586,3.0765,3.1089,3.2064,3.129,3.0306,2.9496,2.9176,2.87,2.7855,2.849,2.9131,2.9365,2.9404,2.9495,2.9792,2.9792,2.9792,2.9792,2.9792,2.9792,2.9792,2.9792,2.9792,2.9792,2.9792,2.9792,2.9792,2.9792,2.9792,2.9792,2.9792,2.9792,3.2993,3.3124,3.3124,3.3124,3.3124,3.3124,3.3124,3.3124,3.3124,3.3124,3.3124,3.3124,3.3124,3.3124,3.3124,3.3124,3.3124,3.3124,3.3124,3.3124,3.3224,3.3483,3.352,3.3734,3.4299,3.4806,3.5219,3.5483,3.6056,3.6405,3.6405,3.6405,3.6405,3.6405,3.6405,3.6405,3.6405,3.5278,3.468,3.4713,3.3608,3.3124,3.3124,3.3124,3.3124,3.3124,3.3124,3.3124,3.3124,3.3124,3.3124,3.3124,3.3124,3.3124,3.3124,3.3124,3.3124,3.3124,3.3124,3.3124,3.3124,3.3124,3.3124,3.3124,3.3124,3.3124,3.2939,3.2283,3.2052,3.2052,3.2052,3.2052,3.2239,3.2939,3.2568,3.2052,3.2052,3.1557,3.1279,3.1921,3.2052,3.2283,3.2982,3.2139,3.1223,3.0621,3.0099,2.9573,2.8976,2.9417,2.9792,2.9792,2.9792,2.9792,2.9792,2.9792,2.9792,2.9792,2.9792,2.9792,2.9792,2.9792,2.9792,2.9792,2.9792,2.9792,2.9792,2.9792,2.9792,2.9792,2.9792,2.9792,3.3038,3.3124,3.3124,3.3124,3.3124,3.3124,3.3124,3.3124,3.3124,3.3124,3.3124,3.3124,3.3124,3.3124,3.3124,3.3124,3.3124,3.3124,3.3124,3.3124,3.3124,3.3124,3.3124,3.3257,3.3721,3.4274,3.4781,3.5332,3.5931,3.6317,3.6405,3.6405,3.6405,3.6405,3.6405,3.6405,3.6405,3.5278,3.468,3.4713,3.3608,3.3124,3.3124,3.3124,3.3124,3.3124,3.3124,3.3124,3.3124,3.3124,3.3124,3.3124,3.3124,3.3124,3.3124,3.3124,3.3124,3.3124,3.3124,3.3124,3.3124,3.3124,3.3124,3.3124,3.3124,3.3124,3.3124,3.3124,3.3124,3.3124,3.3124,3.3124,3.3124,3.3124,3.3124,3.3124,3.3124,3.3124,3.3124,3.3124,3.3124,3.3124,3.3124,3.2139,3.1386,3.1386,3.0482,2.9792,2.9792,2.9792,2.9792,2.9792,2.9792,2.9792,2.9792,2.9792,2.9792,2.9792,2.9792,2.9792,2.9792,2.9792,2.9792,2.9792,2.9792,2.9792,2.9792,2.9792,2.9792,2.9792,2.9792,2.9792,3.2797,3.3124,3.3124,3.3124,3.3124,3.3124,3.3124,3.3124,3.3124,3.3124,3.3124,3.3124,3.3124,3.3124,3.3124,3.3124,3.3124,3.3124,3.3124,3.3124,3.3124,3.3124,3.3124,3.3106,3.3194,3.3709,3.4261,3.4756,3.532,3.5868,3.638,3.6405,3.6405,3.6405,3.6405,3.6405,3.6405,3.5278,3.468,3.4713,3.3608,3.3124,3.3124,3.3124,3.3124,3.3124,3.3124,3.3124,3.3124,3.3124,3.3124,3.3124,3.3124,3.3124,3.3124,3.3124,3.3124,3.3124,3.3124,3.3124,3.3124,3.3124,3.3124,3.3124,3.3124,3.3124,3.3124,3.3124,3.3124,3.3124,3.3124,3.3124,3.3124,3.3124,3.3124,3.3124,3.3124,3.3124,3.3124,3.3124,3.3124,3.3124,3.3124,3.2139,3.1386,3.1386,3.0482,2.9792,2.9792,2.9792,2.9792,2.9792,2.9792,2.9792,2.9792,2.9792,2.9792,2.9792,2.9792,2.9792,2.9792,2.9792,2.9792,2.9792,2.9792,2.9792,2.9792,2.9792,2.9792,2.9792,2.9792,2.9792,3.2754,3.3124,3.3124,3.3124,3.3124,3.3124,3.3124,3.3124,3.3124,3.3124,3.3124,3.3124,3.3124,3.3124,3.3124,3.3124,3.3124,3.3124,3.3124,3.3124,3.3124,3.3124,3.3124,3.3124,3.3124,3.3583,3.4123,3.4675,3.5194,3.578,3.638,3.6405,3.6405,3.6405,3.6405,3.6405,3.6405,3.5278,3.468,3.4713,3.3608,3.3124,3.3124,3.3124,3.3124,3.3124,3.3124,3.3124,3.3124,3.3124,3.3124,3.3124,3.3124,3.3124,3.3124,3.3124,3.3124,3.3124,3.3124,3.3124,3.3124,3.3124,3.3124,3.3124,3.3124,3.3124,3.3124,3.3124,3.3124,3.3124,3.3124,3.3124,3.3124,3.3124,3.3124,3.3124,3.3124,3.3124,3.3124,3.3124,3.3124,3.3124,3.3124,3.2139,3.1386,3.1386,3.0482,2.9792,2.9792,2.9792,2.9792,2.9792,2.9792,2.9792,2.9792,2.9792,2.9792,2.9792,2.9792,2.9792,2.9792,2.9792,2.9792,2.9792,2.9792,2.9792,2.9792,2.9792,2.9792,2.9792,2.9792,2.9792,3.2655,3.3124,3.3124,3.3124,3.3124,3.3124,3.3124,3.3124,3.3124,3.3124,3.3124,3.3124,3.3124,3.3124,3.3124,3.3124,3.3124,3.3124,3.3124,3.3124,3.3124,3.3124,3.3124,3.3124,3.3124,3.3458,3.3935,3.4487,3.4994,3.5545,3.6144,3.6329,3.6405,3.6405,3.6405,3.6405,3.6405,3.5278,3.468,3.4713,3.3608,3.3124,3.3124,3.3124,3.3124,3.3124,3.3124,3.3124,3.3124,3.3124,3.3124,3.3124,3.3124,3.3124,3.3124,3.3124,3.3124,3.3124,3.3124,3.3124,3.3124,3.3124,3.3124,3.3124,3.3124,3.3124,3.3124,3.3124,3.3124,3.3124,3.3124,3.3124,3.3124,3.3124,3.3124,3.3124,3.3124,3.3124,3.3124,3.3124,3.3124,3.3124,3.3124,3.2139,3.1386,3.1386,3.0482,2.9792,2.9792,2.9792,2.9792,2.9792,2.9792,2.9792,2.9792,2.9792,2.9792,2.9792,2.9792,2.9792,2.9792,2.9792,2.9792,2.9792,2.9792,2.9792,2.9792,2.9792,2.9792,2.9792,2.9792,2.9792,3.2438,3.3124,3.3124,3.3124,3.3124,3.3124,3.3124,3.3124,3.3124,3.3124,3.3124,3.3124,3.3124,3.3124,3.3124,3.3124,3.3124,3.3124,3.3124,3.3124,3.3124,3.3124,3.3124,3.3124,3.3124,3.3106,3.337,3.3922,3.4462,3.4969,3.5533,3.6094,3.6405,3.6405,3.6405,3.6405,3.6405,3.5278,3.468,3.4713,3.3608,3.3124,3.3124,3.3124,3.3124,3.3124,3.3124,3.3124,3.3124,3.3124,3.3124,3.3124,3.3124,3.3124,3.3124,3.3124,3.3124,3.3124,3.3124,3.3124,3.3124,3.3124,3.3124,3.3124,3.3124,3.3124,3.3124,3.3124,3.3124,3.3124,3.3124,3.3124,3.3124,3.3124,3.3124,3.3124,3.3124,3.3124,3.3124,3.3124,3.3124,3.3124,3.3124,3.2139,3.1386,3.1386,3.0482,2.9792,2.9792,2.9792,2.9792,2.9792,2.9792,2.9792,2.9792,2.9792,2.9792,2.9792,2.9792,2.9792,2.9792,2.9792,2.9792,2.9792,2.9792,2.9792,2.9792,2.9792,2.9792,2.9792,2.9792,2.9792,3.2426,3.3124,3.3124,3.3124,3.3124,3.3124,3.3124,3.3124,3.3124,3.3124,3.3124,3.3124,3.3124,3.3124,3.3124,3.3124,3.3124,3.3124,3.3124,3.3124,3.3124,3.3124,3.3124,3.3124,3.3124,3.3124,3.3307,3.3859,3.4412,3.4919,3.547,3.6056,3.6405,3.6405,3.6405,3.6194,3.5855,3.5102,3.455,3.4198,3.3432,3.3124,3.3124,3.3124,3.3124,3.3124,3.3124,3.3124,3.3124,3.3124,3.3124,3.3124,3.3124,3.3124,3.3124,3.3124,3.3124,3.3124,3.3124,3.3124,3.3124,3.3124,3.3124,3.3124,3.3124,3.3124,3.3124,3.3124,3.3124,3.3124,3.3124,3.3124,3.3124,3.3124,3.3124,3.3124,3.3124,3.3124,3.3124,3.3124,3.3124,3.3124,3.3124,3.2416,3.1788,3.1436,3.0771,3.0181,2.9829,2.9792,2.9792,2.9792,2.9792,2.9792,2.9792,2.9792,2.9792,2.9792,2.9792,2.9792,2.9792,2.9792,2.9792,2.9792,2.9792,2.9792,2.9792,2.9792,2.9792,2.9792,2.9792,2.9792,3.1921,3.2797,3.3124,3.3124,3.3124,3.3124,3.3124,3.3124,3.3124,3.3124,3.3124,3.3124,3.3124,3.3124,3.3124,3.3124,3.3124,3.3124,3.3124,3.3124,3.3124,3.3124,3.3124,3.3124,3.3124,3.3124,3.3232,3.3608,3.4148,3.4655,3.5207,3.5805,3.6182,3.6405,3.6194,3.5931,3.5495,3.4781,3.4274,3.3884,3.3345,3.3124,3.3124,3.3124,3.3124,3.3124,3.3124,3.3124,3.3124,3.3124,3.3124,3.3124,3.3124,3.3124,3.3124,3.3124,3.3124,3.3124,3.3124,3.3124,3.3124,3.3124,3.3124,3.3124,3.3124,3.3124,3.3124,3.3124,3.3124,3.3124,3.3124,3.3124,3.3124,3.3124,3.3124,3.3124,3.3124,3.3124,3.3124,3.3124,3.3124,3.3124,3.3124,3.2591,3.2026,3.1474,3.0947,3.0419,2.9867,2.9792,2.9792,2.9792,2.9792,2.9792,2.9792,2.9792,2.9792,2.9792,2.9792,2.9792,2.9792,2.9792,2.9792,2.9792,2.9792,2.9792,2.9792,2.9792,2.9792,2.9792,2.9792,2.9792,3.0855,3.214,3.3124,3.3124,3.3124,3.3124,3.3124,3.3124,3.3124,3.3124,3.3124,3.3124,3.3124,3.3124,3.3124,3.3124,3.3124,3.3124,3.3124,3.3124,3.3124,3.3124,3.3124,3.3124,3.3124,3.3124,3.3124,3.3124,3.3583,3.4135,3.4675,3.5194,3.578,3.6367,3.5818,3.5495,3.5483,3.4449,3.3897,3.3884,3.3332,3.3124,3.3124,3.3124,3.3124,3.3124,3.3124,3.3124,3.3124,3.3124,3.3124,3.3124,3.3124,3.3124,3.3124,3.3124,3.3124,3.3124,3.3124,3.3124,3.3124,3.3124,3.3124,3.3124,3.3124,3.3124,3.3124,3.3124,3.3124,3.3124,3.3124,3.3124,3.3124,3.3124,3.3124,3.3124,3.3124,3.3124,3.3124,3.3124,3.3124,3.3124,3.3124,3.2604,3.2039,3.1486,3.0959,3.0419,2.9867,2.9792,2.9792,2.9792,2.9792,2.9792,2.9792,2.9792,2.9792,2.9792,2.9792,2.9792,2.9792,2.9792,2.9792,2.9792,2.9792,2.9792,2.9792,2.9792,2.9792,2.9792,2.9792,2.9792,3.0855,3.214,3.3124,3.3124,3.3124,3.3124,3.3124,3.3124,3.3124,3.3124,3.3124,3.3124,3.3124,3.3124,3.3124,3.3124,3.3124,3.3124,3.3124,3.3124,3.3124,3.3124,3.3124,3.3124,3.3124,3.3124,3.3124,3.3124,3.3583,3.3972,3.4135,3.4663,3.5039,3.5203,3.5052,3.4776,3.4399,3.406,3.3709,3.3319,3.3156,3.3124,3.3124,3.3124,3.3124,3.3124,3.3124,3.3124,3.3124,3.3124,3.3124,3.3124,3.3124,3.3124,3.3124,3.3124,3.3124,3.3124,3.3124,3.3124,3.3124,3.3124,3.3124,3.3124,3.3124,3.3124,3.3124,3.3124,3.3124,3.3124,3.3124,3.3124,3.3124,3.3124,3.3124,3.3124,3.3124,3.3124,3.3124,3.3124,3.3124,3.3124,3.3124,3.293,3.2629,3.2051,3.1512,3.0834,2.9917,2.9792,2.9792,2.9792,2.9792,2.9792,2.9792,2.9792,2.9792,2.9792,2.9792,2.9792,2.9792,2.9792,2.9792,2.9792,2.9792,2.9792,2.9792,2.9792,2.9792,2.9792,2.9792,2.9792,3.0271,3.1777,3.3124,3.3124,3.3124,3.3124,3.3124,3.3124,3.3124,3.3124,3.3124,3.3124,3.3124,3.3124,3.324,3.367,3.3755,3.3869,3.4304,3.4332,3.4332,3.4332,3.4332,3.4178,3.3755,3.3755,3.3556,3.3111,3.3382,3.3671,3.3884,3.4211,3.45,3.4668,3.4512,3.4236,3.3897,3.3684,3.3407,3.3124,3.3124,3.3124,3.3124,3.3124,3.3124,3.3124,3.3124,3.3124,3.3124,3.3124,3.3124,3.3124,3.3124,3.3124,3.3124,3.3124,3.3124,3.3124,3.3124,3.3124,3.3124,3.3124,3.3124,3.3124,3.3124,3.3124,3.3124,3.3124,3.3124,3.3124,3.3124,3.3124,3.3124,3.3124,3.3124,3.3124,3.3124,3.3124,3.3124,3.3124,3.3124,3.3124,3.3124,3.3124,3.288,3.2303,3.1574,3.0771,2.9905,2.9792,2.9792,2.9792,2.9792,2.9792,2.9792,2.9792,2.9792,2.9792,2.9792,2.9792,2.9792,2.9792,2.9792,2.9792,2.9792,2.9792,2.9792,2.9792,2.9792,2.9792,2.9792,2.9792,2.9407,3.119,3.3124,3.3124,3.3124,3.3124,3.3124,3.3197,3.324,3.3124,3.3124,3.3111,3.324,3.324,3.3586,3.4664,3.4815,3.517,3.6093,3.6198,3.6198,3.6198,3.6198,3.5854,3.4938,3.4815,3.4387,3.3313,3.324,3.3411,3.3796,3.3822,3.406,3.4562,3.4085,3.3822,3.3822,3.3319,3.3124,3.3124,3.3124,3.3124,3.3124,3.3124,3.3124,3.3124,3.3124,3.3124,3.3124,3.3124,3.3124,3.3124,3.3124,3.3124,3.3124,3.3124,3.3124,3.3124,3.3124,3.3124,3.3124,3.3124,3.3124,3.3124,3.3124,3.3124,3.3124,3.3124,3.3124,3.3124,3.3124,3.3124,3.3124,3.3124,3.3124,3.3124,3.3124,3.3124,3.3124,3.3124,3.3124,3.3124,3.3124,3.3124,3.2867,3.224,3.1311,3.047,2.9867,2.9792,2.9792,2.9792,2.9792,2.9792,2.9792,2.9792,2.9792,2.9792,2.9792,2.9792,2.9792,2.9792,2.9792,2.9792,2.9792,2.9792,2.9792,2.9792,2.9792,2.9792,2.9792,2.9869,2.9407,3.119,3.3124,3.3124,3.3124,3.3124,3.3124,3.3755,3.4108,3.3283,3.3124,3.3356,3.4191,3.4345,3.4692,3.5708,3.5894,3.5974,3.6158,3.6198,3.6198,3.6198,3.6198,3.6132,3.5894,3.5894,3.5467,3.4428,3.4345,3.4047,3.333,3.3257,3.3307,3.3432,3.3319,3.3257,3.3257,3.3174,3.3124,3.3124,3.3124,3.3124,3.3124,3.3124,3.3124,3.3124,3.3124,3.3124,3.3124,3.3124,3.3124,3.3124,3.3124,3.3124,3.3124,3.3124,3.3124,3.3124,3.3124,3.3124,3.3124,3.3124,3.3124,3.3124,3.3124,3.3124,3.3124,3.3124,3.3124,3.3124,3.3124,3.3124,3.3124,3.3124,3.3124,3.3124,3.3124,3.3124,3.3124,3.3124,3.3124,3.3124,3.3124,3.3124,3.2729,3.1725,3.1373,3.0871,2.9917,2.9792,2.9792,2.9792,2.9792,2.9792,2.9792,2.9792,2.9792,2.9792,2.9792,2.9792,2.9792,2.9792,2.9792,2.9792,2.9792,2.9792,2.9792,2.9792,2.9792,2.9792,2.9792,3.0177,2.9407,3.119,3.3124,3.3124,3.3124,3.3124,3.3124,3.3513,3.3911,3.3869,3.4262,3.4761,3.5319,3.544,3.5748,3.6813,3.6982,3.7137,3.7648,3.7724,3.7724,3.7724,3.7724,3.7534,3.7021,3.6982,3.654,3.5521,3.544,3.4966,3.3911,3.3869,3.3641,3.3124,3.3124,3.3124,3.3124,3.3124,3.3124,3.3124,3.3124,3.3124,3.3124,3.3124,3.3124,3.3124,3.3124,3.3124,3.3124,3.3124,3.3124,3.3124,3.3124,3.3124,3.3124,3.3124,3.3124,3.3124,3.3124,3.3124,3.3124,3.3124,3.3124,3.3124,3.3124,3.3124,3.3124,3.3124,3.3124,3.3124,3.3124,3.3124,3.3124,3.3124,3.3124,3.3124,3.3124,3.3124,3.3124,3.3124,3.3124,3.3124,3.3124,3.3124,3.278,3.1913,3.1562,3.1097,3.0294,2.9955,2.9792,2.9792,2.9792,2.9792,2.9792,2.9792,2.9792,2.9792,2.9792,2.9792,2.9792,2.9792,2.9792,2.9792,2.9792,2.9792,2.9792,2.9792,3.0037,3.0482,3.0482,3.0983,2.9361,3.119,3.3124,3.3124,3.3124,3.3124,3.3124,3.324,3.367,3.4733,3.548,3.6053,3.6408,3.6487,3.6813,3.7904,3.8069,3.8383,3.9265,3.9388,3.9388,3.9388,3.9388,3.9068,3.8144,3.8069,3.7625,3.6565,3.6487,3.5948,3.4746,3.4705,3.4191,3.3111,3.3124,3.3124,3.3124,3.3124,3.3124,3.3124,3.3124,3.3124,3.3124,3.3124,3.3124,3.3124,3.3124,3.3124,3.3124,3.3124,3.3124,3.3124,3.3124,3.3124,3.3124,3.3124,3.3124,3.3124,3.3124,3.3124,3.3124,3.3124,3.3124,3.3124,3.3124,3.3124,3.3124,3.3124,3.3124,3.3124,3.3124,3.3124,3.3124,3.3124,3.3124,3.3124,3.3124,3.3124,3.3124,3.3124,3.3124,3.3124,3.3124,3.3124,3.288,3.2303,3.1738,3.1198,3.0683,3.0131,2.9792,2.9792,2.9792,2.9792,2.9792,2.9792,2.9792,2.9792,2.9792,2.9792,2.9792,2.9792,2.9792,2.9792,2.9792,2.9792,2.9792,2.9792,3.0279,3.1217,3.1217,3.1779,2.9143,3.119,3.3124,3.3124,3.3124,3.3124,3.3124,3.3839,3.4774,3.5774,3.54,3.5453,3.7266,3.7587,3.7942,3.9017,3.9177,3.9228,3.9388,3.9388,3.9388,3.9388,3.9388,3.9337,3.9177,3.9177,3.8745,3.7663,3.7587,3.6763,3.4787,3.4705,3.4191,3.3111,3.3124,3.3124,3.3124,3.3124,3.3124,3.3124,3.3124,3.3124,3.3124,3.3124,3.3124,3.3124,3.3124,3.3124,3.3124,3.3124,3.3124,3.3124,3.3124,3.3124,3.3124,3.3124,3.3124,3.3124,3.3124,3.3124,3.3124,3.3124,3.3124,3.3124,3.3124,3.3124,3.3124,3.3124,3.3124,3.3124,3.3124,3.3124,3.3124,3.3124,3.3124,3.3124,3.3124,3.3124,3.3124,3.3124,3.3124,3.3124,3.3124,3.3124,3.288,3.2303,3.1738,3.1198,3.0683,3.0131,2.9792,2.9792,2.9792,2.9792,2.9792,2.9792,2.9792,2.9792,2.9792,2.9792,2.9792,2.9792,2.9792,2.9792,2.9792,2.9792,2.9792,2.9792,3.0279,3.1217,3.1217,3.2141,2.9909,3.1178,3.2196,3.2927,3.3124,3.3124,3.3124,3.3484,3.4262,3.5854,3.5854,3.6186,3.8308,3.8708,3.887,3.9301,3.9388,3.9388,3.9388,3.9388,3.9388,3.9388,3.9388,3.9388,3.9388,3.9388,3.9177,3.8745,3.8708,3.8032,3.6529,3.5882,3.5088,3.4037,3.3398,3.3124,3.3124,3.3124,3.3124,3.3124,3.3124,3.3124,3.3124,3.3124,3.3124,3.3124,3.3124,3.3124,3.3124,3.3124,3.3124,3.3124,3.3124,3.3124,3.3124,3.3124,3.3124,3.3124,3.3124,3.3124,3.3124,3.3124,3.3124,3.3124,3.3124,3.3124,3.3124,3.3124,3.3124,3.3124,3.3124,3.3124,3.3124,3.3124,3.3124,3.3124,3.3124,3.3124,3.3124,3.3124,3.3124,3.3124,3.3124,3.3124,3.2993,3.2729,3.2215,3.165,3.1122,3.0583,3.0131,2.9829,2.9792,2.9792,2.9792,2.9792,2.9792,2.9792,2.9792,2.9792,2.9792,2.9792,2.9792,2.9792,2.9792,2.9792,2.9792,2.9792,3.0558,3.1997,3.1997,3.2996,2.9772,3.0721,3.1444,3.2382,3.284,3.3124,3.3124,3.3124,3.3628,3.5426,3.6013,3.676,3.8657,3.9228,3.9388,3.9388,3.9388,3.9388,3.9388,3.9388,3.9388,3.9388,3.9388,3.9388,3.9388,3.9388,3.9388,3.9388,3.9388,3.8943,3.7866,3.6774,3.5734,3.4746,3.367,3.3124,3.3124,3.3124,3.3124,3.3124,3.3124,3.3124,3.3124,3.3124,3.3124,3.3124,3.3124,3.3124,3.3124,3.3124,3.3124,3.3124,3.3124,3.3124,3.3124,3.3124,3.3124,3.3124,3.3124,3.3124,3.3124,3.3124,3.3124,3.3124,3.3124,3.3124,3.3124,3.3124,3.3124,3.3124,3.3124,3.3124,3.3124,3.3124,3.3124,3.3124,3.3124,3.3124,3.3124,3.3124,3.3124,3.3124,3.3124,3.3124,3.3124,3.3124,3.2591,3.2064,3.165,3.1022,3.0457,3.0043,2.988,2.9792,2.9792,2.9792,2.9792,2.9792,2.9792,2.9792,2.9792,2.9792,2.9792,2.9792,2.9792,2.9792,2.9792,3.0037,3.0983,3.2593,3.2855,3.3871,2.7651,2.9453,3.1223,3.1267,3.2196,3.3124,3.3124,3.3124,3.3441,3.4553,3.5547,3.6526,3.7663,3.8708,3.9388,3.9388,3.9388,3.9388,3.9388,3.9388,3.9388,3.9388,3.9388,3.9388,3.9388,3.9388,3.9388,3.9388,3.9388,3.8943,3.7866,3.6774,3.5734,3.4746,3.367,3.3124,3.3124,3.3124,3.3124,3.3124,3.3124,3.3124,3.3124,3.3124,3.3124,3.3124,3.3124,3.3124,3.3124,3.3124,3.3124,3.3124,3.3124,3.3124,3.3124,3.3124,3.3124,3.3124,3.3124,3.3124,3.3124,3.3124,3.3124,3.3124,3.3124,3.3124,3.3124,3.3124,3.3124,3.3124,3.3124,3.3124,3.3124,3.3124,3.3124,3.3124,3.3124,3.3124,3.3124,3.3124,3.3124,3.3124,3.3124,3.3124,3.3124,3.3124,3.2591,3.2202,3.2177,3.126,3.0608,3.057,3.0105,2.9792,2.9792,2.9792,2.9792,2.9792,2.9792,2.9792,2.9792,2.9792,2.9792,2.9792,2.9792,2.9792,2.9792,3.0696,3.1646,3.2629,3.3518,3.4495,2.6497,2.8162,2.9843,3.0636,3.1982,3.3124,3.3124,3.3124,3.3398,3.447,3.5507,3.6526,3.7587,3.8671,3.9388,3.9388,3.9388,3.9388,3.9388,3.9388,3.9388,3.9388,3.9388,3.9388,3.9388,3.9388,3.9388,3.9388,3.9388,3.9228,3.887,3.7161,3.6053,3.5668,3.3982,3.3124,3.3124,3.3124,3.3124,3.3124,3.3124,3.3124,3.3124,3.3124,3.3124,3.3124,3.3124,3.3124,3.3124,3.3124,3.3124,3.3124,3.3124,3.3124,3.3124,3.3124,3.3124,3.3124,3.3124,3.3124,3.3124,3.3124,3.3124,3.3124,3.3124,3.3124,3.3124,3.3124,3.3124,3.3124,3.3124,3.3124,3.3124,3.3124,3.3124,3.3124,3.3124,3.3124,3.3124,3.3124,3.3124,3.3124,3.3124,3.3124,3.3124,3.3124,3.2905,3.2641,3.2265,3.1876,3.1499,3.1148,3.0633,3.0319,3.0319,2.9993,2.9792,2.9792,2.9792,2.9792,2.9792,2.9792,2.9792,2.9792,3.0381,3.0696,3.0696,3.1044,3.1997,3.3518,3.3842,3.4543,2.5386,2.6809,2.8255,2.9398,3.085,3.2067,3.2461,3.2516,3.2744,3.3454,3.442,3.5423,3.6476,3.7717,3.8765,3.9307,3.9388,3.9388,3.9388,3.9388,3.9388,3.9388,3.9388,3.9388,3.9388,3.9388,3.9388,3.9388,3.9388,3.9388,3.9388,3.7701,3.6422,3.5708,3.4024,3.3124,3.3124,3.3124,3.3124,3.3124,3.3124,3.3124,3.3124,3.3124,3.3124,3.3124,3.3124,3.3124,3.3124,3.3124,3.3124,3.3124,3.3124,3.3124,3.3124,3.3124,3.3124,3.3124,3.3124,3.3124,3.3124,3.3124,3.3124,3.3124,3.3124,3.3124,3.3124,3.3124,3.3124,3.3124,3.3124,3.3124,3.3124,3.3124,3.3124,3.3124,3.3124,3.3124,3.3124,3.3124,3.3124,3.3124,3.3124,3.3124,3.3124,3.3124,3.3124,3.2943,3.2554,3.234,3.2077,3.17,3.1035,3.062,3.062,3.0118,2.9792,2.9792,2.9792,2.9792,2.9792,3.0113,3.0279,3.0279,3.118,3.1815,3.2141,3.2141,3.2784,3.4027,3.4361,3.4872,0.0,0.0,0.0,2.7601,2.8834,3.0067,3.1169,3.1386,3.1386,3.1386,3.2249,3.3273,3.4176,3.5792,3.7448,3.9028,3.9358,3.9388,3.9388,3.9388,3.9388,3.9388,3.9388,3.9388,3.9388,3.9388,3.9388,3.9388,3.9388,3.9388,3.9388,3.8345,3.6802,3.4746,3.367,3.3124,3.3124,3.3124,3.3124,3.3124,3.3124,3.3124,3.3124,3.3124,3.3124,3.3124,3.3124,3.3124,3.3124,3.3124,3.3124,3.3124,3.3124,3.3124,3.3124,3.3124,3.3124,3.3124,3.3124,3.3124,3.3124,3.3124,3.3124,3.3124,3.3124,3.3124,3.3124,3.3124,3.3124,3.3124,3.3124,3.3124,3.3124,3.3124,3.3124,3.3124,3.3124,3.3124,3.3124,3.3124,3.3124,3.3124,3.3124,3.3124,3.3124,3.3124,3.3124,3.3124,3.3124,3.2591,3.224,3.224,3.1273,3.0633,3.0633,3.0118,2.9792,2.9792,2.9792,2.9792,2.983,3.0733,3.1217,3.1254,3.2177,3.3101,3.3993,3.3993,3.4027,3.4061,3.5052,3.5504,2.3413,0.0,0.0,0.0,0.0,0.0,3.1169,3.1386,3.1386,3.1386,3.2249,3.3091,3.335,3.4431,3.5623,3.6758,3.8322,3.9388,3.9388,3.9388,3.9388,3.9388,3.9388,3.9388,3.9388,3.9388,3.9388,3.9388,3.9388,3.9388,3.9388,3.7648,3.6067,3.4746,3.367,3.3124,3.3124,3.3124,3.3124,3.3124,3.3124,3.3124,3.3124,3.3124,3.3124,3.3124,3.3124,3.3124,3.3124,3.3124,3.3124,3.3124,3.3124,3.3124,3.3124,3.3124,3.3124,3.3124,3.3124,3.3124,3.3124,3.3124,3.3124,3.3124,3.3124,3.3124,3.3124,3.3124,3.3124,3.3124,3.3124,3.3124,3.3124,3.3124,3.3124,3.3124,3.3124,3.3124,3.3124,3.3124,3.3124,3.3124,3.3124,3.3124,3.3124,3.3124,3.3124,3.3124,3.3124,3.293,3.283,3.283,3.1838,3.1173,3.1173,3.0331,2.9792,2.9792,2.9792,3.0101,3.0758,3.1082,3.1536,3.2213,3.3136,3.3739,3.3993,3.3993,3.4361,3.51,3.5359,3.5504,2.3091,2.3817,2.4817,2.5957,0.0,0.0,2.9772,3.0375,3.0721,3.0721,3.1224,3.1772,3.2171,3.3006,3.3922,3.485,3.6338,3.7755,3.8838,3.923,3.9388,3.9388,3.9388,3.9388,3.9388,3.9388,3.9388,3.9388,3.9388,3.9388,3.9388,3.7776,3.6383,3.5359,3.4304,3.3556,3.3124,3.3124,3.3124,3.3124,3.3124,3.3124,3.3124,3.3124,3.3124,3.3124,3.3124,3.3124,3.3124,3.3124,3.3124,3.3124,3.3124,3.3124,3.3124,3.3124,3.3124,3.3124,3.3124,3.3124,3.3124,3.3124,3.3124,3.3124,3.3124,3.3124,3.3124,3.3124,3.3124,3.3124,3.3124,3.3124,3.3124,3.3124,3.3124,3.3124,3.3124,3.3124,3.3124,3.3124,3.3124,3.3124,3.3124,3.3124,3.3124,3.3124,3.3124,3.3124,3.3124,3.3124,3.3124,3.3124,3.2265,3.1637,3.1411,3.062,3.0043,2.9804,2.9792,3.0203,3.118,3.1573,3.2249,3.3171,3.4143,3.4624,3.4624,3.4624,3.4953,3.5504,3.5504,3.5504,2.3091,2.3091,2.3387,2.45,2.5546,0.0,2.7683,2.87,2.9456,2.9585,2.9624,2.9896,3.0871,3.1516,3.2237,3.3189,3.3896,3.5217,3.7712,3.8578,3.9015,3.9213,3.9228,3.9265,3.9388,3.9388,3.9388,3.9388,3.9388,3.9388,3.9388,3.8383,3.7343,3.6408,3.5292,3.4233,3.3283,3.3154,3.3124,3.3124,3.3124,3.3124,3.3124,3.3124,3.3124,3.3124,3.3124,3.3124,3.3124,3.3124,3.3124,3.3124,3.3124,3.3124,3.3124,3.3124,3.3124,3.3124,3.3124,3.3124,3.3124,3.3124,3.3124,3.3124,3.3124,3.3124,3.3124,3.3124,3.3124,3.3124,3.3124,3.3124,3.3124,3.3124,3.3124,3.3124,3.3124,3.3124,3.3124,3.3124,3.3124,3.3124,3.3124,3.3124,3.3124,3.3124,3.3124,3.3124,3.3124,3.3124,3.3124,3.3124,3.2554,3.2014,3.1524,3.1027,3.0552,3.0086,3.0075,3.0533,3.1462,3.2321,3.3206,3.4143,3.5019,3.5504,3.5504,3.5504,3.5504,3.5504,3.5504,3.5504,2.3091,2.3091,2.3387,2.45,2.4957,0.0,2.6554,2.6964,2.7383,2.8267,2.8426,2.8755,2.987,3.0164,3.0599,3.1538,3.2217,3.3436,3.5685,3.6103,3.6675,3.7974,3.8107,3.8472,3.9301,3.9388,3.9388,3.9388,3.9388,3.9388,3.9388,3.8383,3.7715,3.751,3.5655,3.4581,3.4387,3.3513,3.3124,3.3124,3.3124,3.3124,3.3124,3.3124,3.3124,3.3124,3.3124,3.3124,3.3124,3.3124,3.3124,3.3124,3.3124,3.3124,3.3124,3.3124,3.3124,3.3124,3.3124,3.3124,3.3124,3.3124,3.3124,3.3124,3.3124,3.3124,3.3124,3.3124,3.3124,3.3124,3.3124,3.3124,3.3124,3.3124,3.3124,3.3124,3.3124,3.3124,3.3124,3.3124,3.3124,3.3124,3.3124,3.3124,3.3124,3.3124,3.3124,3.3124,3.3124,3.3124,3.3124,3.3124,3.2554,3.2177,3.2064,3.1859,3.1667,3.1601,3.1877,3.2464,3.3415,3.3636,3.4177,3.518,3.5392,3.5504,3.5504,3.5504,3.5504,3.5504,3.5504,3.5504,2.3091,2.3091,2.3266,2.38,2.4382,0.0,0.0,2.6099,2.6637,2.7197,2.7723,2.8255,2.8858,2.9417,2.996,3.0419,3.0765,3.1487,3.2829,3.4392,3.5697,3.6503,3.6838,3.742,3.8509,3.8583,3.8819,3.9337,3.9388,3.9388,3.9388,3.8907,3.8345,3.7829,3.6802,3.5735,3.4705,3.415,3.3641,3.3124,3.3124,3.3124,3.3124,3.3124,3.3124,3.3124,3.3124,3.3124,3.3124,3.3124,3.3124,3.3124,3.3124,3.3124,3.3124,3.3124,3.3124,3.3124,3.3124,3.3124,3.3124,3.3124,3.3124,3.3124,3.3124,3.3124,3.3124,3.3124,3.3124,3.3124,3.3124,3.3124,3.3124,3.3124,3.3124,3.3124,3.3124,3.3124,3.3124,3.3124,3.3124,3.3124,3.3124,3.3124,3.3124,3.3124,3.3124,3.3124,3.3124,3.3124,3.3313,3.3839,3.3653,3.355,3.3779,3.3749,3.3587,3.3328,3.3175,3.3514,3.4453,3.4185,3.4461,3.5472,3.5504,3.5504,3.5504,3.5504,3.5504,3.5504,3.5504,3.5504,2.3091,2.3091,2.3091,2.3091,2.38,2.4457,0.0,0.0,0.0,2.6141,2.6871,2.751,2.7763,2.8688,2.9495,2.9495,2.9663,2.9942,3.0394,3.2777,3.463,3.5043,3.5578,3.6344,3.7381,3.7663,3.8234,3.9301,3.9388,3.9388,3.9388,3.9388,3.898,3.8144,3.7919,3.688,3.502,3.4787,3.415,3.3124,3.3124,3.3124,3.3124,3.3124,3.3124,3.3124,3.3124,3.3124,3.3124,3.3124,3.3124,3.3124,3.3124,3.3124,3.3124,3.3124,3.3124,3.3124,3.3124,3.3124,3.3124,3.3124,3.3124,3.3124,3.3124,3.3124,3.3124,3.3124,3.3124,3.3124,3.3124,3.3124,3.3124,3.3124,3.3124,3.3124,3.3124,3.3124,3.3124,3.3124,3.3124,3.3124,3.3124,3.3124,3.3124,3.3124,3.3124,3.3124,3.3124,3.3124,3.3441,3.4317,3.4594,3.4833,3.5212,3.5526,3.5478,3.5064,3.4582,3.4661,3.5444,3.4835,3.4867,3.5699,3.5564,3.5504,3.5504,3.5504,3.5504,3.5504,3.5504,3.5504,2.3091,2.3091,2.3091,2.3091,2.3222,2.3299,2.3299,0.0,2.3757,2.4787,0.0,2.5493,2.6513,0.0,0.0,2.8307,2.9157,2.9817,2.988,3.0591,3.1872,3.3767,3.4525,3.5292,3.629,3.7252,3.8234,3.9301,3.9388,3.9388,3.9388,3.9388,3.9337,3.9228,3.8308,3.7228,3.6053,3.517,3.415,3.3124,3.3124,3.3124,3.3124,3.3124,3.3124,3.3124,3.3124,3.3124,3.3124,3.3124,3.3124,3.3124,3.3124,3.3124,3.3124,3.3124,3.3124,3.3124,3.3124,3.3124,3.3124,3.3124,3.3124,3.3124,3.3124,3.3124,3.3124,3.3124,3.3124,3.3124,3.3124,3.3124,3.3124,3.3124,3.3124,3.3124,3.3124,3.3124,3.3124,3.3124,3.3124,3.3124,3.3124,3.3124,3.3124,3.3124,3.3124,3.3124,3.3124,3.3124,3.3154,3.3283,3.4108,3.4719,3.4763,3.5903,3.6622,3.655,3.6816,3.703,3.7114,3.6552,3.6257,3.6372,3.5804,3.5504,3.5504,3.5504,3.5504,3.5504,3.5504,3.5504,2.3091,2.3091,2.3091,2.3091,2.3091,2.3091,2.3091,2.3091,2.3266,2.3714,0.0,0.0,0.0,0.0,0.0,0.0,2.8108,2.8806,2.8806,2.9836,3.1044,3.2252,3.2895,3.3801,3.5197,3.6841,3.7994,3.8435,3.9068,3.9388,3.9388,3.9388,3.9388,3.9388,3.8943,3.789,3.6237,3.5774,3.4733,3.3124,3.3124,3.3124,3.3124,3.3124,3.3124,3.3124,3.3124,3.3124,3.3124,3.3124,3.3471,3.4037,3.4037,3.3641,3.3124,3.3124,3.3124,3.3124,3.3124,3.3124,3.3124,3.3124,3.3124,3.3124,3.3124,3.3124,3.3124,3.3124,3.3124,3.3124,3.3124,3.3124,3.3124,3.3124,3.3124,3.3124,3.3124,3.3124,3.3124,3.3124,3.3124,3.3124,3.3124,3.3124,3.3124,3.3124,3.3124,3.3124,3.3124,3.3124,3.3543,3.4761,3.5305,3.6067,3.7319,3.7972,3.8318,3.8318,3.8121,3.7808,3.7419,3.7165,3.6851,3.6492,3.6207,3.5893,3.5504,3.5504,3.5504,3.5504,3.5504,3.5504,2.3091,2.3091,2.3091,2.3091,2.3091,2.3091,2.3091,2.3091,2.3091,2.3091,2.3757,0.0,0.0,0.0,2.6016,2.6016,0.0,2.7763,2.8044,2.9147,3.0238,3.1069,3.1788,3.28,3.4291,3.6221,3.7343,3.7343,3.8345,3.8819,3.8531,3.8531,3.8657,3.8943,3.8943,3.8055,3.6237,3.6487,3.5601,3.3556,3.3556,3.367,3.394,3.367,3.3556,3.3556,3.3556,3.3356,3.3124,3.3441,3.3995,3.4746,3.502,3.4664,3.3898,3.3628,3.3356,3.3124,3.3124,3.3124,3.3124,3.3124,3.3124,3.3124,3.3124,3.3124,3.3124,3.3124,3.3124,3.3124,3.3124,3.3124,3.3124,3.3124,3.3124,3.3124,3.3124,3.3124,3.3124,3.3124,3.3124,3.3124,3.3124,3.3124,3.3124,3.3124,3.3124,3.3124,3.3124,3.3124,3.3784,3.5588,3.6053,3.6968,3.8819,3.9228,3.9388,3.9388,3.8945,3.8452,3.7973,3.7778,3.7464,3.7015,3.6671,3.6252,3.5774,3.5594,3.5504,3.5504,3.5504,3.5504,2.3091,2.3091,2.3091,2.3091,2.3091,2.3091,2.3091,2.3091,2.3091,2.3091,2.3135,2.3135,2.3135,2.4092,2.4872,0.0,2.5797,0.0,0.0,2.8148,2.8775,3.0438,3.1574,3.2648,3.3699,3.5314,3.6237,3.6237,3.7266,3.7381,3.6369,3.6316,3.6774,3.7829,3.7829,3.7305,3.6198,3.7214,3.6724,3.4664,3.4664,3.517,3.6093,3.5088,3.4664,3.4664,3.4664,3.4079,3.3197,3.4233,3.4664,3.4787,3.5774,3.6119,3.5974,3.502,3.3995,3.3124,3.3124,3.3124,3.3124,3.3124,3.3124,3.3124,3.3124,3.3124,3.3124,3.3124,3.3124,3.3124,3.3124,3.3124,3.3124,3.3124,3.3124,3.3124,3.3124,3.3124,3.3124,3.3124,3.3124,3.3124,3.3124,3.3124,3.3124,3.3124,3.3124,3.3124,3.3124,3.3124,3.3513,3.4622,3.5628,3.6643,3.7753,3.8782,3.9388,3.9388,3.9394,3.9379,3.9328,3.8706,3.8347,3.8332,3.712,3.6477,3.6447,3.5818,3.5504,3.5504,3.5504,3.5504,2.3091,2.3091,2.3091,2.3091,2.3091,2.3091,2.3091,2.3091,2.3091,2.3091,2.3091,2.3091,2.3091,2.343,2.3671,0.0,2.4628,2.5493,0.0,2.7186,2.8578,2.9913,3.1022,3.1965,3.2679,3.3897,3.4768,3.5183,3.6146,3.6565,3.6237,3.6198,3.6369,3.6735,3.742,3.7291,3.6198,3.7252,3.7074,3.5708,3.5708,3.5854,3.6198,3.5854,3.5708,3.5708,3.5708,3.5507,3.5183,3.5547,3.6107,3.6802,3.7151,3.7266,3.7137,3.6067,3.5047,3.4079,3.3356,3.3556,3.415,3.415,3.4609,3.5034,3.4345,3.415,3.415,3.415,3.3641,3.3283,3.3953,3.3641,3.3124,3.3124,3.3124,3.3124,3.3124,3.3124,3.3124,3.3124,3.3124,3.3124,3.3124,3.3124,3.3124,3.3124,3.3124,3.3124,3.3124,3.3124,3.3755,3.5507,3.6013,3.693,3.8708,3.9177,3.9388,3.9388,3.9388,3.9388,3.9388,3.9185,3.8856,3.8407,3.7973,3.733,3.6492,3.6267,3.5923,3.5504,3.5504,3.5504,2.3091,2.3091,2.3091,2.3091,2.3091,2.3091,2.3091,2.3091,2.3091,2.3091,2.3091,2.3091,2.3091,2.3091,2.3091,0.0,0.0,2.4339,0.0,2.6685,2.8386,2.9106,3.0306,3.1248,3.1612,3.2951,3.3803,3.3799,3.4955,3.5507,3.5116,3.5116,3.5426,3.6158,3.6852,3.7098,3.6774,3.7829,3.7829,3.6774,3.6774,3.6968,3.7329,3.693,3.6774,3.6774,3.6774,3.6565,3.6237,3.6604,3.7175,3.7829,3.8234,3.8383,3.8234,3.7175,3.5868,3.4664,3.4332,3.4415,3.4746,3.5129,3.5668,3.6093,3.544,3.5238,3.5197,3.4969,3.4574,3.4334,3.4807,3.4546,3.4095,3.3755,3.367,3.3556,3.3197,3.3398,3.367,3.367,3.394,3.4207,3.4207,3.4207,3.4095,3.3713,3.3356,3.324,3.3641,3.367,3.4304,3.6013,3.6526,3.7496,3.9265,3.9388,3.9388,3.9388,3.9388,3.9388,3.9388,3.9388,3.9215,3.8766,3.8512,3.7868,3.6806,3.6596,3.6148,3.5504,3.5504,3.5504]}]]